<?xml version="1.0" encoding="UTF-8" standalone="no" ?>
<gpx xmlns="http://www.topografix.com/GPX/1/1" xmlns:xsi="http://www.w3.org/2001/XMLSchema-instance" xsi:schemaLocation="http://www.topografix.com/GPX/1/1 http://www.topografix.com/GPX/1/1/gpx.xsd" version="1.1" creator="VisuGPX - https://www.visugpx.com">
  <metadata>
    <name>2024-11-20  Randonnée TwoNav</name>
    <desc><![CDATA[2024-11-20_111433.trk]]></desc>
  </metadata>
  <trk>
    <name><![CDATA[2024-11-20  Randonnée TwoNav_1]]></name>
    <trkseg>
      <trkpt lat="48.22127" lon="6.72314">
        <ele>437.5</ele>
        <time>2024-11-20T10:14:33Z</time>
      </trkpt>
      <trkpt lat="48.22131" lon="6.72316">
        <ele>437.5</ele>
        <time>2024-11-20T10:14:34Z</time>
      </trkpt>
      <trkpt lat="48.22135" lon="6.72317">
        <ele>437.4</ele>
        <time>2024-11-20T10:14:35Z</time>
      </trkpt>
      <trkpt lat="48.22139" lon="6.72319">
        <ele>437.4</ele>
        <time>2024-11-20T10:14:36Z</time>
      </trkpt>
      <trkpt lat="48.22144" lon="6.72321">
        <ele>437.4</ele>
        <time>2024-11-20T10:14:37Z</time>
      </trkpt>
      <trkpt lat="48.22148" lon="6.72322">
        <ele>437.4</ele>
        <time>2024-11-20T10:14:38Z</time>
      </trkpt>
      <trkpt lat="48.22152" lon="6.72324">
        <ele>437.4</ele>
        <time>2024-11-20T10:14:39Z</time>
      </trkpt>
      <trkpt lat="48.22156" lon="6.72325">
        <ele>437.3</ele>
        <time>2024-11-20T10:14:40Z</time>
      </trkpt>
      <trkpt lat="48.2216" lon="6.72327">
        <ele>437.4</ele>
        <time>2024-11-20T10:14:47Z</time>
      </trkpt>
      <trkpt lat="48.22165" lon="6.72329">
        <ele>437.4</ele>
        <time>2024-11-20T10:14:53Z</time>
      </trkpt>
      <trkpt lat="48.22169" lon="6.7233">
        <ele>437.4</ele>
        <time>2024-11-20T10:15:00Z</time>
      </trkpt>
      <trkpt lat="48.22173" lon="6.72332">
        <ele>437.5</ele>
        <time>2024-11-20T10:15:07Z</time>
      </trkpt>
      <trkpt lat="48.22177" lon="6.72333">
        <ele>437.5</ele>
        <time>2024-11-20T10:15:14Z</time>
      </trkpt>
      <trkpt lat="48.22181" lon="6.72335">
        <ele>437.5</ele>
        <time>2024-11-20T10:15:21Z</time>
      </trkpt>
      <trkpt lat="48.22186" lon="6.72336">
        <ele>437.6</ele>
        <time>2024-11-20T10:15:29Z</time>
      </trkpt>
      <trkpt lat="48.2219" lon="6.72338">
        <ele>437.6</ele>
        <time>2024-11-20T10:15:29Z</time>
      </trkpt>
      <trkpt lat="48.22197" lon="6.72329">
        <ele>437.7</ele>
        <time>2024-11-20T10:15:42Z</time>
      </trkpt>
      <trkpt lat="48.22199" lon="6.72314">
        <ele>438.7</ele>
        <time>2024-11-20T10:15:49Z</time>
      </trkpt>
      <trkpt lat="48.22199" lon="6.72299">
        <ele>439.6</ele>
        <time>2024-11-20T10:15:57Z</time>
      </trkpt>
      <trkpt lat="48.22204" lon="6.72288">
        <ele>440.2</ele>
        <time>2024-11-20T10:16:21Z</time>
      </trkpt>
      <trkpt lat="48.22204" lon="6.72288">
        <ele>440.2</ele>
        <time>2024-11-20T10:16:22Z</time>
      </trkpt>
      <trkpt lat="48.22204" lon="6.72288">
        <ele>440.2</ele>
        <time>2024-11-20T10:16:23Z</time>
      </trkpt>
      <trkpt lat="48.22203" lon="6.72288">
        <ele>440.2</ele>
        <time>2024-11-20T10:16:30Z</time>
      </trkpt>
      <trkpt lat="48.22203" lon="6.72288">
        <ele>440.2</ele>
        <time>2024-11-20T10:16:31Z</time>
      </trkpt>
      <trkpt lat="48.22204" lon="6.72288">
        <ele>440.2</ele>
        <time>2024-11-20T10:16:32Z</time>
      </trkpt>
      <trkpt lat="48.22204" lon="6.72288">
        <ele>440.3</ele>
        <time>2024-11-20T10:16:33Z</time>
      </trkpt>
      <trkpt lat="48.22204" lon="6.72288">
        <ele>440.3</ele>
        <time>2024-11-20T10:16:34Z</time>
      </trkpt>
      <trkpt lat="48.22204" lon="6.72287">
        <ele>440.4</ele>
        <time>2024-11-20T10:16:43Z</time>
      </trkpt>
      <trkpt lat="48.22203" lon="6.72286">
        <ele>440.5</ele>
        <time>2024-11-20T10:16:44Z</time>
      </trkpt>
      <trkpt lat="48.22197" lon="6.72274">
        <ele>441.4</ele>
        <time>2024-11-20T10:16:51Z</time>
      </trkpt>
      <trkpt lat="48.22196" lon="6.7226">
        <ele>442.4</ele>
        <time>2024-11-20T10:16:59Z</time>
      </trkpt>
      <trkpt lat="48.22195" lon="6.72245">
        <ele>443.3</ele>
        <time>2024-11-20T10:17:07Z</time>
      </trkpt>
      <trkpt lat="48.22195" lon="6.7223">
        <ele>444.4</ele>
        <time>2024-11-20T10:17:15Z</time>
      </trkpt>
      <trkpt lat="48.22195" lon="6.72216">
        <ele>445.2</ele>
        <time>2024-11-20T10:17:24Z</time>
      </trkpt>
      <trkpt lat="48.22197" lon="6.72202">
        <ele>446.1</ele>
        <time>2024-11-20T10:17:31Z</time>
      </trkpt>
      <trkpt lat="48.22198" lon="6.72188">
        <ele>446.9</ele>
        <time>2024-11-20T10:17:38Z</time>
      </trkpt>
      <trkpt lat="48.22201" lon="6.72174">
        <ele>447.7</ele>
        <time>2024-11-20T10:17:47Z</time>
      </trkpt>
      <trkpt lat="48.22204" lon="6.72161">
        <ele>448.5</ele>
        <time>2024-11-20T10:17:55Z</time>
      </trkpt>
      <trkpt lat="48.2221" lon="6.72149">
        <ele>449.3</ele>
        <time>2024-11-20T10:18:03Z</time>
      </trkpt>
      <trkpt lat="48.22216" lon="6.72138">
        <ele>450.1</ele>
        <time>2024-11-20T10:18:10Z</time>
      </trkpt>
      <trkpt lat="48.22223" lon="6.72126">
        <ele>450.9</ele>
        <time>2024-11-20T10:18:18Z</time>
      </trkpt>
      <trkpt lat="48.22228" lon="6.72115">
        <ele>451.5</ele>
        <time>2024-11-20T10:18:25Z</time>
      </trkpt>
      <trkpt lat="48.22234" lon="6.72102">
        <ele>452.3</ele>
        <time>2024-11-20T10:18:32Z</time>
      </trkpt>
      <trkpt lat="48.2224" lon="6.72091">
        <ele>453.1</ele>
        <time>2024-11-20T10:18:40Z</time>
      </trkpt>
      <trkpt lat="48.22244" lon="6.72078">
        <ele>453.9</ele>
        <time>2024-11-20T10:18:48Z</time>
      </trkpt>
      <trkpt lat="48.22251" lon="6.72068">
        <ele>454.8</ele>
        <time>2024-11-20T10:18:56Z</time>
      </trkpt>
      <trkpt lat="48.22256" lon="6.72056">
        <ele>455.6</ele>
        <time>2024-11-20T10:19:04Z</time>
      </trkpt>
      <trkpt lat="48.22263" lon="6.72047">
        <ele>456.4</ele>
        <time>2024-11-20T10:19:11Z</time>
      </trkpt>
      <trkpt lat="48.22271" lon="6.72039">
        <ele>457.3</ele>
        <time>2024-11-20T10:19:18Z</time>
      </trkpt>
      <trkpt lat="48.22278" lon="6.72029">
        <ele>458.1</ele>
        <time>2024-11-20T10:19:26Z</time>
      </trkpt>
      <trkpt lat="48.22285" lon="6.72018">
        <ele>458.9</ele>
        <time>2024-11-20T10:19:34Z</time>
      </trkpt>
      <trkpt lat="48.22292" lon="6.72009">
        <ele>459.7</ele>
        <time>2024-11-20T10:19:42Z</time>
      </trkpt>
      <trkpt lat="48.22299" lon="6.71999">
        <ele>460.4</ele>
        <time>2024-11-20T10:19:49Z</time>
      </trkpt>
      <trkpt lat="48.22304" lon="6.71988">
        <ele>461.3</ele>
        <time>2024-11-20T10:19:57Z</time>
      </trkpt>
      <trkpt lat="48.2231" lon="6.71976">
        <ele>462.2</ele>
        <time>2024-11-20T10:20:04Z</time>
      </trkpt>
      <trkpt lat="48.22318" lon="6.71969">
        <ele>463.1</ele>
        <time>2024-11-20T10:20:10Z</time>
      </trkpt>
      <trkpt lat="48.22326" lon="6.71959">
        <ele>464.1</ele>
        <time>2024-11-20T10:20:19Z</time>
      </trkpt>
      <trkpt lat="48.22334" lon="6.71951">
        <ele>465</ele>
        <time>2024-11-20T10:20:29Z</time>
      </trkpt>
      <trkpt lat="48.22343" lon="6.71946">
        <ele>465.9</ele>
        <time>2024-11-20T10:20:37Z</time>
      </trkpt>
      <trkpt lat="48.22353" lon="6.71944">
        <ele>466.7</ele>
        <time>2024-11-20T10:20:46Z</time>
      </trkpt>
      <trkpt lat="48.22362" lon="6.71938">
        <ele>467.4</ele>
        <time>2024-11-20T10:20:52Z</time>
      </trkpt>
      <trkpt lat="48.22371" lon="6.71933">
        <ele>468.2</ele>
        <time>2024-11-20T10:20:59Z</time>
      </trkpt>
      <trkpt lat="48.2238" lon="6.71926">
        <ele>469.1</ele>
        <time>2024-11-20T10:21:07Z</time>
      </trkpt>
      <trkpt lat="48.22388" lon="6.71919">
        <ele>469.9</ele>
        <time>2024-11-20T10:21:17Z</time>
      </trkpt>
      <trkpt lat="48.22393" lon="6.71917">
        <ele>470.7</ele>
        <time>2024-11-20T10:21:25Z</time>
      </trkpt>
      <trkpt lat="48.22393" lon="6.71917">
        <ele>470.7</ele>
        <time>2024-11-20T10:21:26Z</time>
      </trkpt>
      <trkpt lat="48.22393" lon="6.71916">
        <ele>470.8</ele>
        <time>2024-11-20T10:21:27Z</time>
      </trkpt>
      <trkpt lat="48.22393" lon="6.71916">
        <ele>470.9</ele>
        <time>2024-11-20T10:21:28Z</time>
      </trkpt>
      <trkpt lat="48.22393" lon="6.71917">
        <ele>471</ele>
        <time>2024-11-20T10:21:29Z</time>
      </trkpt>
      <trkpt lat="48.22394" lon="6.71918">
        <ele>471.1</ele>
        <time>2024-11-20T10:21:30Z</time>
      </trkpt>
      <trkpt lat="48.22403" lon="6.71913">
        <ele>473.5</ele>
        <time>2024-11-20T10:21:46Z</time>
      </trkpt>
      <trkpt lat="48.22405" lon="6.71927">
        <ele>475.7</ele>
        <time>2024-11-20T10:22:09Z</time>
      </trkpt>
      <trkpt lat="48.22402" lon="6.71941">
        <ele>478</ele>
        <time>2024-11-20T10:22:20Z</time>
      </trkpt>
      <trkpt lat="48.22412" lon="6.71944">
        <ele>480.6</ele>
        <time>2024-11-20T10:22:44Z</time>
      </trkpt>
      <trkpt lat="48.22421" lon="6.71941">
        <ele>483.1</ele>
        <time>2024-11-20T10:22:53Z</time>
      </trkpt>
      <trkpt lat="48.2243" lon="6.71939">
        <ele>485.3</ele>
        <time>2024-11-20T10:23:01Z</time>
      </trkpt>
      <trkpt lat="48.22439" lon="6.71934">
        <ele>487.5</ele>
        <time>2024-11-20T10:23:09Z</time>
      </trkpt>
      <trkpt lat="48.22439" lon="6.7194">
        <ele>488.5</ele>
        <time>2024-11-20T10:23:26Z</time>
      </trkpt>
      <trkpt lat="48.22439" lon="6.7194">
        <ele>488.5</ele>
        <time>2024-11-20T10:23:27Z</time>
      </trkpt>
      <trkpt lat="48.22439" lon="6.7194">
        <ele>488.5</ele>
        <time>2024-11-20T10:23:28Z</time>
      </trkpt>
      <trkpt lat="48.22438" lon="6.7194">
        <ele>488.7</ele>
        <time>2024-11-20T10:23:33Z</time>
      </trkpt>
      <trkpt lat="48.22438" lon="6.71941">
        <ele>488.9</ele>
        <time>2024-11-20T10:23:34Z</time>
      </trkpt>
      <trkpt lat="48.22435" lon="6.71954">
        <ele>491.2</ele>
        <time>2024-11-20T10:23:43Z</time>
      </trkpt>
      <trkpt lat="48.22431" lon="6.71968">
        <ele>493.4</ele>
        <time>2024-11-20T10:23:53Z</time>
      </trkpt>
      <trkpt lat="48.22426" lon="6.7198">
        <ele>495.5</ele>
        <time>2024-11-20T10:24:04Z</time>
      </trkpt>
      <trkpt lat="48.22419" lon="6.71992">
        <ele>497.5</ele>
        <time>2024-11-20T10:24:13Z</time>
      </trkpt>
      <trkpt lat="48.22413" lon="6.72004">
        <ele>499.4</ele>
        <time>2024-11-20T10:24:22Z</time>
      </trkpt>
      <trkpt lat="48.22407" lon="6.72014">
        <ele>501</ele>
        <time>2024-11-20T10:24:31Z</time>
      </trkpt>
      <trkpt lat="48.22399" lon="6.72023">
        <ele>502.7</ele>
        <time>2024-11-20T10:24:40Z</time>
      </trkpt>
      <trkpt lat="48.22391" lon="6.72031">
        <ele>504.4</ele>
        <time>2024-11-20T10:24:48Z</time>
      </trkpt>
      <trkpt lat="48.22385" lon="6.72041">
        <ele>506</ele>
        <time>2024-11-20T10:24:57Z</time>
      </trkpt>
      <trkpt lat="48.22379" lon="6.72052">
        <ele>507.6</ele>
        <time>2024-11-20T10:25:05Z</time>
      </trkpt>
      <trkpt lat="48.22374" lon="6.72064">
        <ele>509.4</ele>
        <time>2024-11-20T10:25:13Z</time>
      </trkpt>
      <trkpt lat="48.22366" lon="6.72073">
        <ele>511.3</ele>
        <time>2024-11-20T10:25:21Z</time>
      </trkpt>
      <trkpt lat="48.2236" lon="6.72085">
        <ele>513.5</ele>
        <time>2024-11-20T10:25:30Z</time>
      </trkpt>
      <trkpt lat="48.22357" lon="6.7209">
        <ele>514.5</ele>
        <time>2024-11-20T10:25:41Z</time>
      </trkpt>
      <trkpt lat="48.22357" lon="6.7209">
        <ele>514.5</ele>
        <time>2024-11-20T10:25:42Z</time>
      </trkpt>
      <trkpt lat="48.22357" lon="6.7209">
        <ele>514.6</ele>
        <time>2024-11-20T10:25:43Z</time>
      </trkpt>
      <trkpt lat="48.22356" lon="6.72092">
        <ele>514.8</ele>
        <time>2024-11-20T10:25:44Z</time>
      </trkpt>
      <trkpt lat="48.22351" lon="6.72103">
        <ele>516.7</ele>
        <time>2024-11-20T10:25:53Z</time>
      </trkpt>
      <trkpt lat="48.22344" lon="6.72113">
        <ele>518.7</ele>
        <time>2024-11-20T10:26:02Z</time>
      </trkpt>
      <trkpt lat="48.2234" lon="6.72127">
        <ele>520.6</ele>
        <time>2024-11-20T10:26:11Z</time>
      </trkpt>
      <trkpt lat="48.22336" lon="6.72139">
        <ele>522.3</ele>
        <time>2024-11-20T10:26:19Z</time>
      </trkpt>
      <trkpt lat="48.2233" lon="6.72151">
        <ele>523.7</ele>
        <time>2024-11-20T10:26:29Z</time>
      </trkpt>
      <trkpt lat="48.22324" lon="6.72162">
        <ele>524.9</ele>
        <time>2024-11-20T10:26:38Z</time>
      </trkpt>
      <trkpt lat="48.22316" lon="6.72169">
        <ele>504.1</ele>
        <time>2024-11-20T10:26:47Z</time>
      </trkpt>
      <trkpt lat="48.22313" lon="6.7217">
        <ele>501.9</ele>
        <time>2024-11-20T10:26:55Z</time>
      </trkpt>
      <trkpt lat="48.22313" lon="6.7217">
        <ele>501.7</ele>
        <time>2024-11-20T10:26:56Z</time>
      </trkpt>
      <trkpt lat="48.22313" lon="6.7217">
        <ele>501.5</ele>
        <time>2024-11-20T10:26:57Z</time>
      </trkpt>
      <trkpt lat="48.22314" lon="6.7217">
        <ele>501.4</ele>
        <time>2024-11-20T10:26:58Z</time>
      </trkpt>
      <trkpt lat="48.22314" lon="6.7217">
        <ele>501.3</ele>
        <time>2024-11-20T10:26:59Z</time>
      </trkpt>
      <trkpt lat="48.22313" lon="6.7217">
        <ele>500.9</ele>
        <time>2024-11-20T10:27:03Z</time>
      </trkpt>
      <trkpt lat="48.22313" lon="6.7217">
        <ele>500.9</ele>
        <time>2024-11-20T10:27:04Z</time>
      </trkpt>
      <trkpt lat="48.22313" lon="6.72169">
        <ele>500.8</ele>
        <time>2024-11-20T10:27:05Z</time>
      </trkpt>
      <trkpt lat="48.22314" lon="6.72169">
        <ele>500.5</ele>
        <time>2024-11-20T10:27:14Z</time>
      </trkpt>
      <trkpt lat="48.22314" lon="6.72169">
        <ele>500.5</ele>
        <time>2024-11-20T10:27:15Z</time>
      </trkpt>
      <trkpt lat="48.22314" lon="6.72169">
        <ele>500.4</ele>
        <time>2024-11-20T10:27:18Z</time>
      </trkpt>
      <trkpt lat="48.22314" lon="6.72169">
        <ele>500.4</ele>
        <time>2024-11-20T10:27:19Z</time>
      </trkpt>
      <trkpt lat="48.22314" lon="6.72169">
        <ele>500.4</ele>
        <time>2024-11-20T10:27:20Z</time>
      </trkpt>
      <trkpt lat="48.22314" lon="6.72169">
        <ele>500.4</ele>
        <time>2024-11-20T10:27:21Z</time>
      </trkpt>
      <trkpt lat="48.22314" lon="6.72169">
        <ele>500.3</ele>
        <time>2024-11-20T10:27:22Z</time>
      </trkpt>
      <trkpt lat="48.22314" lon="6.72169">
        <ele>500.1</ele>
        <time>2024-11-20T10:27:29Z</time>
      </trkpt>
      <trkpt lat="48.22314" lon="6.72169">
        <ele>500</ele>
        <time>2024-11-20T10:27:30Z</time>
      </trkpt>
      <trkpt lat="48.22314" lon="6.72169">
        <ele>499.7</ele>
        <time>2024-11-20T10:27:31Z</time>
      </trkpt>
      <trkpt lat="48.22314" lon="6.72169">
        <ele>499.6</ele>
        <time>2024-11-20T10:27:32Z</time>
      </trkpt>
      <trkpt lat="48.22314" lon="6.72169">
        <ele>499.6</ele>
        <time>2024-11-20T10:27:33Z</time>
      </trkpt>
      <trkpt lat="48.22314" lon="6.72169">
        <ele>499.6</ele>
        <time>2024-11-20T10:27:36Z</time>
      </trkpt>
      <trkpt lat="48.22314" lon="6.72169">
        <ele>499.6</ele>
        <time>2024-11-20T10:27:37Z</time>
      </trkpt>
      <trkpt lat="48.22313" lon="6.72168">
        <ele>498.4</ele>
        <time>2024-11-20T10:28:15Z</time>
      </trkpt>
      <trkpt lat="48.22312" lon="6.72168">
        <ele>498</ele>
        <time>2024-11-20T10:28:16Z</time>
      </trkpt>
      <trkpt lat="48.22312" lon="6.72168">
        <ele>497.8</ele>
        <time>2024-11-20T10:28:17Z</time>
      </trkpt>
      <trkpt lat="48.22312" lon="6.72168">
        <ele>497.5</ele>
        <time>2024-11-20T10:28:18Z</time>
      </trkpt>
      <trkpt lat="48.22311" lon="6.72167">
        <ele>497.1</ele>
        <time>2024-11-20T10:28:19Z</time>
      </trkpt>
      <trkpt lat="48.22311" lon="6.72167">
        <ele>497</ele>
        <time>2024-11-20T10:28:20Z</time>
      </trkpt>
      <trkpt lat="48.22311" lon="6.72167">
        <ele>497</ele>
        <time>2024-11-20T10:28:21Z</time>
      </trkpt>
      <trkpt lat="48.22311" lon="6.72167">
        <ele>497</ele>
        <time>2024-11-20T10:28:22Z</time>
      </trkpt>
      <trkpt lat="48.22311" lon="6.72167">
        <ele>497</ele>
        <time>2024-11-20T10:28:23Z</time>
      </trkpt>
      <trkpt lat="48.22311" lon="6.72167">
        <ele>497</ele>
        <time>2024-11-20T10:28:24Z</time>
      </trkpt>
      <trkpt lat="48.22311" lon="6.72167">
        <ele>497</ele>
        <time>2024-11-20T10:28:25Z</time>
      </trkpt>
      <trkpt lat="48.22311" lon="6.72167">
        <ele>497</ele>
        <time>2024-11-20T10:28:30Z</time>
      </trkpt>
      <trkpt lat="48.22311" lon="6.72167">
        <ele>497</ele>
        <time>2024-11-20T10:28:31Z</time>
      </trkpt>
      <trkpt lat="48.22311" lon="6.72167">
        <ele>497</ele>
        <time>2024-11-20T10:28:32Z</time>
      </trkpt>
      <trkpt lat="48.22311" lon="6.72167">
        <ele>497</ele>
        <time>2024-11-20T10:28:33Z</time>
      </trkpt>
      <trkpt lat="48.22311" lon="6.72167">
        <ele>497</ele>
        <time>2024-11-20T10:28:34Z</time>
      </trkpt>
      <trkpt lat="48.22311" lon="6.72167">
        <ele>497</ele>
        <time>2024-11-20T10:28:35Z</time>
      </trkpt>
      <trkpt lat="48.22311" lon="6.72167">
        <ele>497</ele>
        <time>2024-11-20T10:29:13Z</time>
      </trkpt>
      <trkpt lat="48.22311" lon="6.72167">
        <ele>497</ele>
        <time>2024-11-20T10:29:14Z</time>
      </trkpt>
      <trkpt lat="48.2232" lon="6.72167">
        <ele>514.6</ele>
        <time>2024-11-20T10:29:26Z</time>
      </trkpt>
      <trkpt lat="48.2233" lon="6.72166">
        <ele>525.5</ele>
        <time>2024-11-20T10:29:37Z</time>
      </trkpt>
      <trkpt lat="48.22339" lon="6.72164">
        <ele>527.4</ele>
        <time>2024-11-20T10:29:46Z</time>
      </trkpt>
      <trkpt lat="48.22348" lon="6.72159">
        <ele>529.3</ele>
        <time>2024-11-20T10:29:58Z</time>
      </trkpt>
      <trkpt lat="48.22358" lon="6.72158">
        <ele>531.1</ele>
        <time>2024-11-20T10:30:09Z</time>
      </trkpt>
      <trkpt lat="48.22367" lon="6.72158">
        <ele>532.6</ele>
        <time>2024-11-20T10:30:17Z</time>
      </trkpt>
      <trkpt lat="48.22376" lon="6.72155">
        <ele>533.6</ele>
        <time>2024-11-20T10:30:25Z</time>
      </trkpt>
      <trkpt lat="48.22385" lon="6.72153">
        <ele>534.3</ele>
        <time>2024-11-20T10:30:32Z</time>
      </trkpt>
      <trkpt lat="48.22394" lon="6.72152">
        <ele>535</ele>
        <time>2024-11-20T10:30:40Z</time>
      </trkpt>
      <trkpt lat="48.22404" lon="6.7215">
        <ele>535.9</ele>
        <time>2024-11-20T10:30:48Z</time>
      </trkpt>
      <trkpt lat="48.22414" lon="6.72149">
        <ele>537.1</ele>
        <time>2024-11-20T10:30:57Z</time>
      </trkpt>
      <trkpt lat="48.22424" lon="6.72147">
        <ele>538.3</ele>
        <time>2024-11-20T10:31:06Z</time>
      </trkpt>
      <trkpt lat="48.22434" lon="6.72145">
        <ele>539.5</ele>
        <time>2024-11-20T10:31:15Z</time>
      </trkpt>
      <trkpt lat="48.22444" lon="6.72143">
        <ele>540.9</ele>
        <time>2024-11-20T10:31:23Z</time>
      </trkpt>
      <trkpt lat="48.22453" lon="6.7214">
        <ele>542.1</ele>
        <time>2024-11-20T10:31:31Z</time>
      </trkpt>
      <trkpt lat="48.22463" lon="6.7214">
        <ele>543.3</ele>
        <time>2024-11-20T10:31:39Z</time>
      </trkpt>
      <trkpt lat="48.22472" lon="6.72139">
        <ele>544.4</ele>
        <time>2024-11-20T10:31:47Z</time>
      </trkpt>
      <trkpt lat="48.22482" lon="6.72138">
        <ele>545.4</ele>
        <time>2024-11-20T10:31:58Z</time>
      </trkpt>
      <trkpt lat="48.22491" lon="6.72137">
        <ele>546.4</ele>
        <time>2024-11-20T10:32:05Z</time>
      </trkpt>
      <trkpt lat="48.22501" lon="6.72135">
        <ele>547.3</ele>
        <time>2024-11-20T10:32:12Z</time>
      </trkpt>
      <trkpt lat="48.22509" lon="6.72128">
        <ele>547.7</ele>
        <time>2024-11-20T10:32:19Z</time>
      </trkpt>
      <trkpt lat="48.22516" lon="6.72119">
        <ele>547.8</ele>
        <time>2024-11-20T10:32:27Z</time>
      </trkpt>
      <trkpt lat="48.22525" lon="6.72113">
        <ele>547.6</ele>
        <time>2024-11-20T10:32:36Z</time>
      </trkpt>
      <trkpt lat="48.22534" lon="6.72105">
        <ele>547.2</ele>
        <time>2024-11-20T10:32:43Z</time>
      </trkpt>
      <trkpt lat="48.22541" lon="6.72096">
        <ele>546.8</ele>
        <time>2024-11-20T10:32:51Z</time>
      </trkpt>
      <trkpt lat="48.22549" lon="6.72088">
        <ele>546.3</ele>
        <time>2024-11-20T10:32:58Z</time>
      </trkpt>
      <trkpt lat="48.22557" lon="6.72079">
        <ele>545.9</ele>
        <time>2024-11-20T10:33:05Z</time>
      </trkpt>
      <trkpt lat="48.22563" lon="6.72069">
        <ele>545.6</ele>
        <time>2024-11-20T10:33:13Z</time>
      </trkpt>
      <trkpt lat="48.22571" lon="6.7206">
        <ele>545.5</ele>
        <time>2024-11-20T10:33:21Z</time>
      </trkpt>
      <trkpt lat="48.22578" lon="6.72051">
        <ele>545.6</ele>
        <time>2024-11-20T10:33:29Z</time>
      </trkpt>
      <trkpt lat="48.22587" lon="6.72043">
        <ele>545.7</ele>
        <time>2024-11-20T10:33:38Z</time>
      </trkpt>
      <trkpt lat="48.22595" lon="6.72035">
        <ele>545.8</ele>
        <time>2024-11-20T10:33:46Z</time>
      </trkpt>
      <trkpt lat="48.22602" lon="6.72027">
        <ele>545.8</ele>
        <time>2024-11-20T10:33:54Z</time>
      </trkpt>
      <trkpt lat="48.22609" lon="6.72019">
        <ele>545.7</ele>
        <time>2024-11-20T10:34:02Z</time>
      </trkpt>
      <trkpt lat="48.22616" lon="6.7201">
        <ele>545.5</ele>
        <time>2024-11-20T10:34:10Z</time>
      </trkpt>
      <trkpt lat="48.22624" lon="6.72001">
        <ele>545.3</ele>
        <time>2024-11-20T10:34:18Z</time>
      </trkpt>
      <trkpt lat="48.22633" lon="6.71994">
        <ele>544.9</ele>
        <time>2024-11-20T10:34:26Z</time>
      </trkpt>
      <trkpt lat="48.22642" lon="6.71988">
        <ele>544.5</ele>
        <time>2024-11-20T10:34:33Z</time>
      </trkpt>
      <trkpt lat="48.2265" lon="6.71982">
        <ele>544.2</ele>
        <time>2024-11-20T10:34:41Z</time>
      </trkpt>
      <trkpt lat="48.2266" lon="6.71978">
        <ele>543.8</ele>
        <time>2024-11-20T10:34:49Z</time>
      </trkpt>
      <trkpt lat="48.22668" lon="6.71971">
        <ele>543.4</ele>
        <time>2024-11-20T10:34:56Z</time>
      </trkpt>
      <trkpt lat="48.22676" lon="6.71962">
        <ele>543.1</ele>
        <time>2024-11-20T10:35:03Z</time>
      </trkpt>
      <trkpt lat="48.22684" lon="6.71953">
        <ele>542.8</ele>
        <time>2024-11-20T10:35:11Z</time>
      </trkpt>
      <trkpt lat="48.22692" lon="6.71945">
        <ele>542.6</ele>
        <time>2024-11-20T10:35:19Z</time>
      </trkpt>
      <trkpt lat="48.22699" lon="6.71936">
        <ele>542.4</ele>
        <time>2024-11-20T10:35:27Z</time>
      </trkpt>
      <trkpt lat="48.22707" lon="6.71929">
        <ele>542.3</ele>
        <time>2024-11-20T10:35:34Z</time>
      </trkpt>
      <trkpt lat="48.22714" lon="6.7192">
        <ele>542.2</ele>
        <time>2024-11-20T10:35:42Z</time>
      </trkpt>
      <trkpt lat="48.22721" lon="6.7191">
        <ele>542.3</ele>
        <time>2024-11-20T10:35:49Z</time>
      </trkpt>
      <trkpt lat="48.22729" lon="6.71902">
        <ele>542.4</ele>
        <time>2024-11-20T10:35:56Z</time>
      </trkpt>
      <trkpt lat="48.22738" lon="6.71894">
        <ele>542.5</ele>
        <time>2024-11-20T10:36:03Z</time>
      </trkpt>
      <trkpt lat="48.22745" lon="6.71885">
        <ele>542.7</ele>
        <time>2024-11-20T10:36:11Z</time>
      </trkpt>
      <trkpt lat="48.22753" lon="6.71877">
        <ele>542.8</ele>
        <time>2024-11-20T10:36:18Z</time>
      </trkpt>
      <trkpt lat="48.22759" lon="6.71866">
        <ele>542.8</ele>
        <time>2024-11-20T10:36:26Z</time>
      </trkpt>
      <trkpt lat="48.22767" lon="6.71859">
        <ele>542.8</ele>
        <time>2024-11-20T10:36:34Z</time>
      </trkpt>
      <trkpt lat="48.22773" lon="6.71848">
        <ele>542.6</ele>
        <time>2024-11-20T10:36:41Z</time>
      </trkpt>
      <trkpt lat="48.2278" lon="6.71839">
        <ele>542.4</ele>
        <time>2024-11-20T10:36:49Z</time>
      </trkpt>
      <trkpt lat="48.22787" lon="6.7183">
        <ele>542.2</ele>
        <time>2024-11-20T10:36:57Z</time>
      </trkpt>
      <trkpt lat="48.22793" lon="6.71819">
        <ele>541.9</ele>
        <time>2024-11-20T10:37:05Z</time>
      </trkpt>
      <trkpt lat="48.22794" lon="6.71815">
        <ele>541.8</ele>
        <time>2024-11-20T10:37:11Z</time>
      </trkpt>
      <trkpt lat="48.22794" lon="6.71815">
        <ele>541.8</ele>
        <time>2024-11-20T10:37:12Z</time>
      </trkpt>
      <trkpt lat="48.22795" lon="6.71815">
        <ele>541.8</ele>
        <time>2024-11-20T10:37:13Z</time>
      </trkpt>
      <trkpt lat="48.22796" lon="6.71812">
        <ele>541.7</ele>
        <time>2024-11-20T10:37:28Z</time>
      </trkpt>
      <trkpt lat="48.22796" lon="6.71811">
        <ele>541.7</ele>
        <time>2024-11-20T10:37:29Z</time>
      </trkpt>
      <trkpt lat="48.22803" lon="6.718">
        <ele>541.3</ele>
        <time>2024-11-20T10:37:38Z</time>
      </trkpt>
      <trkpt lat="48.22808" lon="6.71787">
        <ele>541</ele>
        <time>2024-11-20T10:37:46Z</time>
      </trkpt>
      <trkpt lat="48.22812" lon="6.71776">
        <ele>540.6</ele>
        <time>2024-11-20T10:37:54Z</time>
      </trkpt>
      <trkpt lat="48.22818" lon="6.71763">
        <ele>540.1</ele>
        <time>2024-11-20T10:38:02Z</time>
      </trkpt>
      <trkpt lat="48.2282" lon="6.71749">
        <ele>539.6</ele>
        <time>2024-11-20T10:38:10Z</time>
      </trkpt>
      <trkpt lat="48.22822" lon="6.71735">
        <ele>539</ele>
        <time>2024-11-20T10:38:17Z</time>
      </trkpt>
      <trkpt lat="48.22825" lon="6.71721">
        <ele>538.3</ele>
        <time>2024-11-20T10:38:25Z</time>
      </trkpt>
      <trkpt lat="48.22828" lon="6.71707">
        <ele>537.5</ele>
        <time>2024-11-20T10:38:35Z</time>
      </trkpt>
      <trkpt lat="48.2283" lon="6.71693">
        <ele>536.7</ele>
        <time>2024-11-20T10:38:43Z</time>
      </trkpt>
      <trkpt lat="48.22831" lon="6.71679">
        <ele>536</ele>
        <time>2024-11-20T10:38:51Z</time>
      </trkpt>
      <trkpt lat="48.22832" lon="6.71665">
        <ele>535.4</ele>
        <time>2024-11-20T10:38:58Z</time>
      </trkpt>
      <trkpt lat="48.22835" lon="6.71651">
        <ele>534.7</ele>
        <time>2024-11-20T10:39:07Z</time>
      </trkpt>
      <trkpt lat="48.22838" lon="6.71637">
        <ele>534</ele>
        <time>2024-11-20T10:39:15Z</time>
      </trkpt>
      <trkpt lat="48.2284" lon="6.71623">
        <ele>533.3</ele>
        <time>2024-11-20T10:39:23Z</time>
      </trkpt>
      <trkpt lat="48.22841" lon="6.71608">
        <ele>532.5</ele>
        <time>2024-11-20T10:39:32Z</time>
      </trkpt>
      <trkpt lat="48.22846" lon="6.71595">
        <ele>531.5</ele>
        <time>2024-11-20T10:39:40Z</time>
      </trkpt>
      <trkpt lat="48.2285" lon="6.71582">
        <ele>530.4</ele>
        <time>2024-11-20T10:39:47Z</time>
      </trkpt>
      <trkpt lat="48.22856" lon="6.71571">
        <ele>529.2</ele>
        <time>2024-11-20T10:39:56Z</time>
      </trkpt>
      <trkpt lat="48.22862" lon="6.71561">
        <ele>527.8</ele>
        <time>2024-11-20T10:40:04Z</time>
      </trkpt>
      <trkpt lat="48.22869" lon="6.71551">
        <ele>526.5</ele>
        <time>2024-11-20T10:40:13Z</time>
      </trkpt>
      <trkpt lat="48.2287" lon="6.71548">
        <ele>526.1</ele>
        <time>2024-11-20T10:40:18Z</time>
      </trkpt>
      <trkpt lat="48.2287" lon="6.71548">
        <ele>526.1</ele>
        <time>2024-11-20T10:40:19Z</time>
      </trkpt>
      <trkpt lat="48.2287" lon="6.71547">
        <ele>526.1</ele>
        <time>2024-11-20T10:40:31Z</time>
      </trkpt>
      <trkpt lat="48.2287" lon="6.71547">
        <ele>526.1</ele>
        <time>2024-11-20T10:40:32Z</time>
      </trkpt>
      <trkpt lat="48.2287" lon="6.71547">
        <ele>526</ele>
        <time>2024-11-20T10:40:33Z</time>
      </trkpt>
      <trkpt lat="48.22878" lon="6.71539">
        <ele>524.6</ele>
        <time>2024-11-20T10:40:42Z</time>
      </trkpt>
      <trkpt lat="48.22885" lon="6.71531">
        <ele>523.1</ele>
        <time>2024-11-20T10:40:51Z</time>
      </trkpt>
      <trkpt lat="48.22893" lon="6.71521">
        <ele>521.6</ele>
        <time>2024-11-20T10:41:01Z</time>
      </trkpt>
      <trkpt lat="48.229" lon="6.71511">
        <ele>520.1</ele>
        <time>2024-11-20T10:41:09Z</time>
      </trkpt>
      <trkpt lat="48.22904" lon="6.71498">
        <ele>518.7</ele>
        <time>2024-11-20T10:41:17Z</time>
      </trkpt>
      <trkpt lat="48.22903" lon="6.71484">
        <ele>517.3</ele>
        <time>2024-11-20T10:41:26Z</time>
      </trkpt>
      <trkpt lat="48.22899" lon="6.71471">
        <ele>516.1</ele>
        <time>2024-11-20T10:41:33Z</time>
      </trkpt>
      <trkpt lat="48.22904" lon="6.71459">
        <ele>514.9</ele>
        <time>2024-11-20T10:41:46Z</time>
      </trkpt>
      <trkpt lat="48.22913" lon="6.71463">
        <ele>513.4</ele>
        <time>2024-11-20T10:41:56Z</time>
      </trkpt>
      <trkpt lat="48.22913" lon="6.71462">
        <ele>513.3</ele>
        <time>2024-11-20T10:42:04Z</time>
      </trkpt>
      <trkpt lat="48.22913" lon="6.71462">
        <ele>513.3</ele>
        <time>2024-11-20T10:42:05Z</time>
      </trkpt>
      <trkpt lat="48.22912" lon="6.7146">
        <ele>513.2</ele>
        <time>2024-11-20T10:42:15Z</time>
      </trkpt>
      <trkpt lat="48.22912" lon="6.7146">
        <ele>513.2</ele>
        <time>2024-11-20T10:42:16Z</time>
      </trkpt>
      <trkpt lat="48.22912" lon="6.7146">
        <ele>513.2</ele>
        <time>2024-11-20T10:42:17Z</time>
      </trkpt>
      <trkpt lat="48.22912" lon="6.7146">
        <ele>513.2</ele>
        <time>2024-11-20T10:42:18Z</time>
      </trkpt>
      <trkpt lat="48.22912" lon="6.7146">
        <ele>513.2</ele>
        <time>2024-11-20T10:42:19Z</time>
      </trkpt>
      <trkpt lat="48.22913" lon="6.7146">
        <ele>513.1</ele>
        <time>2024-11-20T10:43:08Z</time>
      </trkpt>
      <trkpt lat="48.22913" lon="6.71461">
        <ele>513.1</ele>
        <time>2024-11-20T10:43:09Z</time>
      </trkpt>
      <trkpt lat="48.22914" lon="6.71461">
        <ele>513</ele>
        <time>2024-11-20T10:43:10Z</time>
      </trkpt>
      <trkpt lat="48.22924" lon="6.7146">
        <ele>512.4</ele>
        <time>2024-11-20T10:43:18Z</time>
      </trkpt>
      <trkpt lat="48.22933" lon="6.71457">
        <ele>511.9</ele>
        <time>2024-11-20T10:43:25Z</time>
      </trkpt>
      <trkpt lat="48.22943" lon="6.71454">
        <ele>511.5</ele>
        <time>2024-11-20T10:43:32Z</time>
      </trkpt>
      <trkpt lat="48.22952" lon="6.71451">
        <ele>511.2</ele>
        <time>2024-11-20T10:43:39Z</time>
      </trkpt>
      <trkpt lat="48.22961" lon="6.71447">
        <ele>511.2</ele>
        <time>2024-11-20T10:43:47Z</time>
      </trkpt>
      <trkpt lat="48.22971" lon="6.71445">
        <ele>511.6</ele>
        <time>2024-11-20T10:43:59Z</time>
      </trkpt>
      <trkpt lat="48.2298" lon="6.71442">
        <ele>512</ele>
        <time>2024-11-20T10:44:06Z</time>
      </trkpt>
      <trkpt lat="48.22988" lon="6.71439">
        <ele>512.5</ele>
        <time>2024-11-20T10:44:13Z</time>
      </trkpt>
      <trkpt lat="48.22998" lon="6.71435">
        <ele>513.1</ele>
        <time>2024-11-20T10:44:21Z</time>
      </trkpt>
      <trkpt lat="48.23008" lon="6.71433">
        <ele>513.6</ele>
        <time>2024-11-20T10:44:29Z</time>
      </trkpt>
      <trkpt lat="48.23017" lon="6.71432">
        <ele>514.2</ele>
        <time>2024-11-20T10:44:36Z</time>
      </trkpt>
      <trkpt lat="48.23027" lon="6.71429">
        <ele>514.7</ele>
        <time>2024-11-20T10:44:44Z</time>
      </trkpt>
      <trkpt lat="48.23036" lon="6.71423">
        <ele>515.1</ele>
        <time>2024-11-20T10:44:50Z</time>
      </trkpt>
      <trkpt lat="48.23045" lon="6.71422">
        <ele>515.5</ele>
        <time>2024-11-20T10:44:58Z</time>
      </trkpt>
      <trkpt lat="48.23055" lon="6.71424">
        <ele>515.8</ele>
        <time>2024-11-20T10:45:06Z</time>
      </trkpt>
      <trkpt lat="48.23065" lon="6.71425">
        <ele>516.1</ele>
        <time>2024-11-20T10:45:14Z</time>
      </trkpt>
      <trkpt lat="48.23075" lon="6.71427">
        <ele>516.5</ele>
        <time>2024-11-20T10:45:22Z</time>
      </trkpt>
      <trkpt lat="48.23085" lon="6.7143">
        <ele>516.7</ele>
        <time>2024-11-20T10:45:31Z</time>
      </trkpt>
      <trkpt lat="48.23094" lon="6.71436">
        <ele>516.9</ele>
        <time>2024-11-20T10:45:39Z</time>
      </trkpt>
      <trkpt lat="48.23104" lon="6.71442">
        <ele>517.1</ele>
        <time>2024-11-20T10:45:47Z</time>
      </trkpt>
      <trkpt lat="48.23113" lon="6.71446">
        <ele>517.2</ele>
        <time>2024-11-20T10:45:55Z</time>
      </trkpt>
      <trkpt lat="48.23121" lon="6.71452">
        <ele>517.2</ele>
        <time>2024-11-20T10:46:03Z</time>
      </trkpt>
      <trkpt lat="48.2313" lon="6.71456">
        <ele>517.1</ele>
        <time>2024-11-20T10:46:10Z</time>
      </trkpt>
      <trkpt lat="48.2314" lon="6.7146">
        <ele>517</ele>
        <time>2024-11-20T10:46:17Z</time>
      </trkpt>
      <trkpt lat="48.23143" lon="6.7146">
        <ele>516.9</ele>
        <time>2024-11-20T10:46:26Z</time>
      </trkpt>
      <trkpt lat="48.23143" lon="6.7146">
        <ele>516.9</ele>
        <time>2024-11-20T10:46:27Z</time>
      </trkpt>
      <trkpt lat="48.23143" lon="6.7146">
        <ele>516.9</ele>
        <time>2024-11-20T10:46:31Z</time>
      </trkpt>
      <trkpt lat="48.23143" lon="6.7146">
        <ele>517</ele>
        <time>2024-11-20T10:46:32Z</time>
      </trkpt>
      <trkpt lat="48.23143" lon="6.7146">
        <ele>517</ele>
        <time>2024-11-20T10:46:36Z</time>
      </trkpt>
      <trkpt lat="48.23143" lon="6.7146">
        <ele>517</ele>
        <time>2024-11-20T10:46:37Z</time>
      </trkpt>
      <trkpt lat="48.23143" lon="6.71462">
        <ele>517</ele>
        <time>2024-11-20T10:46:43Z</time>
      </trkpt>
      <trkpt lat="48.23143" lon="6.71462">
        <ele>517.1</ele>
        <time>2024-11-20T10:46:44Z</time>
      </trkpt>
      <trkpt lat="48.23143" lon="6.71463">
        <ele>516.7</ele>
        <time>2024-11-20T10:46:45Z</time>
      </trkpt>
      <trkpt lat="48.23142" lon="6.71478">
        <ele>515.5</ele>
        <time>2024-11-20T10:46:55Z</time>
      </trkpt>
      <trkpt lat="48.23141" lon="6.71491">
        <ele>514.8</ele>
        <time>2024-11-20T10:47:01Z</time>
      </trkpt>
      <trkpt lat="48.23138" lon="6.71505">
        <ele>514</ele>
        <time>2024-11-20T10:47:08Z</time>
      </trkpt>
      <trkpt lat="48.23134" lon="6.71518">
        <ele>512.4</ele>
        <time>2024-11-20T10:47:16Z</time>
      </trkpt>
      <trkpt lat="48.23132" lon="6.71531">
        <ele>511</ele>
        <time>2024-11-20T10:47:26Z</time>
      </trkpt>
      <trkpt lat="48.2313" lon="6.71547">
        <ele>509.5</ele>
        <time>2024-11-20T10:47:35Z</time>
      </trkpt>
      <trkpt lat="48.23123" lon="6.71558">
        <ele>508.2</ele>
        <time>2024-11-20T10:47:41Z</time>
      </trkpt>
      <trkpt lat="48.23116" lon="6.71569">
        <ele>508.1</ele>
        <time>2024-11-20T10:47:48Z</time>
      </trkpt>
      <trkpt lat="48.23109" lon="6.71579">
        <ele>507.5</ele>
        <time>2024-11-20T10:47:56Z</time>
      </trkpt>
      <trkpt lat="48.23101" lon="6.71584">
        <ele>508</ele>
        <time>2024-11-20T10:48:04Z</time>
      </trkpt>
      <trkpt lat="48.23091" lon="6.71582">
        <ele>509.3</ele>
        <time>2024-11-20T10:48:12Z</time>
      </trkpt>
      <trkpt lat="48.23081" lon="6.71582">
        <ele>510.2</ele>
        <time>2024-11-20T10:48:21Z</time>
      </trkpt>
      <trkpt lat="48.23071" lon="6.71582">
        <ele>510.1</ele>
        <time>2024-11-20T10:48:29Z</time>
      </trkpt>
      <trkpt lat="48.23062" lon="6.71582">
        <ele>510.2</ele>
        <time>2024-11-20T10:48:35Z</time>
      </trkpt>
      <trkpt lat="48.23052" lon="6.71585">
        <ele>510.1</ele>
        <time>2024-11-20T10:48:44Z</time>
      </trkpt>
      <trkpt lat="48.23043" lon="6.71587">
        <ele>509.8</ele>
        <time>2024-11-20T10:48:51Z</time>
      </trkpt>
      <trkpt lat="48.23032" lon="6.71585">
        <ele>509.7</ele>
        <time>2024-11-20T10:48:57Z</time>
      </trkpt>
      <trkpt lat="48.23023" lon="6.71587">
        <ele>509.6</ele>
        <time>2024-11-20T10:49:07Z</time>
      </trkpt>
      <trkpt lat="48.23014" lon="6.71583">
        <ele>509.7</ele>
        <time>2024-11-20T10:49:15Z</time>
      </trkpt>
      <trkpt lat="48.23005" lon="6.71581">
        <ele>509.7</ele>
        <time>2024-11-20T10:49:21Z</time>
      </trkpt>
      <trkpt lat="48.22996" lon="6.71585">
        <ele>509.9</ele>
        <time>2024-11-20T10:49:30Z</time>
      </trkpt>
      <trkpt lat="48.22986" lon="6.7159">
        <ele>510.6</ele>
        <time>2024-11-20T10:49:37Z</time>
      </trkpt>
      <trkpt lat="48.22976" lon="6.71596">
        <ele>511.9</ele>
        <time>2024-11-20T10:49:44Z</time>
      </trkpt>
      <trkpt lat="48.22967" lon="6.716">
        <ele>513.8</ele>
        <time>2024-11-20T10:49:49Z</time>
      </trkpt>
      <trkpt lat="48.22958" lon="6.71606">
        <ele>515.2</ele>
        <time>2024-11-20T10:49:55Z</time>
      </trkpt>
      <trkpt lat="48.22949" lon="6.71609">
        <ele>516.6</ele>
        <time>2024-11-20T10:50:01Z</time>
      </trkpt>
      <trkpt lat="48.22941" lon="6.71618">
        <ele>518.3</ele>
        <time>2024-11-20T10:50:08Z</time>
      </trkpt>
      <trkpt lat="48.22937" lon="6.7163">
        <ele>519.3</ele>
        <time>2024-11-20T10:50:15Z</time>
      </trkpt>
      <trkpt lat="48.22933" lon="6.71643">
        <ele>520.3</ele>
        <time>2024-11-20T10:50:23Z</time>
      </trkpt>
      <trkpt lat="48.22932" lon="6.71658">
        <ele>521.5</ele>
        <time>2024-11-20T10:50:31Z</time>
      </trkpt>
      <trkpt lat="48.22934" lon="6.71672">
        <ele>521.8</ele>
        <time>2024-11-20T10:50:37Z</time>
      </trkpt>
      <trkpt lat="48.22938" lon="6.71686">
        <ele>521.9</ele>
        <time>2024-11-20T10:50:43Z</time>
      </trkpt>
      <trkpt lat="48.22941" lon="6.71701">
        <ele>521.8</ele>
        <time>2024-11-20T10:50:49Z</time>
      </trkpt>
      <trkpt lat="48.22946" lon="6.71712">
        <ele>521.5</ele>
        <time>2024-11-20T10:50:55Z</time>
      </trkpt>
      <trkpt lat="48.2295" lon="6.71726">
        <ele>522.1</ele>
        <time>2024-11-20T10:51:02Z</time>
      </trkpt>
      <trkpt lat="48.22954" lon="6.71739">
        <ele>522.7</ele>
        <time>2024-11-20T10:51:10Z</time>
      </trkpt>
      <trkpt lat="48.22955" lon="6.71755">
        <ele>524.8</ele>
        <time>2024-11-20T10:51:19Z</time>
      </trkpt>
      <trkpt lat="48.22962" lon="6.71763">
        <ele>524.2</ele>
        <time>2024-11-20T10:51:25Z</time>
      </trkpt>
      <trkpt lat="48.22962" lon="6.71777">
        <ele>525.5</ele>
        <time>2024-11-20T10:51:32Z</time>
      </trkpt>
      <trkpt lat="48.22966" lon="6.71791">
        <ele>526</ele>
        <time>2024-11-20T10:51:42Z</time>
      </trkpt>
      <trkpt lat="48.22973" lon="6.718">
        <ele>525.2</ele>
        <time>2024-11-20T10:51:49Z</time>
      </trkpt>
      <trkpt lat="48.22981" lon="6.7181">
        <ele>523.7</ele>
        <time>2024-11-20T10:51:54Z</time>
      </trkpt>
      <trkpt lat="48.22988" lon="6.7182">
        <ele>523.1</ele>
        <time>2024-11-20T10:52:02Z</time>
      </trkpt>
      <trkpt lat="48.22995" lon="6.71829">
        <ele>521.4</ele>
        <time>2024-11-20T10:52:09Z</time>
      </trkpt>
      <trkpt lat="48.23004" lon="6.71838">
        <ele>519.3</ele>
        <time>2024-11-20T10:52:17Z</time>
      </trkpt>
      <trkpt lat="48.23011" lon="6.71847">
        <ele>517.2</ele>
        <time>2024-11-20T10:52:24Z</time>
      </trkpt>
      <trkpt lat="48.2302" lon="6.71853">
        <ele>514.9</ele>
        <time>2024-11-20T10:52:31Z</time>
      </trkpt>
      <trkpt lat="48.23027" lon="6.71861">
        <ele>513.4</ele>
        <time>2024-11-20T10:52:37Z</time>
      </trkpt>
      <trkpt lat="48.23035" lon="6.71869">
        <ele>510.6</ele>
        <time>2024-11-20T10:52:43Z</time>
      </trkpt>
      <trkpt lat="48.23043" lon="6.71877">
        <ele>508.1</ele>
        <time>2024-11-20T10:52:50Z</time>
      </trkpt>
      <trkpt lat="48.23052" lon="6.71884">
        <ele>505.4</ele>
        <time>2024-11-20T10:52:56Z</time>
      </trkpt>
      <trkpt lat="48.2306" lon="6.71893">
        <ele>502.5</ele>
        <time>2024-11-20T10:53:05Z</time>
      </trkpt>
      <trkpt lat="48.23068" lon="6.719">
        <ele>499.8</ele>
        <time>2024-11-20T10:53:12Z</time>
      </trkpt>
      <trkpt lat="48.23076" lon="6.71908">
        <ele>498.2</ele>
        <time>2024-11-20T10:53:19Z</time>
      </trkpt>
      <trkpt lat="48.23084" lon="6.71915">
        <ele>496</ele>
        <time>2024-11-20T10:53:25Z</time>
      </trkpt>
      <trkpt lat="48.23092" lon="6.71924">
        <ele>494</ele>
        <time>2024-11-20T10:53:32Z</time>
      </trkpt>
      <trkpt lat="48.231" lon="6.71932">
        <ele>492.6</ele>
        <time>2024-11-20T10:53:40Z</time>
      </trkpt>
      <trkpt lat="48.23108" lon="6.71939">
        <ele>492.6</ele>
        <time>2024-11-20T10:53:47Z</time>
      </trkpt>
      <trkpt lat="48.23115" lon="6.71947">
        <ele>492.6</ele>
        <time>2024-11-20T10:53:55Z</time>
      </trkpt>
      <trkpt lat="48.23122" lon="6.71956">
        <ele>492.6</ele>
        <time>2024-11-20T10:54:03Z</time>
      </trkpt>
      <trkpt lat="48.23129" lon="6.71964">
        <ele>492.7</ele>
        <time>2024-11-20T10:54:10Z</time>
      </trkpt>
      <trkpt lat="48.23137" lon="6.71974">
        <ele>492.8</ele>
        <time>2024-11-20T10:54:19Z</time>
      </trkpt>
      <trkpt lat="48.23143" lon="6.71984">
        <ele>492.9</ele>
        <time>2024-11-20T10:54:26Z</time>
      </trkpt>
      <trkpt lat="48.2315" lon="6.71995">
        <ele>493</ele>
        <time>2024-11-20T10:54:33Z</time>
      </trkpt>
      <trkpt lat="48.23154" lon="6.72009">
        <ele>493</ele>
        <time>2024-11-20T10:54:40Z</time>
      </trkpt>
      <trkpt lat="48.23154" lon="6.72023">
        <ele>493</ele>
        <time>2024-11-20T10:54:47Z</time>
      </trkpt>
      <trkpt lat="48.23148" lon="6.72034">
        <ele>492.9</ele>
        <time>2024-11-20T10:54:54Z</time>
      </trkpt>
      <trkpt lat="48.23142" lon="6.72044">
        <ele>492.8</ele>
        <time>2024-11-20T10:55:02Z</time>
      </trkpt>
      <trkpt lat="48.23136" lon="6.72057">
        <ele>492.6</ele>
        <time>2024-11-20T10:55:10Z</time>
      </trkpt>
      <trkpt lat="48.23131" lon="6.72068">
        <ele>492.4</ele>
        <time>2024-11-20T10:55:18Z</time>
      </trkpt>
      <trkpt lat="48.23126" lon="6.7208">
        <ele>492.3</ele>
        <time>2024-11-20T10:55:26Z</time>
      </trkpt>
      <trkpt lat="48.2312" lon="6.72091">
        <ele>492.3</ele>
        <time>2024-11-20T10:55:34Z</time>
      </trkpt>
      <trkpt lat="48.23121" lon="6.72105">
        <ele>492.2</ele>
        <time>2024-11-20T10:55:41Z</time>
      </trkpt>
      <trkpt lat="48.23121" lon="6.72119">
        <ele>492</ele>
        <time>2024-11-20T10:55:48Z</time>
      </trkpt>
      <trkpt lat="48.2312" lon="6.72133">
        <ele>491.6</ele>
        <time>2024-11-20T10:55:55Z</time>
      </trkpt>
      <trkpt lat="48.23122" lon="6.72146">
        <ele>491.3</ele>
        <time>2024-11-20T10:56:02Z</time>
      </trkpt>
      <trkpt lat="48.23124" lon="6.7216">
        <ele>490.8</ele>
        <time>2024-11-20T10:56:09Z</time>
      </trkpt>
      <trkpt lat="48.23115" lon="6.72159">
        <ele>491.4</ele>
        <time>2024-11-20T10:56:29Z</time>
      </trkpt>
      <trkpt lat="48.23105" lon="6.72158">
        <ele>492.3</ele>
        <time>2024-11-20T10:56:37Z</time>
      </trkpt>
      <trkpt lat="48.23094" lon="6.72161">
        <ele>493.3</ele>
        <time>2024-11-20T10:56:49Z</time>
      </trkpt>
      <trkpt lat="48.23085" lon="6.72164">
        <ele>493.9</ele>
        <time>2024-11-20T10:56:56Z</time>
      </trkpt>
      <trkpt lat="48.23075" lon="6.72169">
        <ele>494.9</ele>
        <time>2024-11-20T10:57:04Z</time>
      </trkpt>
      <trkpt lat="48.23066" lon="6.72172">
        <ele>495.6</ele>
        <time>2024-11-20T10:57:12Z</time>
      </trkpt>
      <trkpt lat="48.2306" lon="6.72171">
        <ele>496.5</ele>
        <time>2024-11-20T10:57:18Z</time>
      </trkpt>
      <trkpt lat="48.2306" lon="6.72171">
        <ele>496.4</ele>
        <time>2024-11-20T10:57:19Z</time>
      </trkpt>
      <trkpt lat="48.23059" lon="6.72172">
        <ele>496.9</ele>
        <time>2024-11-20T10:57:25Z</time>
      </trkpt>
      <trkpt lat="48.23058" lon="6.72173">
        <ele>496.8</ele>
        <time>2024-11-20T10:57:26Z</time>
      </trkpt>
      <trkpt lat="48.23057" lon="6.72174">
        <ele>496.7</ele>
        <time>2024-11-20T10:57:27Z</time>
      </trkpt>
      <trkpt lat="48.23047" lon="6.72178">
        <ele>498.4</ele>
        <time>2024-11-20T10:57:38Z</time>
      </trkpt>
      <trkpt lat="48.23037" lon="6.72178">
        <ele>500</ele>
        <time>2024-11-20T10:57:48Z</time>
      </trkpt>
      <trkpt lat="48.23027" lon="6.7218">
        <ele>501.7</ele>
        <time>2024-11-20T10:57:58Z</time>
      </trkpt>
      <trkpt lat="48.23018" lon="6.72182">
        <ele>503.2</ele>
        <time>2024-11-20T10:58:08Z</time>
      </trkpt>
      <trkpt lat="48.23009" lon="6.72187">
        <ele>503.9</ele>
        <time>2024-11-20T10:58:15Z</time>
      </trkpt>
      <trkpt lat="48.23001" lon="6.72195">
        <ele>503.3</ele>
        <time>2024-11-20T10:58:22Z</time>
      </trkpt>
      <trkpt lat="48.22994" lon="6.72204">
        <ele>502.1</ele>
        <time>2024-11-20T10:58:29Z</time>
      </trkpt>
      <trkpt lat="48.22985" lon="6.72213">
        <ele>500.9</ele>
        <time>2024-11-20T10:58:36Z</time>
      </trkpt>
      <trkpt lat="48.22976" lon="6.72218">
        <ele>499.6</ele>
        <time>2024-11-20T10:58:46Z</time>
      </trkpt>
      <trkpt lat="48.22967" lon="6.72215">
        <ele>500.9</ele>
        <time>2024-11-20T10:58:54Z</time>
      </trkpt>
      <trkpt lat="48.22959" lon="6.72209">
        <ele>502.7</ele>
        <time>2024-11-20T10:59:02Z</time>
      </trkpt>
      <trkpt lat="48.22953" lon="6.72198">
        <ele>504</ele>
        <time>2024-11-20T10:59:11Z</time>
      </trkpt>
      <trkpt lat="48.2295" lon="6.72185">
        <ele>506</ele>
        <time>2024-11-20T10:59:19Z</time>
      </trkpt>
      <trkpt lat="48.22948" lon="6.72171">
        <ele>508.1</ele>
        <time>2024-11-20T10:59:29Z</time>
      </trkpt>
      <trkpt lat="48.22947" lon="6.72168">
        <ele>508.6</ele>
        <time>2024-11-20T10:59:31Z</time>
      </trkpt>
      <trkpt lat="48.22947" lon="6.72167">
        <ele>508.6</ele>
        <time>2024-11-20T10:59:32Z</time>
      </trkpt>
      <trkpt lat="48.22947" lon="6.72166">
        <ele>508.5</ele>
        <time>2024-11-20T10:59:33Z</time>
      </trkpt>
      <trkpt lat="48.22946" lon="6.72164">
        <ele>509.2</ele>
        <time>2024-11-20T11:00:30Z</time>
      </trkpt>
      <trkpt lat="48.22946" lon="6.72164">
        <ele>509.1</ele>
        <time>2024-11-20T11:00:31Z</time>
      </trkpt>
      <trkpt lat="48.22946" lon="6.72163">
        <ele>509.1</ele>
        <time>2024-11-20T11:00:32Z</time>
      </trkpt>
      <trkpt lat="48.22943" lon="6.72148">
        <ele>511.8</ele>
        <time>2024-11-20T11:00:43Z</time>
      </trkpt>
      <trkpt lat="48.22941" lon="6.72135">
        <ele>513.8</ele>
        <time>2024-11-20T11:00:53Z</time>
      </trkpt>
      <trkpt lat="48.2294" lon="6.72132">
        <ele>513.7</ele>
        <time>2024-11-20T11:00:55Z</time>
      </trkpt>
      <trkpt lat="48.2294" lon="6.72132">
        <ele>513.7</ele>
        <time>2024-11-20T11:00:56Z</time>
      </trkpt>
      <trkpt lat="48.2294" lon="6.72132">
        <ele>513.6</ele>
        <time>2024-11-20T11:00:57Z</time>
      </trkpt>
      <trkpt lat="48.2294" lon="6.72129">
        <ele>514.3</ele>
        <time>2024-11-20T11:01:20Z</time>
      </trkpt>
      <trkpt lat="48.2294" lon="6.72128">
        <ele>514.2</ele>
        <time>2024-11-20T11:01:21Z</time>
      </trkpt>
      <trkpt lat="48.2294" lon="6.72126">
        <ele>514.8</ele>
        <time>2024-11-20T11:01:22Z</time>
      </trkpt>
      <trkpt lat="48.22938" lon="6.72112">
        <ele>516.4</ele>
        <time>2024-11-20T11:01:30Z</time>
      </trkpt>
      <trkpt lat="48.22938" lon="6.72097">
        <ele>519.4</ele>
        <time>2024-11-20T11:01:39Z</time>
      </trkpt>
      <trkpt lat="48.22935" lon="6.72083">
        <ele>521.6</ele>
        <time>2024-11-20T11:01:45Z</time>
      </trkpt>
      <trkpt lat="48.2293" lon="6.72072">
        <ele>522.5</ele>
        <time>2024-11-20T11:01:54Z</time>
      </trkpt>
      <trkpt lat="48.22928" lon="6.72057">
        <ele>525.2</ele>
        <time>2024-11-20T11:02:03Z</time>
      </trkpt>
      <trkpt lat="48.22924" lon="6.72045">
        <ele>526.9</ele>
        <time>2024-11-20T11:02:14Z</time>
      </trkpt>
      <trkpt lat="48.2292" lon="6.72033">
        <ele>528.6</ele>
        <time>2024-11-20T11:02:24Z</time>
      </trkpt>
      <trkpt lat="48.22915" lon="6.72019">
        <ele>529.7</ele>
        <time>2024-11-20T11:02:34Z</time>
      </trkpt>
      <trkpt lat="48.22912" lon="6.72006">
        <ele>531.1</ele>
        <time>2024-11-20T11:02:45Z</time>
      </trkpt>
      <trkpt lat="48.22912" lon="6.71992">
        <ele>532.8</ele>
        <time>2024-11-20T11:02:54Z</time>
      </trkpt>
      <trkpt lat="48.2291" lon="6.71978">
        <ele>534.3</ele>
        <time>2024-11-20T11:03:06Z</time>
      </trkpt>
      <trkpt lat="48.22909" lon="6.71965">
        <ele>536</ele>
        <time>2024-11-20T11:03:14Z</time>
      </trkpt>
      <trkpt lat="48.22908" lon="6.7195">
        <ele>538.1</ele>
        <time>2024-11-20T11:03:21Z</time>
      </trkpt>
      <trkpt lat="48.22901" lon="6.71938">
        <ele>539.2</ele>
        <time>2024-11-20T11:03:28Z</time>
      </trkpt>
      <trkpt lat="48.22894" lon="6.71928">
        <ele>539.8</ele>
        <time>2024-11-20T11:03:35Z</time>
      </trkpt>
      <trkpt lat="48.22885" lon="6.71923">
        <ele>540.1</ele>
        <time>2024-11-20T11:03:43Z</time>
      </trkpt>
      <trkpt lat="48.22876" lon="6.71917">
        <ele>540.2</ele>
        <time>2024-11-20T11:03:50Z</time>
      </trkpt>
      <trkpt lat="48.22867" lon="6.71913">
        <ele>540.7</ele>
        <time>2024-11-20T11:03:57Z</time>
      </trkpt>
      <trkpt lat="48.22858" lon="6.71907">
        <ele>540.8</ele>
        <time>2024-11-20T11:04:06Z</time>
      </trkpt>
      <trkpt lat="48.2285" lon="6.71897">
        <ele>541.4</ele>
        <time>2024-11-20T11:04:12Z</time>
      </trkpt>
      <trkpt lat="48.22842" lon="6.7189">
        <ele>541.9</ele>
        <time>2024-11-20T11:04:18Z</time>
      </trkpt>
      <trkpt lat="48.22833" lon="6.71886">
        <ele>542.1</ele>
        <time>2024-11-20T11:04:25Z</time>
      </trkpt>
      <trkpt lat="48.22827" lon="6.71876">
        <ele>543</ele>
        <time>2024-11-20T11:04:37Z</time>
      </trkpt>
      <trkpt lat="48.22821" lon="6.71869">
        <ele>543.8</ele>
        <time>2024-11-20T11:04:45Z</time>
      </trkpt>
      <trkpt lat="48.22821" lon="6.71869">
        <ele>543.7</ele>
        <time>2024-11-20T11:04:46Z</time>
      </trkpt>
      <trkpt lat="48.22821" lon="6.71869">
        <ele>543.6</ele>
        <time>2024-11-20T11:04:47Z</time>
      </trkpt>
      <trkpt lat="48.22821" lon="6.71869">
        <ele>543.6</ele>
        <time>2024-11-20T11:04:48Z</time>
      </trkpt>
      <trkpt lat="48.22821" lon="6.71869">
        <ele>543.5</ele>
        <time>2024-11-20T11:04:49Z</time>
      </trkpt>
      <trkpt lat="48.22821" lon="6.71869">
        <ele>543.5</ele>
        <time>2024-11-20T11:04:50Z</time>
      </trkpt>
      <trkpt lat="48.22821" lon="6.71869">
        <ele>543.4</ele>
        <time>2024-11-20T11:04:51Z</time>
      </trkpt>
      <trkpt lat="48.22821" lon="6.71868">
        <ele>543.3</ele>
        <time>2024-11-20T11:04:52Z</time>
      </trkpt>
      <trkpt lat="48.22821" lon="6.71868">
        <ele>543.3</ele>
        <time>2024-11-20T11:04:53Z</time>
      </trkpt>
      <trkpt lat="48.22821" lon="6.71867">
        <ele>543.2</ele>
        <time>2024-11-20T11:04:54Z</time>
      </trkpt>
      <trkpt lat="48.22821" lon="6.71867">
        <ele>543.1</ele>
        <time>2024-11-20T11:04:55Z</time>
      </trkpt>
      <trkpt lat="48.22821" lon="6.71867">
        <ele>543.1</ele>
        <time>2024-11-20T11:04:56Z</time>
      </trkpt>
      <trkpt lat="48.22821" lon="6.71868">
        <ele>543</ele>
        <time>2024-11-20T11:04:57Z</time>
      </trkpt>
      <trkpt lat="48.2282" lon="6.71868">
        <ele>543</ele>
        <time>2024-11-20T11:04:58Z</time>
      </trkpt>
      <trkpt lat="48.22819" lon="6.71868">
        <ele>542.9</ele>
        <time>2024-11-20T11:04:59Z</time>
      </trkpt>
      <trkpt lat="48.22819" lon="6.71867">
        <ele>542.8</ele>
        <time>2024-11-20T11:05:00Z</time>
      </trkpt>
      <trkpt lat="48.22819" lon="6.71867">
        <ele>542.8</ele>
        <time>2024-11-20T11:05:02Z</time>
      </trkpt>
      <trkpt lat="48.22815" lon="6.71871">
        <ele>542.3</ele>
        <time>2024-11-20T11:05:14Z</time>
      </trkpt>
      <trkpt lat="48.22815" lon="6.71871">
        <ele>542.3</ele>
        <time>2024-11-20T11:05:15Z</time>
      </trkpt>
      <trkpt lat="48.22815" lon="6.71871">
        <ele>542.2</ele>
        <time>2024-11-20T11:05:18Z</time>
      </trkpt>
      <trkpt lat="48.22815" lon="6.71871">
        <ele>542.1</ele>
        <time>2024-11-20T11:05:19Z</time>
      </trkpt>
      <trkpt lat="48.22814" lon="6.71869">
        <ele>542.5</ele>
        <time>2024-11-20T11:05:30Z</time>
      </trkpt>
      <trkpt lat="48.22813" lon="6.71868">
        <ele>542.4</ele>
        <time>2024-11-20T11:05:31Z</time>
      </trkpt>
      <trkpt lat="48.22813" lon="6.71868">
        <ele>542.4</ele>
        <time>2024-11-20T11:05:32Z</time>
      </trkpt>
      <trkpt lat="48.22805" lon="6.71859">
        <ele>543</ele>
        <time>2024-11-20T11:05:45Z</time>
      </trkpt>
      <trkpt lat="48.228" lon="6.71848">
        <ele>543.2</ele>
        <time>2024-11-20T11:05:56Z</time>
      </trkpt>
      <trkpt lat="48.22799" lon="6.71848">
        <ele>543.2</ele>
        <time>2024-11-20T11:05:57Z</time>
      </trkpt>
      <trkpt lat="48.22799" lon="6.71849">
        <ele>543</ele>
        <time>2024-11-20T11:05:58Z</time>
      </trkpt>
      <trkpt lat="48.22798" lon="6.71848">
        <ele>542.9</ele>
        <time>2024-11-20T11:05:59Z</time>
      </trkpt>
      <trkpt lat="48.22788" lon="6.71845">
        <ele>542.6</ele>
        <time>2024-11-20T11:06:09Z</time>
      </trkpt>
      <trkpt lat="48.22784" lon="6.71832">
        <ele>542.1</ele>
        <time>2024-11-20T11:06:24Z</time>
      </trkpt>
      <trkpt lat="48.22789" lon="6.7182">
        <ele>541.9</ele>
        <time>2024-11-20T11:06:32Z</time>
      </trkpt>
      <trkpt lat="48.22797" lon="6.71811">
        <ele>541.5</ele>
        <time>2024-11-20T11:06:58Z</time>
      </trkpt>
      <trkpt lat="48.22801" lon="6.71798">
        <ele>541.2</ele>
        <time>2024-11-20T11:07:04Z</time>
      </trkpt>
      <trkpt lat="48.22807" lon="6.71786">
        <ele>540.8</ele>
        <time>2024-11-20T11:07:12Z</time>
      </trkpt>
      <trkpt lat="48.22812" lon="6.71773">
        <ele>540.4</ele>
        <time>2024-11-20T11:07:19Z</time>
      </trkpt>
      <trkpt lat="48.22814" lon="6.71759">
        <ele>540</ele>
        <time>2024-11-20T11:07:27Z</time>
      </trkpt>
      <trkpt lat="48.22816" lon="6.7176">
        <ele>539.8</ele>
        <time>2024-11-20T11:07:31Z</time>
      </trkpt>
      <trkpt lat="48.22816" lon="6.71759">
        <ele>539.8</ele>
        <time>2024-11-20T11:07:32Z</time>
      </trkpt>
      <trkpt lat="48.22816" lon="6.71759">
        <ele>539.8</ele>
        <time>2024-11-20T11:07:33Z</time>
      </trkpt>
      <trkpt lat="48.22817" lon="6.71759">
        <ele>539.8</ele>
        <time>2024-11-20T11:07:36Z</time>
      </trkpt>
      <trkpt lat="48.22816" lon="6.71756">
        <ele>539.7</ele>
        <time>2024-11-20T11:07:37Z</time>
      </trkpt>
      <trkpt lat="48.22818" lon="6.71742">
        <ele>539.1</ele>
        <time>2024-11-20T11:07:45Z</time>
      </trkpt>
      <trkpt lat="48.2282" lon="6.71727">
        <ele>538.4</ele>
        <time>2024-11-20T11:07:52Z</time>
      </trkpt>
      <trkpt lat="48.22821" lon="6.71712">
        <ele>537.6</ele>
        <time>2024-11-20T11:08:00Z</time>
      </trkpt>
      <trkpt lat="48.22825" lon="6.71699">
        <ele>536.9</ele>
        <time>2024-11-20T11:08:09Z</time>
      </trkpt>
      <trkpt lat="48.22828" lon="6.71684">
        <ele>536.2</ele>
        <time>2024-11-20T11:08:18Z</time>
      </trkpt>
      <trkpt lat="48.2283" lon="6.71671">
        <ele>535.6</ele>
        <time>2024-11-20T11:08:27Z</time>
      </trkpt>
      <trkpt lat="48.22832" lon="6.71656">
        <ele>534.9</ele>
        <time>2024-11-20T11:08:37Z</time>
      </trkpt>
      <trkpt lat="48.22836" lon="6.71643">
        <ele>534.2</ele>
        <time>2024-11-20T11:08:46Z</time>
      </trkpt>
      <trkpt lat="48.22838" lon="6.71629">
        <ele>533.6</ele>
        <time>2024-11-20T11:08:51Z</time>
      </trkpt>
      <trkpt lat="48.22844" lon="6.71618">
        <ele>532.8</ele>
        <time>2024-11-20T11:08:58Z</time>
      </trkpt>
      <trkpt lat="48.22845" lon="6.71603">
        <ele>531.9</ele>
        <time>2024-11-20T11:09:05Z</time>
      </trkpt>
      <trkpt lat="48.22849" lon="6.7159">
        <ele>530.9</ele>
        <time>2024-11-20T11:09:13Z</time>
      </trkpt>
      <trkpt lat="48.22854" lon="6.71578">
        <ele>529.8</ele>
        <time>2024-11-20T11:09:21Z</time>
      </trkpt>
      <trkpt lat="48.22859" lon="6.71566">
        <ele>528.6</ele>
        <time>2024-11-20T11:09:27Z</time>
      </trkpt>
      <trkpt lat="48.22864" lon="6.71554">
        <ele>527.3</ele>
        <time>2024-11-20T11:09:36Z</time>
      </trkpt>
      <trkpt lat="48.22872" lon="6.71545">
        <ele>525.8</ele>
        <time>2024-11-20T11:09:45Z</time>
      </trkpt>
      <trkpt lat="48.2288" lon="6.71536">
        <ele>524.4</ele>
        <time>2024-11-20T11:09:54Z</time>
      </trkpt>
      <trkpt lat="48.22888" lon="6.71526">
        <ele>522.9</ele>
        <time>2024-11-20T11:10:02Z</time>
      </trkpt>
      <trkpt lat="48.22896" lon="6.71519">
        <ele>521.5</ele>
        <time>2024-11-20T11:10:09Z</time>
      </trkpt>
      <trkpt lat="48.22901" lon="6.71508">
        <ele>520.1</ele>
        <time>2024-11-20T11:10:15Z</time>
      </trkpt>
      <trkpt lat="48.22907" lon="6.71497">
        <ele>518.8</ele>
        <time>2024-11-20T11:10:22Z</time>
      </trkpt>
      <trkpt lat="48.22914" lon="6.71487">
        <ele>517.5</ele>
        <time>2024-11-20T11:10:29Z</time>
      </trkpt>
      <trkpt lat="48.2292" lon="6.71476">
        <ele>516.3</ele>
        <time>2024-11-20T11:10:36Z</time>
      </trkpt>
      <trkpt lat="48.22922" lon="6.71465">
        <ele>515.4</ele>
        <time>2024-11-20T11:10:49Z</time>
      </trkpt>
      <trkpt lat="48.22922" lon="6.71465">
        <ele>515.4</ele>
        <time>2024-11-20T11:10:50Z</time>
      </trkpt>
      <trkpt lat="48.22921" lon="6.71464">
        <ele>515.2</ele>
        <time>2024-11-20T11:10:55Z</time>
      </trkpt>
      <trkpt lat="48.2292" lon="6.71463">
        <ele>514.6</ele>
        <time>2024-11-20T11:10:56Z</time>
      </trkpt>
      <trkpt lat="48.22918" lon="6.71463">
        <ele>514.5</ele>
        <time>2024-11-20T11:10:57Z</time>
      </trkpt>
      <trkpt lat="48.22909" lon="6.71463">
        <ele>513.8</ele>
        <time>2024-11-20T11:11:03Z</time>
      </trkpt>
      <trkpt lat="48.229" lon="6.71462">
        <ele>513.2</ele>
        <time>2024-11-20T11:11:09Z</time>
      </trkpt>
      <trkpt lat="48.2289" lon="6.7146">
        <ele>512.6</ele>
        <time>2024-11-20T11:11:16Z</time>
      </trkpt>
      <trkpt lat="48.22881" lon="6.71454">
        <ele>512.1</ele>
        <time>2024-11-20T11:11:23Z</time>
      </trkpt>
      <trkpt lat="48.22874" lon="6.71446">
        <ele>511.6</ele>
        <time>2024-11-20T11:11:30Z</time>
      </trkpt>
      <trkpt lat="48.22866" lon="6.71438">
        <ele>511</ele>
        <time>2024-11-20T11:11:38Z</time>
      </trkpt>
      <trkpt lat="48.22858" lon="6.71431">
        <ele>510.5</ele>
        <time>2024-11-20T11:11:46Z</time>
      </trkpt>
      <trkpt lat="48.22848" lon="6.71425">
        <ele>509.9</ele>
        <time>2024-11-20T11:11:54Z</time>
      </trkpt>
      <trkpt lat="48.22839" lon="6.71419">
        <ele>509.3</ele>
        <time>2024-11-20T11:12:01Z</time>
      </trkpt>
      <trkpt lat="48.22829" lon="6.71414">
        <ele>508.8</ele>
        <time>2024-11-20T11:12:08Z</time>
      </trkpt>
      <trkpt lat="48.2282" lon="6.71409">
        <ele>508.2</ele>
        <time>2024-11-20T11:12:15Z</time>
      </trkpt>
      <trkpt lat="48.22811" lon="6.71405">
        <ele>507.6</ele>
        <time>2024-11-20T11:12:22Z</time>
      </trkpt>
      <trkpt lat="48.22801" lon="6.71403">
        <ele>507</ele>
        <time>2024-11-20T11:12:30Z</time>
      </trkpt>
      <trkpt lat="48.22791" lon="6.71406">
        <ele>506.4</ele>
        <time>2024-11-20T11:12:37Z</time>
      </trkpt>
      <trkpt lat="48.22783" lon="6.71409">
        <ele>505.9</ele>
        <time>2024-11-20T11:12:44Z</time>
      </trkpt>
      <trkpt lat="48.22774" lon="6.71413">
        <ele>505.3</ele>
        <time>2024-11-20T11:12:51Z</time>
      </trkpt>
      <trkpt lat="48.22765" lon="6.71418">
        <ele>504.7</ele>
        <time>2024-11-20T11:12:58Z</time>
      </trkpt>
      <trkpt lat="48.22756" lon="6.71422">
        <ele>504.1</ele>
        <time>2024-11-20T11:13:05Z</time>
      </trkpt>
      <trkpt lat="48.22747" lon="6.71426">
        <ele>503.6</ele>
        <time>2024-11-20T11:13:12Z</time>
      </trkpt>
      <trkpt lat="48.22738" lon="6.71433">
        <ele>503.1</ele>
        <time>2024-11-20T11:13:19Z</time>
      </trkpt>
      <trkpt lat="48.2273" lon="6.71439">
        <ele>502.6</ele>
        <time>2024-11-20T11:13:26Z</time>
      </trkpt>
      <trkpt lat="48.22721" lon="6.71446">
        <ele>502</ele>
        <time>2024-11-20T11:13:34Z</time>
      </trkpt>
      <trkpt lat="48.22712" lon="6.71453">
        <ele>501.5</ele>
        <time>2024-11-20T11:13:42Z</time>
      </trkpt>
      <trkpt lat="48.22704" lon="6.7146">
        <ele>501</ele>
        <time>2024-11-20T11:13:49Z</time>
      </trkpt>
      <trkpt lat="48.22696" lon="6.71469">
        <ele>500.4</ele>
        <time>2024-11-20T11:13:57Z</time>
      </trkpt>
      <trkpt lat="48.22688" lon="6.71476">
        <ele>499.9</ele>
        <time>2024-11-20T11:14:04Z</time>
      </trkpt>
      <trkpt lat="48.22681" lon="6.71487">
        <ele>499.4</ele>
        <time>2024-11-20T11:14:12Z</time>
      </trkpt>
      <trkpt lat="48.22675" lon="6.71498">
        <ele>498.8</ele>
        <time>2024-11-20T11:14:19Z</time>
      </trkpt>
      <trkpt lat="48.22669" lon="6.7151">
        <ele>498.2</ele>
        <time>2024-11-20T11:14:27Z</time>
      </trkpt>
      <trkpt lat="48.22664" lon="6.71523">
        <ele>497.6</ele>
        <time>2024-11-20T11:14:35Z</time>
      </trkpt>
      <trkpt lat="48.22659" lon="6.71535">
        <ele>497</ele>
        <time>2024-11-20T11:14:43Z</time>
      </trkpt>
      <trkpt lat="48.22654" lon="6.71548">
        <ele>496.3</ele>
        <time>2024-11-20T11:14:51Z</time>
      </trkpt>
      <trkpt lat="48.22651" lon="6.71561">
        <ele>495.7</ele>
        <time>2024-11-20T11:14:58Z</time>
      </trkpt>
      <trkpt lat="48.22648" lon="6.71574">
        <ele>495.1</ele>
        <time>2024-11-20T11:15:05Z</time>
      </trkpt>
      <trkpt lat="48.22646" lon="6.71587">
        <ele>494.6</ele>
        <time>2024-11-20T11:15:13Z</time>
      </trkpt>
      <trkpt lat="48.22645" lon="6.71601">
        <ele>494</ele>
        <time>2024-11-20T11:15:20Z</time>
      </trkpt>
      <trkpt lat="48.22643" lon="6.71615">
        <ele>493.4</ele>
        <time>2024-11-20T11:15:27Z</time>
      </trkpt>
      <trkpt lat="48.22644" lon="6.71629">
        <ele>492.8</ele>
        <time>2024-11-20T11:15:34Z</time>
      </trkpt>
      <trkpt lat="48.22647" lon="6.71644">
        <ele>492.2</ele>
        <time>2024-11-20T11:15:41Z</time>
      </trkpt>
      <trkpt lat="48.22649" lon="6.71658">
        <ele>491.7</ele>
        <time>2024-11-20T11:15:48Z</time>
      </trkpt>
      <trkpt lat="48.2265" lon="6.71671">
        <ele>491.1</ele>
        <time>2024-11-20T11:15:55Z</time>
      </trkpt>
      <trkpt lat="48.2265" lon="6.71687">
        <ele>490.5</ele>
        <time>2024-11-20T11:16:03Z</time>
      </trkpt>
      <trkpt lat="48.22647" lon="6.71701">
        <ele>489.9</ele>
        <time>2024-11-20T11:16:11Z</time>
      </trkpt>
      <trkpt lat="48.22641" lon="6.71711">
        <ele>489.3</ele>
        <time>2024-11-20T11:16:18Z</time>
      </trkpt>
      <trkpt lat="48.22633" lon="6.71717">
        <ele>488.7</ele>
        <time>2024-11-20T11:16:25Z</time>
      </trkpt>
      <trkpt lat="48.22623" lon="6.7172">
        <ele>488.1</ele>
        <time>2024-11-20T11:16:32Z</time>
      </trkpt>
      <trkpt lat="48.22613" lon="6.7172">
        <ele>487.4</ele>
        <time>2024-11-20T11:16:39Z</time>
      </trkpt>
      <trkpt lat="48.22604" lon="6.71722">
        <ele>486.9</ele>
        <time>2024-11-20T11:16:47Z</time>
      </trkpt>
      <trkpt lat="48.22594" lon="6.71723">
        <ele>486.3</ele>
        <time>2024-11-20T11:16:55Z</time>
      </trkpt>
      <trkpt lat="48.22585" lon="6.71726">
        <ele>485.7</ele>
        <time>2024-11-20T11:17:03Z</time>
      </trkpt>
      <trkpt lat="48.22575" lon="6.71729">
        <ele>485</ele>
        <time>2024-11-20T11:17:11Z</time>
      </trkpt>
      <trkpt lat="48.22567" lon="6.71733">
        <ele>484.4</ele>
        <time>2024-11-20T11:17:19Z</time>
      </trkpt>
      <trkpt lat="48.22557" lon="6.71737">
        <ele>483.8</ele>
        <time>2024-11-20T11:17:28Z</time>
      </trkpt>
      <trkpt lat="48.22549" lon="6.71742">
        <ele>483.1</ele>
        <time>2024-11-20T11:17:36Z</time>
      </trkpt>
      <trkpt lat="48.2254" lon="6.71746">
        <ele>482.6</ele>
        <time>2024-11-20T11:17:43Z</time>
      </trkpt>
      <trkpt lat="48.22533" lon="6.71755">
        <ele>482</ele>
        <time>2024-11-20T11:17:50Z</time>
      </trkpt>
      <trkpt lat="48.22525" lon="6.71765">
        <ele>481.3</ele>
        <time>2024-11-20T11:17:59Z</time>
      </trkpt>
      <trkpt lat="48.22518" lon="6.71774">
        <ele>480.7</ele>
        <time>2024-11-20T11:18:08Z</time>
      </trkpt>
      <trkpt lat="48.22511" lon="6.71784">
        <ele>480</ele>
        <time>2024-11-20T11:18:16Z</time>
      </trkpt>
      <trkpt lat="48.22504" lon="6.71794">
        <ele>479.4</ele>
        <time>2024-11-20T11:18:25Z</time>
      </trkpt>
      <trkpt lat="48.22497" lon="6.71804">
        <ele>478.7</ele>
        <time>2024-11-20T11:18:33Z</time>
      </trkpt>
      <trkpt lat="48.22489" lon="6.71814">
        <ele>478.1</ele>
        <time>2024-11-20T11:18:41Z</time>
      </trkpt>
      <trkpt lat="48.22482" lon="6.71823">
        <ele>477.5</ele>
        <time>2024-11-20T11:18:49Z</time>
      </trkpt>
      <trkpt lat="48.22474" lon="6.71829">
        <ele>476.9</ele>
        <time>2024-11-20T11:18:56Z</time>
      </trkpt>
      <trkpt lat="48.22465" lon="6.71836">
        <ele>476.3</ele>
        <time>2024-11-20T11:19:04Z</time>
      </trkpt>
      <trkpt lat="48.22458" lon="6.71844">
        <ele>475.7</ele>
        <time>2024-11-20T11:19:11Z</time>
      </trkpt>
      <trkpt lat="48.2245" lon="6.71852">
        <ele>475.1</ele>
        <time>2024-11-20T11:19:18Z</time>
      </trkpt>
      <trkpt lat="48.22442" lon="6.71858">
        <ele>474.4</ele>
        <time>2024-11-20T11:19:25Z</time>
      </trkpt>
      <trkpt lat="48.22433" lon="6.71864">
        <ele>473.7</ele>
        <time>2024-11-20T11:19:32Z</time>
      </trkpt>
      <trkpt lat="48.22426" lon="6.71872">
        <ele>473.1</ele>
        <time>2024-11-20T11:19:39Z</time>
      </trkpt>
      <trkpt lat="48.22418" lon="6.7188">
        <ele>472.5</ele>
        <time>2024-11-20T11:19:46Z</time>
      </trkpt>
      <trkpt lat="48.2241" lon="6.71889">
        <ele>471.9</ele>
        <time>2024-11-20T11:19:53Z</time>
      </trkpt>
      <trkpt lat="48.22402" lon="6.71899">
        <ele>471.2</ele>
        <time>2024-11-20T11:20:00Z</time>
      </trkpt>
      <trkpt lat="48.22394" lon="6.71908">
        <ele>470.5</ele>
        <time>2024-11-20T11:20:08Z</time>
      </trkpt>
      <trkpt lat="48.22384" lon="6.71913">
        <ele>469.7</ele>
        <time>2024-11-20T11:20:15Z</time>
      </trkpt>
      <trkpt lat="48.22376" lon="6.71918">
        <ele>468.9</ele>
        <time>2024-11-20T11:20:22Z</time>
      </trkpt>
      <trkpt lat="48.22367" lon="6.71925">
        <ele>468.1</ele>
        <time>2024-11-20T11:20:30Z</time>
      </trkpt>
      <trkpt lat="48.22358" lon="6.71931">
        <ele>467.3</ele>
        <time>2024-11-20T11:20:37Z</time>
      </trkpt>
      <trkpt lat="48.22349" lon="6.71935">
        <ele>466.6</ele>
        <time>2024-11-20T11:20:44Z</time>
      </trkpt>
      <trkpt lat="48.2234" lon="6.71941">
        <ele>465.7</ele>
        <time>2024-11-20T11:20:52Z</time>
      </trkpt>
      <trkpt lat="48.22329" lon="6.71945">
        <ele>464.8</ele>
        <time>2024-11-20T11:20:59Z</time>
      </trkpt>
      <trkpt lat="48.22321" lon="6.71951">
        <ele>463.9</ele>
        <time>2024-11-20T11:21:05Z</time>
      </trkpt>
      <trkpt lat="48.22312" lon="6.71955">
        <ele>463.1</ele>
        <time>2024-11-20T11:21:12Z</time>
      </trkpt>
      <trkpt lat="48.22305" lon="6.71964">
        <ele>462.2</ele>
        <time>2024-11-20T11:21:19Z</time>
      </trkpt>
      <trkpt lat="48.223" lon="6.71975">
        <ele>461.4</ele>
        <time>2024-11-20T11:21:26Z</time>
      </trkpt>
      <trkpt lat="48.22295" lon="6.71989">
        <ele>460.5</ele>
        <time>2024-11-20T11:21:34Z</time>
      </trkpt>
      <trkpt lat="48.22289" lon="6.72001">
        <ele>459.7</ele>
        <time>2024-11-20T11:21:42Z</time>
      </trkpt>
      <trkpt lat="48.22283" lon="6.72012">
        <ele>458.9</ele>
        <time>2024-11-20T11:21:50Z</time>
      </trkpt>
      <trkpt lat="48.22274" lon="6.72019">
        <ele>458.1</ele>
        <time>2024-11-20T11:21:57Z</time>
      </trkpt>
      <trkpt lat="48.22266" lon="6.72028">
        <ele>457.3</ele>
        <time>2024-11-20T11:22:05Z</time>
      </trkpt>
      <trkpt lat="48.22257" lon="6.72035">
        <ele>456.4</ele>
        <time>2024-11-20T11:22:13Z</time>
      </trkpt>
      <trkpt lat="48.22252" lon="6.72047">
        <ele>455.6</ele>
        <time>2024-11-20T11:22:21Z</time>
      </trkpt>
      <trkpt lat="48.22247" lon="6.72059">
        <ele>454.8</ele>
        <time>2024-11-20T11:22:28Z</time>
      </trkpt>
      <trkpt lat="48.22243" lon="6.72071">
        <ele>454</ele>
        <time>2024-11-20T11:22:36Z</time>
      </trkpt>
      <trkpt lat="48.22237" lon="6.72082">
        <ele>453.2</ele>
        <time>2024-11-20T11:22:44Z</time>
      </trkpt>
      <trkpt lat="48.22231" lon="6.72094">
        <ele>452.5</ele>
        <time>2024-11-20T11:22:53Z</time>
      </trkpt>
      <trkpt lat="48.22227" lon="6.72107">
        <ele>451.7</ele>
        <time>2024-11-20T11:23:02Z</time>
      </trkpt>
      <trkpt lat="48.22222" lon="6.72121">
        <ele>450.9</ele>
        <time>2024-11-20T11:23:11Z</time>
      </trkpt>
      <trkpt lat="48.22216" lon="6.72132">
        <ele>450.2</ele>
        <time>2024-11-20T11:23:19Z</time>
      </trkpt>
      <trkpt lat="48.2221" lon="6.72143">
        <ele>449.5</ele>
        <time>2024-11-20T11:23:27Z</time>
      </trkpt>
      <trkpt lat="48.22204" lon="6.72154">
        <ele>448.8</ele>
        <time>2024-11-20T11:23:34Z</time>
      </trkpt>
      <trkpt lat="48.222" lon="6.72167">
        <ele>448</ele>
        <time>2024-11-20T11:23:41Z</time>
      </trkpt>
      <trkpt lat="48.22197" lon="6.72182">
        <ele>447.1</ele>
        <time>2024-11-20T11:23:49Z</time>
      </trkpt>
      <trkpt lat="48.22193" lon="6.72194">
        <ele>446.4</ele>
        <time>2024-11-20T11:23:57Z</time>
      </trkpt>
      <trkpt lat="48.22192" lon="6.72208">
        <ele>445.6</ele>
        <time>2024-11-20T11:24:05Z</time>
      </trkpt>
      <trkpt lat="48.22189" lon="6.72222">
        <ele>444.8</ele>
        <time>2024-11-20T11:24:12Z</time>
      </trkpt>
      <trkpt lat="48.22191" lon="6.72237">
        <ele>443.8</ele>
        <time>2024-11-20T11:24:22Z</time>
      </trkpt>
      <trkpt lat="48.22191" lon="6.72251">
        <ele>442.8</ele>
        <time>2024-11-20T11:24:30Z</time>
      </trkpt>
      <trkpt lat="48.22192" lon="6.72267">
        <ele>441.8</ele>
        <time>2024-11-20T11:24:37Z</time>
      </trkpt>
      <trkpt lat="48.22197" lon="6.7228">
        <ele>440.9</ele>
        <time>2024-11-20T11:24:43Z</time>
      </trkpt>
      <trkpt lat="48.22204" lon="6.7229">
        <ele>440.7</ele>
        <time>2024-11-20T11:24:50Z</time>
      </trkpt>
      <trkpt lat="48.22213" lon="6.72298">
        <ele>442</ele>
        <time>2024-11-20T11:24:57Z</time>
      </trkpt>
      <trkpt lat="48.22222" lon="6.72302">
        <ele>443.2</ele>
        <time>2024-11-20T11:25:04Z</time>
      </trkpt>
      <trkpt lat="48.22231" lon="6.72306">
        <ele>444.3</ele>
        <time>2024-11-20T11:25:12Z</time>
      </trkpt>
      <trkpt lat="48.2224" lon="6.72309">
        <ele>445.5</ele>
        <time>2024-11-20T11:25:38Z</time>
      </trkpt>
      <trkpt lat="48.22249" lon="6.72314">
        <ele>446.8</ele>
        <time>2024-11-20T11:25:48Z</time>
      </trkpt>
      <trkpt lat="48.22258" lon="6.72316">
        <ele>448</ele>
        <time>2024-11-20T11:26:24Z</time>
      </trkpt>
      <trkpt lat="48.22267" lon="6.72319">
        <ele>449.3</ele>
        <time>2024-11-20T11:26:33Z</time>
      </trkpt>
      <trkpt lat="48.22276" lon="6.72322">
        <ele>450.5</ele>
        <time>2024-11-20T11:26:39Z</time>
      </trkpt>
      <trkpt lat="48.22286" lon="6.72323">
        <ele>451.6</ele>
        <time>2024-11-20T11:29:37Z</time>
      </trkpt>
      <trkpt lat="48.22295" lon="6.72324">
        <ele>452.6</ele>
        <time>2024-11-20T11:29:52Z</time>
      </trkpt>
      <trkpt lat="48.22306" lon="6.72326">
        <ele>453.6</ele>
        <time>2024-11-20T11:30:01Z</time>
      </trkpt>
      <trkpt lat="48.22315" lon="6.72324">
        <ele>454.4</ele>
        <time>2024-11-20T11:30:06Z</time>
      </trkpt>
      <trkpt lat="48.22324" lon="6.72328">
        <ele>455.1</ele>
        <time>2024-11-20T11:30:14Z</time>
      </trkpt>
      <trkpt lat="48.22334" lon="6.72332">
        <ele>455.8</ele>
        <time>2024-11-20T11:30:22Z</time>
      </trkpt>
      <trkpt lat="48.22344" lon="6.72335">
        <ele>456.4</ele>
        <time>2024-11-20T11:30:29Z</time>
      </trkpt>
      <trkpt lat="48.22353" lon="6.72337">
        <ele>457</ele>
        <time>2024-11-20T11:30:36Z</time>
      </trkpt>
      <trkpt lat="48.22363" lon="6.72338">
        <ele>457.6</ele>
        <time>2024-11-20T11:30:44Z</time>
      </trkpt>
      <trkpt lat="48.22372" lon="6.72343">
        <ele>458.1</ele>
        <time>2024-11-20T11:30:51Z</time>
      </trkpt>
      <trkpt lat="48.22382" lon="6.72345">
        <ele>458.6</ele>
        <time>2024-11-20T11:31:00Z</time>
      </trkpt>
      <trkpt lat="48.22392" lon="6.72347">
        <ele>459.1</ele>
        <time>2024-11-20T11:31:07Z</time>
      </trkpt>
      <trkpt lat="48.22403" lon="6.72348">
        <ele>459.7</ele>
        <time>2024-11-20T11:31:14Z</time>
      </trkpt>
      <trkpt lat="48.22413" lon="6.72355">
        <ele>460.3</ele>
        <time>2024-11-20T11:31:23Z</time>
      </trkpt>
      <trkpt lat="48.22422" lon="6.72358">
        <ele>460.8</ele>
        <time>2024-11-20T11:31:29Z</time>
      </trkpt>
      <trkpt lat="48.22431" lon="6.72359">
        <ele>461.1</ele>
        <time>2024-11-20T11:31:36Z</time>
      </trkpt>
      <trkpt lat="48.22442" lon="6.72359">
        <ele>461.5</ele>
        <time>2024-11-20T11:31:44Z</time>
      </trkpt>
      <trkpt lat="48.22451" lon="6.72362">
        <ele>461.7</ele>
        <time>2024-11-20T11:31:55Z</time>
      </trkpt>
      <trkpt lat="48.22461" lon="6.72368">
        <ele>461.8</ele>
        <time>2024-11-20T11:32:01Z</time>
      </trkpt>
      <trkpt lat="48.2247" lon="6.72369">
        <ele>461.7</ele>
        <time>2024-11-20T11:32:08Z</time>
      </trkpt>
      <trkpt lat="48.22479" lon="6.72369">
        <ele>461.7</ele>
        <time>2024-11-20T11:32:15Z</time>
      </trkpt>
      <trkpt lat="48.22489" lon="6.72372">
        <ele>461.6</ele>
        <time>2024-11-20T11:32:24Z</time>
      </trkpt>
      <trkpt lat="48.22498" lon="6.72374">
        <ele>461.5</ele>
        <time>2024-11-20T11:32:32Z</time>
      </trkpt>
      <trkpt lat="48.22508" lon="6.72375">
        <ele>461.4</ele>
        <time>2024-11-20T11:32:39Z</time>
      </trkpt>
      <trkpt lat="48.22517" lon="6.72368">
        <ele>461.4</ele>
        <time>2024-11-20T11:32:48Z</time>
      </trkpt>
      <trkpt lat="48.22527" lon="6.72366">
        <ele>461.4</ele>
        <time>2024-11-20T11:32:55Z</time>
      </trkpt>
      <trkpt lat="48.22536" lon="6.72366">
        <ele>461.5</ele>
        <time>2024-11-20T11:33:01Z</time>
      </trkpt>
      <trkpt lat="48.22545" lon="6.72363">
        <ele>461.7</ele>
        <time>2024-11-20T11:33:07Z</time>
      </trkpt>
      <trkpt lat="48.22554" lon="6.72359">
        <ele>462</ele>
        <time>2024-11-20T11:33:13Z</time>
      </trkpt>
      <trkpt lat="48.22562" lon="6.72351">
        <ele>462.4</ele>
        <time>2024-11-20T11:33:21Z</time>
      </trkpt>
      <trkpt lat="48.22571" lon="6.72346">
        <ele>462.9</ele>
        <time>2024-11-20T11:33:28Z</time>
      </trkpt>
      <trkpt lat="48.2258" lon="6.7234">
        <ele>463.3</ele>
        <time>2024-11-20T11:33:35Z</time>
      </trkpt>
      <trkpt lat="48.22588" lon="6.72332">
        <ele>463.7</ele>
        <time>2024-11-20T11:33:43Z</time>
      </trkpt>
      <trkpt lat="48.22595" lon="6.72321">
        <ele>464.1</ele>
        <time>2024-11-20T11:33:51Z</time>
      </trkpt>
      <trkpt lat="48.22604" lon="6.72314">
        <ele>464.4</ele>
        <time>2024-11-20T11:33:58Z</time>
      </trkpt>
      <trkpt lat="48.2261" lon="6.72305">
        <ele>464.6</ele>
        <time>2024-11-20T11:34:05Z</time>
      </trkpt>
      <trkpt lat="48.22618" lon="6.72297">
        <ele>464.7</ele>
        <time>2024-11-20T11:34:12Z</time>
      </trkpt>
      <trkpt lat="48.22626" lon="6.72288">
        <ele>464.7</ele>
        <time>2024-11-20T11:34:20Z</time>
      </trkpt>
      <trkpt lat="48.22635" lon="6.72283">
        <ele>464.7</ele>
        <time>2024-11-20T11:34:28Z</time>
      </trkpt>
      <trkpt lat="48.22645" lon="6.72278">
        <ele>464.5</ele>
        <time>2024-11-20T11:34:35Z</time>
      </trkpt>
      <trkpt lat="48.22654" lon="6.72275">
        <ele>464.3</ele>
        <time>2024-11-20T11:34:41Z</time>
      </trkpt>
      <trkpt lat="48.22664" lon="6.72273">
        <ele>464.1</ele>
        <time>2024-11-20T11:34:48Z</time>
      </trkpt>
      <trkpt lat="48.22674" lon="6.72272">
        <ele>463.7</ele>
        <time>2024-11-20T11:34:55Z</time>
      </trkpt>
      <trkpt lat="48.22683" lon="6.72268">
        <ele>463.3</ele>
        <time>2024-11-20T11:35:03Z</time>
      </trkpt>
      <trkpt lat="48.22692" lon="6.72263">
        <ele>462.9</ele>
        <time>2024-11-20T11:35:11Z</time>
      </trkpt>
      <trkpt lat="48.22699" lon="6.72253">
        <ele>462.5</ele>
        <time>2024-11-20T11:35:19Z</time>
      </trkpt>
      <trkpt lat="48.22707" lon="6.72245">
        <ele>462</ele>
        <time>2024-11-20T11:35:26Z</time>
      </trkpt>
      <trkpt lat="48.22713" lon="6.72233">
        <ele>461.4</ele>
        <time>2024-11-20T11:35:34Z</time>
      </trkpt>
      <trkpt lat="48.2272" lon="6.72223">
        <ele>460.7</ele>
        <time>2024-11-20T11:35:42Z</time>
      </trkpt>
      <trkpt lat="48.22725" lon="6.72211">
        <ele>460.1</ele>
        <time>2024-11-20T11:35:49Z</time>
      </trkpt>
      <trkpt lat="48.22733" lon="6.72203">
        <ele>459.4</ele>
        <time>2024-11-20T11:35:56Z</time>
      </trkpt>
      <trkpt lat="48.22741" lon="6.72196">
        <ele>458.6</ele>
        <time>2024-11-20T11:36:03Z</time>
      </trkpt>
      <trkpt lat="48.22748" lon="6.72189">
        <ele>457.9</ele>
        <time>2024-11-20T11:36:10Z</time>
      </trkpt>
      <trkpt lat="48.22755" lon="6.7218">
        <ele>457.2</ele>
        <time>2024-11-20T11:36:17Z</time>
      </trkpt>
      <trkpt lat="48.22763" lon="6.72172">
        <ele>456.6</ele>
        <time>2024-11-20T11:36:25Z</time>
      </trkpt>
      <trkpt lat="48.22772" lon="6.72167">
        <ele>455.9</ele>
        <time>2024-11-20T11:36:32Z</time>
      </trkpt>
      <trkpt lat="48.22782" lon="6.72167">
        <ele>455.3</ele>
        <time>2024-11-20T11:36:39Z</time>
      </trkpt>
      <trkpt lat="48.22791" lon="6.72169">
        <ele>454.7</ele>
        <time>2024-11-20T11:36:46Z</time>
      </trkpt>
      <trkpt lat="48.22801" lon="6.72172">
        <ele>454</ele>
        <time>2024-11-20T11:36:53Z</time>
      </trkpt>
      <trkpt lat="48.22809" lon="6.72177">
        <ele>453.4</ele>
        <time>2024-11-20T11:37:00Z</time>
      </trkpt>
      <trkpt lat="48.22817" lon="6.72185">
        <ele>452.8</ele>
        <time>2024-11-20T11:37:09Z</time>
      </trkpt>
      <trkpt lat="48.22824" lon="6.72195">
        <ele>452.1</ele>
        <time>2024-11-20T11:37:18Z</time>
      </trkpt>
      <trkpt lat="48.22827" lon="6.72209">
        <ele>451.4</ele>
        <time>2024-11-20T11:37:26Z</time>
      </trkpt>
      <trkpt lat="48.22829" lon="6.72223">
        <ele>450.7</ele>
        <time>2024-11-20T11:37:33Z</time>
      </trkpt>
      <trkpt lat="48.22832" lon="6.72236">
        <ele>449.9</ele>
        <time>2024-11-20T11:37:41Z</time>
      </trkpt>
      <trkpt lat="48.22834" lon="6.7225">
        <ele>449</ele>
        <time>2024-11-20T11:37:48Z</time>
      </trkpt>
      <trkpt lat="48.22835" lon="6.72265">
        <ele>447.9</ele>
        <time>2024-11-20T11:37:56Z</time>
      </trkpt>
      <trkpt lat="48.22837" lon="6.72279">
        <ele>446.9</ele>
        <time>2024-11-20T11:38:05Z</time>
      </trkpt>
      <trkpt lat="48.22838" lon="6.72294">
        <ele>445.7</ele>
        <time>2024-11-20T11:38:13Z</time>
      </trkpt>
      <trkpt lat="48.22839" lon="6.72309">
        <ele>444.4</ele>
        <time>2024-11-20T11:38:20Z</time>
      </trkpt>
      <trkpt lat="48.22842" lon="6.72322">
        <ele>443.1</ele>
        <time>2024-11-20T11:38:27Z</time>
      </trkpt>
      <trkpt lat="48.22843" lon="6.72336">
        <ele>442</ele>
        <time>2024-11-20T11:38:35Z</time>
      </trkpt>
      <trkpt lat="48.22844" lon="6.72349">
        <ele>440.8</ele>
        <time>2024-11-20T11:38:43Z</time>
      </trkpt>
      <trkpt lat="48.22844" lon="6.72364">
        <ele>439.7</ele>
        <time>2024-11-20T11:38:51Z</time>
      </trkpt>
      <trkpt lat="48.22846" lon="6.72377">
        <ele>438.7</ele>
        <time>2024-11-20T11:38:58Z</time>
      </trkpt>
      <trkpt lat="48.2285" lon="6.72391">
        <ele>437.8</ele>
        <time>2024-11-20T11:39:05Z</time>
      </trkpt>
      <trkpt lat="48.22856" lon="6.72404">
        <ele>437.2</ele>
        <time>2024-11-20T11:39:13Z</time>
      </trkpt>
      <trkpt lat="48.22864" lon="6.72411">
        <ele>436.9</ele>
        <time>2024-11-20T11:39:20Z</time>
      </trkpt>
      <trkpt lat="48.22873" lon="6.72418">
        <ele>436.7</ele>
        <time>2024-11-20T11:39:26Z</time>
      </trkpt>
      <trkpt lat="48.22882" lon="6.72423">
        <ele>436.7</ele>
        <time>2024-11-20T11:39:33Z</time>
      </trkpt>
      <trkpt lat="48.22892" lon="6.72427">
        <ele>436.8</ele>
        <time>2024-11-20T11:39:40Z</time>
      </trkpt>
      <trkpt lat="48.22901" lon="6.72429">
        <ele>437</ele>
        <time>2024-11-20T11:39:48Z</time>
      </trkpt>
      <trkpt lat="48.2291" lon="6.72431">
        <ele>437.2</ele>
        <time>2024-11-20T11:39:56Z</time>
      </trkpt>
      <trkpt lat="48.22919" lon="6.72433">
        <ele>437.4</ele>
        <time>2024-11-20T11:40:03Z</time>
      </trkpt>
      <trkpt lat="48.22929" lon="6.72435">
        <ele>437.8</ele>
        <time>2024-11-20T11:40:09Z</time>
      </trkpt>
      <trkpt lat="48.22939" lon="6.72436">
        <ele>438.3</ele>
        <time>2024-11-20T11:40:15Z</time>
      </trkpt>
      <trkpt lat="48.22948" lon="6.72434">
        <ele>438.6</ele>
        <time>2024-11-20T11:40:22Z</time>
      </trkpt>
      <trkpt lat="48.22957" lon="6.72431">
        <ele>439</ele>
        <time>2024-11-20T11:40:29Z</time>
      </trkpt>
      <trkpt lat="48.22966" lon="6.72425">
        <ele>439.3</ele>
        <time>2024-11-20T11:40:36Z</time>
      </trkpt>
      <trkpt lat="48.22976" lon="6.7242">
        <ele>439.6</ele>
        <time>2024-11-20T11:40:42Z</time>
      </trkpt>
      <trkpt lat="48.22985" lon="6.72415">
        <ele>439.9</ele>
        <time>2024-11-20T11:40:49Z</time>
      </trkpt>
      <trkpt lat="48.22994" lon="6.72412">
        <ele>440.2</ele>
        <time>2024-11-20T11:40:56Z</time>
      </trkpt>
      <trkpt lat="48.23003" lon="6.72404">
        <ele>440.7</ele>
        <time>2024-11-20T11:41:03Z</time>
      </trkpt>
      <trkpt lat="48.23012" lon="6.72399">
        <ele>441.3</ele>
        <time>2024-11-20T11:41:09Z</time>
      </trkpt>
      <trkpt lat="48.23021" lon="6.72395">
        <ele>442</ele>
        <time>2024-11-20T11:41:16Z</time>
      </trkpt>
      <trkpt lat="48.2303" lon="6.72388">
        <ele>442.7</ele>
        <time>2024-11-20T11:41:23Z</time>
      </trkpt>
      <trkpt lat="48.23039" lon="6.72386">
        <ele>443.4</ele>
        <time>2024-11-20T11:41:29Z</time>
      </trkpt>
      <trkpt lat="48.23048" lon="6.72383">
        <ele>443.9</ele>
        <time>2024-11-20T11:41:38Z</time>
      </trkpt>
      <trkpt lat="48.23056" lon="6.72391">
        <ele>444.5</ele>
        <time>2024-11-20T11:41:50Z</time>
      </trkpt>
      <trkpt lat="48.23061" lon="6.72405">
        <ele>445</ele>
        <time>2024-11-20T11:41:57Z</time>
      </trkpt>
      <trkpt lat="48.23064" lon="6.72418">
        <ele>445.5</ele>
        <time>2024-11-20T11:42:04Z</time>
      </trkpt>
      <trkpt lat="48.23066" lon="6.72432">
        <ele>446</ele>
        <time>2024-11-20T11:42:11Z</time>
      </trkpt>
      <trkpt lat="48.23067" lon="6.72447">
        <ele>446.5</ele>
        <time>2024-11-20T11:42:18Z</time>
      </trkpt>
      <trkpt lat="48.23064" lon="6.7246">
        <ele>447.1</ele>
        <time>2024-11-20T11:42:26Z</time>
      </trkpt>
      <trkpt lat="48.2306" lon="6.72473">
        <ele>447.5</ele>
        <time>2024-11-20T11:42:34Z</time>
      </trkpt>
      <trkpt lat="48.23057" lon="6.72488">
        <ele>447.9</ele>
        <time>2024-11-20T11:42:42Z</time>
      </trkpt>
      <trkpt lat="48.23055" lon="6.72502">
        <ele>448.2</ele>
        <time>2024-11-20T11:42:50Z</time>
      </trkpt>
      <trkpt lat="48.23054" lon="6.72516">
        <ele>448.3</ele>
        <time>2024-11-20T11:42:57Z</time>
      </trkpt>
      <trkpt lat="48.23056" lon="6.72532">
        <ele>448.4</ele>
        <time>2024-11-20T11:43:03Z</time>
      </trkpt>
      <trkpt lat="48.23057" lon="6.72546">
        <ele>448.4</ele>
        <time>2024-11-20T11:43:09Z</time>
      </trkpt>
      <trkpt lat="48.23057" lon="6.7256">
        <ele>448.5</ele>
        <time>2024-11-20T11:43:16Z</time>
      </trkpt>
      <trkpt lat="48.23058" lon="6.72574">
        <ele>448.5</ele>
        <time>2024-11-20T11:43:23Z</time>
      </trkpt>
      <trkpt lat="48.23061" lon="6.7259">
        <ele>448.3</ele>
        <time>2024-11-20T11:43:30Z</time>
      </trkpt>
      <trkpt lat="48.23061" lon="6.72605">
        <ele>448.1</ele>
        <time>2024-11-20T11:43:38Z</time>
      </trkpt>
      <trkpt lat="48.23065" lon="6.7262">
        <ele>447.9</ele>
        <time>2024-11-20T11:43:45Z</time>
      </trkpt>
      <trkpt lat="48.23067" lon="6.72633">
        <ele>447.6</ele>
        <time>2024-11-20T11:43:51Z</time>
      </trkpt>
      <trkpt lat="48.23069" lon="6.72647">
        <ele>447.4</ele>
        <time>2024-11-20T11:43:58Z</time>
      </trkpt>
      <trkpt lat="48.23073" lon="6.72662">
        <ele>447.2</ele>
        <time>2024-11-20T11:44:05Z</time>
      </trkpt>
      <trkpt lat="48.23077" lon="6.72675">
        <ele>447</ele>
        <time>2024-11-20T11:44:12Z</time>
      </trkpt>
      <trkpt lat="48.23082" lon="6.72687">
        <ele>446.9</ele>
        <time>2024-11-20T11:44:19Z</time>
      </trkpt>
      <trkpt lat="48.23086" lon="6.727">
        <ele>446.9</ele>
        <time>2024-11-20T11:44:26Z</time>
      </trkpt>
      <trkpt lat="48.23093" lon="6.7271">
        <ele>446.8</ele>
        <time>2024-11-20T11:44:33Z</time>
      </trkpt>
      <trkpt lat="48.23099" lon="6.7272">
        <ele>446.8</ele>
        <time>2024-11-20T11:44:41Z</time>
      </trkpt>
      <trkpt lat="48.23106" lon="6.72732">
        <ele>446.7</ele>
        <time>2024-11-20T11:44:49Z</time>
      </trkpt>
      <trkpt lat="48.23112" lon="6.72743">
        <ele>446.6</ele>
        <time>2024-11-20T11:44:57Z</time>
      </trkpt>
      <trkpt lat="48.23119" lon="6.72753">
        <ele>446.3</ele>
        <time>2024-11-20T11:45:04Z</time>
      </trkpt>
      <trkpt lat="48.23125" lon="6.72765">
        <ele>446</ele>
        <time>2024-11-20T11:45:11Z</time>
      </trkpt>
      <trkpt lat="48.2313" lon="6.72777">
        <ele>445.7</ele>
        <time>2024-11-20T11:45:21Z</time>
      </trkpt>
      <trkpt lat="48.23137" lon="6.72789">
        <ele>445.3</ele>
        <time>2024-11-20T11:45:29Z</time>
      </trkpt>
      <trkpt lat="48.23142" lon="6.72801">
        <ele>444.9</ele>
        <time>2024-11-20T11:45:37Z</time>
      </trkpt>
      <trkpt lat="48.23146" lon="6.72815">
        <ele>444.5</ele>
        <time>2024-11-20T11:45:46Z</time>
      </trkpt>
      <trkpt lat="48.23151" lon="6.72827">
        <ele>444</ele>
        <time>2024-11-20T11:45:54Z</time>
      </trkpt>
      <trkpt lat="48.23158" lon="6.7284">
        <ele>443.3</ele>
        <time>2024-11-20T11:46:01Z</time>
      </trkpt>
      <trkpt lat="48.23164" lon="6.72852">
        <ele>442.6</ele>
        <time>2024-11-20T11:46:08Z</time>
      </trkpt>
      <trkpt lat="48.23169" lon="6.72864">
        <ele>442</ele>
        <time>2024-11-20T11:46:15Z</time>
      </trkpt>
      <trkpt lat="48.23174" lon="6.72876">
        <ele>441.4</ele>
        <time>2024-11-20T11:46:22Z</time>
      </trkpt>
      <trkpt lat="48.2318" lon="6.72886">
        <ele>440.9</ele>
        <time>2024-11-20T11:46:29Z</time>
      </trkpt>
      <trkpt lat="48.23188" lon="6.72896">
        <ele>440.5</ele>
        <time>2024-11-20T11:46:36Z</time>
      </trkpt>
      <trkpt lat="48.23196" lon="6.72904">
        <ele>440.2</ele>
        <time>2024-11-20T11:46:43Z</time>
      </trkpt>
      <trkpt lat="48.23204" lon="6.72912">
        <ele>439.9</ele>
        <time>2024-11-20T11:46:50Z</time>
      </trkpt>
      <trkpt lat="48.23212" lon="6.72919">
        <ele>439.6</ele>
        <time>2024-11-20T11:46:57Z</time>
      </trkpt>
      <trkpt lat="48.2322" lon="6.72926">
        <ele>439.2</ele>
        <time>2024-11-20T11:47:04Z</time>
      </trkpt>
      <trkpt lat="48.23228" lon="6.72933">
        <ele>438.6</ele>
        <time>2024-11-20T11:47:11Z</time>
      </trkpt>
      <trkpt lat="48.23237" lon="6.7294">
        <ele>438</ele>
        <time>2024-11-20T11:47:18Z</time>
      </trkpt>
      <trkpt lat="48.23246" lon="6.72947">
        <ele>437.5</ele>
        <time>2024-11-20T11:47:25Z</time>
      </trkpt>
      <trkpt lat="48.23254" lon="6.72951">
        <ele>437.1</ele>
        <time>2024-11-20T11:47:32Z</time>
      </trkpt>
      <trkpt lat="48.23263" lon="6.72957">
        <ele>436.7</ele>
        <time>2024-11-20T11:47:39Z</time>
      </trkpt>
      <trkpt lat="48.23273" lon="6.72961">
        <ele>436.4</ele>
        <time>2024-11-20T11:47:46Z</time>
      </trkpt>
      <trkpt lat="48.23282" lon="6.72963">
        <ele>436.2</ele>
        <time>2024-11-20T11:47:54Z</time>
      </trkpt>
      <trkpt lat="48.23291" lon="6.72967">
        <ele>436.1</ele>
        <time>2024-11-20T11:49:14Z</time>
      </trkpt>
      <trkpt lat="48.233" lon="6.72967">
        <ele>436.1</ele>
        <time>2024-11-20T11:49:22Z</time>
      </trkpt>
      <trkpt lat="48.2331" lon="6.72969">
        <ele>436.2</ele>
        <time>2024-11-20T11:49:29Z</time>
      </trkpt>
      <trkpt lat="48.2332" lon="6.72969">
        <ele>436.5</ele>
        <time>2024-11-20T11:49:36Z</time>
      </trkpt>
      <trkpt lat="48.23329" lon="6.72969">
        <ele>436.8</ele>
        <time>2024-11-20T11:49:43Z</time>
      </trkpt>
      <trkpt lat="48.23338" lon="6.72968">
        <ele>437.2</ele>
        <time>2024-11-20T11:49:49Z</time>
      </trkpt>
      <trkpt lat="48.23348" lon="6.72967">
        <ele>437.6</ele>
        <time>2024-11-20T11:49:56Z</time>
      </trkpt>
      <trkpt lat="48.23358" lon="6.72964">
        <ele>438</ele>
        <time>2024-11-20T11:50:04Z</time>
      </trkpt>
      <trkpt lat="48.23368" lon="6.72959">
        <ele>438.4</ele>
        <time>2024-11-20T11:50:11Z</time>
      </trkpt>
      <trkpt lat="48.23377" lon="6.72954">
        <ele>438.6</ele>
        <time>2024-11-20T11:50:18Z</time>
      </trkpt>
      <trkpt lat="48.23385" lon="6.72946">
        <ele>438.8</ele>
        <time>2024-11-20T11:50:25Z</time>
      </trkpt>
      <trkpt lat="48.23394" lon="6.72938">
        <ele>439</ele>
        <time>2024-11-20T11:50:32Z</time>
      </trkpt>
      <trkpt lat="48.23402" lon="6.72928">
        <ele>439.4</ele>
        <time>2024-11-20T11:50:39Z</time>
      </trkpt>
      <trkpt lat="48.23409" lon="6.72918">
        <ele>439.8</ele>
        <time>2024-11-20T11:50:46Z</time>
      </trkpt>
      <trkpt lat="48.23415" lon="6.72907">
        <ele>440.2</ele>
        <time>2024-11-20T11:50:53Z</time>
      </trkpt>
      <trkpt lat="48.23421" lon="6.72897">
        <ele>440.6</ele>
        <time>2024-11-20T11:51:00Z</time>
      </trkpt>
      <trkpt lat="48.23426" lon="6.72884">
        <ele>441</ele>
        <time>2024-11-20T11:51:07Z</time>
      </trkpt>
      <trkpt lat="48.2343" lon="6.72871">
        <ele>441.4</ele>
        <time>2024-11-20T11:51:14Z</time>
      </trkpt>
      <trkpt lat="48.23433" lon="6.72856">
        <ele>441.7</ele>
        <time>2024-11-20T11:51:21Z</time>
      </trkpt>
      <trkpt lat="48.23436" lon="6.72842">
        <ele>442.1</ele>
        <time>2024-11-20T11:51:28Z</time>
      </trkpt>
      <trkpt lat="48.23437" lon="6.72829">
        <ele>442.4</ele>
        <time>2024-11-20T11:51:35Z</time>
      </trkpt>
      <trkpt lat="48.2344" lon="6.72816">
        <ele>442.6</ele>
        <time>2024-11-20T11:51:42Z</time>
      </trkpt>
      <trkpt lat="48.23444" lon="6.72802">
        <ele>443</ele>
        <time>2024-11-20T11:51:49Z</time>
      </trkpt>
      <trkpt lat="48.23447" lon="6.72789">
        <ele>443.4</ele>
        <time>2024-11-20T11:51:56Z</time>
      </trkpt>
      <trkpt lat="48.23449" lon="6.72776">
        <ele>443.7</ele>
        <time>2024-11-20T11:52:03Z</time>
      </trkpt>
      <trkpt lat="48.23452" lon="6.72762">
        <ele>444.1</ele>
        <time>2024-11-20T11:52:09Z</time>
      </trkpt>
      <trkpt lat="48.23453" lon="6.72748">
        <ele>444.4</ele>
        <time>2024-11-20T11:52:16Z</time>
      </trkpt>
      <trkpt lat="48.23452" lon="6.72732">
        <ele>444.6</ele>
        <time>2024-11-20T11:52:23Z</time>
      </trkpt>
      <trkpt lat="48.23452" lon="6.72718">
        <ele>444.7</ele>
        <time>2024-11-20T11:52:30Z</time>
      </trkpt>
      <trkpt lat="48.23451" lon="6.72703">
        <ele>444.9</ele>
        <time>2024-11-20T11:52:37Z</time>
      </trkpt>
      <trkpt lat="48.2345" lon="6.7269">
        <ele>445</ele>
        <time>2024-11-20T11:52:44Z</time>
      </trkpt>
      <trkpt lat="48.2345" lon="6.72676">
        <ele>445.1</ele>
        <time>2024-11-20T11:52:51Z</time>
      </trkpt>
      <trkpt lat="48.23447" lon="6.72662">
        <ele>445.2</ele>
        <time>2024-11-20T11:52:58Z</time>
      </trkpt>
      <trkpt lat="48.23444" lon="6.72648">
        <ele>445.4</ele>
        <time>2024-11-20T11:53:06Z</time>
      </trkpt>
      <trkpt lat="48.2344" lon="6.72635">
        <ele>445.6</ele>
        <time>2024-11-20T11:53:13Z</time>
      </trkpt>
      <trkpt lat="48.23436" lon="6.72623">
        <ele>445.8</ele>
        <time>2024-11-20T11:53:19Z</time>
      </trkpt>
      <trkpt lat="48.23433" lon="6.72609">
        <ele>446</ele>
        <time>2024-11-20T11:53:26Z</time>
      </trkpt>
      <trkpt lat="48.2343" lon="6.72596">
        <ele>446.2</ele>
        <time>2024-11-20T11:53:33Z</time>
      </trkpt>
      <trkpt lat="48.23428" lon="6.72581">
        <ele>446.4</ele>
        <time>2024-11-20T11:53:40Z</time>
      </trkpt>
      <trkpt lat="48.23425" lon="6.72568">
        <ele>446.6</ele>
        <time>2024-11-20T11:53:46Z</time>
      </trkpt>
      <trkpt lat="48.23425" lon="6.72553">
        <ele>446.6</ele>
        <time>2024-11-20T11:53:53Z</time>
      </trkpt>
      <trkpt lat="48.23423" lon="6.72539">
        <ele>446.5</ele>
        <time>2024-11-20T11:54:00Z</time>
      </trkpt>
      <trkpt lat="48.23423" lon="6.72524">
        <ele>446.3</ele>
        <time>2024-11-20T11:54:08Z</time>
      </trkpt>
      <trkpt lat="48.23422" lon="6.72508">
        <ele>446.1</ele>
        <time>2024-11-20T11:54:16Z</time>
      </trkpt>
      <trkpt lat="48.23419" lon="6.72494">
        <ele>445.9</ele>
        <time>2024-11-20T11:54:23Z</time>
      </trkpt>
      <trkpt lat="48.23417" lon="6.7248">
        <ele>445.9</ele>
        <time>2024-11-20T11:54:32Z</time>
      </trkpt>
      <trkpt lat="48.23413" lon="6.72468">
        <ele>445.8</ele>
        <time>2024-11-20T11:54:38Z</time>
      </trkpt>
      <trkpt lat="48.2341" lon="6.72454">
        <ele>445.8</ele>
        <time>2024-11-20T11:54:45Z</time>
      </trkpt>
      <trkpt lat="48.23407" lon="6.7244">
        <ele>445.8</ele>
        <time>2024-11-20T11:54:52Z</time>
      </trkpt>
      <trkpt lat="48.23405" lon="6.72425">
        <ele>445.7</ele>
        <time>2024-11-20T11:55:00Z</time>
      </trkpt>
      <trkpt lat="48.23403" lon="6.72411">
        <ele>445.6</ele>
        <time>2024-11-20T11:55:08Z</time>
      </trkpt>
      <trkpt lat="48.234" lon="6.72398">
        <ele>445.6</ele>
        <time>2024-11-20T11:55:15Z</time>
      </trkpt>
      <trkpt lat="48.23396" lon="6.72385">
        <ele>445.6</ele>
        <time>2024-11-20T11:55:22Z</time>
      </trkpt>
      <trkpt lat="48.23393" lon="6.72372">
        <ele>445.6</ele>
        <time>2024-11-20T11:55:29Z</time>
      </trkpt>
      <trkpt lat="48.2339" lon="6.72357">
        <ele>445.7</ele>
        <time>2024-11-20T11:55:37Z</time>
      </trkpt>
      <trkpt lat="48.23388" lon="6.72344">
        <ele>445.8</ele>
        <time>2024-11-20T11:55:44Z</time>
      </trkpt>
      <trkpt lat="48.23384" lon="6.72332">
        <ele>446</ele>
        <time>2024-11-20T11:55:51Z</time>
      </trkpt>
      <trkpt lat="48.2338" lon="6.72319">
        <ele>446.2</ele>
        <time>2024-11-20T11:55:58Z</time>
      </trkpt>
      <trkpt lat="48.23376" lon="6.72306">
        <ele>446.5</ele>
        <time>2024-11-20T11:56:05Z</time>
      </trkpt>
      <trkpt lat="48.23371" lon="6.72293">
        <ele>446.8</ele>
        <time>2024-11-20T11:56:12Z</time>
      </trkpt>
      <trkpt lat="48.23367" lon="6.7228">
        <ele>447.1</ele>
        <time>2024-11-20T11:56:19Z</time>
      </trkpt>
      <trkpt lat="48.23364" lon="6.72266">
        <ele>447.4</ele>
        <time>2024-11-20T11:56:26Z</time>
      </trkpt>
      <trkpt lat="48.2336" lon="6.72252">
        <ele>447.6</ele>
        <time>2024-11-20T11:56:34Z</time>
      </trkpt>
      <trkpt lat="48.23356" lon="6.72239">
        <ele>447.7</ele>
        <time>2024-11-20T11:56:41Z</time>
      </trkpt>
      <trkpt lat="48.23353" lon="6.72226">
        <ele>447.8</ele>
        <time>2024-11-20T11:56:48Z</time>
      </trkpt>
      <trkpt lat="48.23349" lon="6.72212">
        <ele>447.8</ele>
        <time>2024-11-20T11:56:56Z</time>
      </trkpt>
      <trkpt lat="48.23347" lon="6.72198">
        <ele>447.7</ele>
        <time>2024-11-20T11:57:03Z</time>
      </trkpt>
      <trkpt lat="48.23343" lon="6.72184">
        <ele>447.5</ele>
        <time>2024-11-20T11:57:10Z</time>
      </trkpt>
      <trkpt lat="48.2334" lon="6.72171">
        <ele>447.2</ele>
        <time>2024-11-20T11:57:18Z</time>
      </trkpt>
      <trkpt lat="48.23336" lon="6.72157">
        <ele>446.8</ele>
        <time>2024-11-20T11:57:25Z</time>
      </trkpt>
      <trkpt lat="48.23332" lon="6.72143">
        <ele>446.4</ele>
        <time>2024-11-20T11:57:33Z</time>
      </trkpt>
      <trkpt lat="48.23328" lon="6.7213">
        <ele>445.8</ele>
        <time>2024-11-20T11:57:40Z</time>
      </trkpt>
      <trkpt lat="48.23322" lon="6.72118">
        <ele>445.3</ele>
        <time>2024-11-20T11:57:47Z</time>
      </trkpt>
      <trkpt lat="48.2332" lon="6.72104">
        <ele>444.6</ele>
        <time>2024-11-20T11:57:54Z</time>
      </trkpt>
      <trkpt lat="48.23318" lon="6.72091">
        <ele>444</ele>
        <time>2024-11-20T11:58:02Z</time>
      </trkpt>
      <trkpt lat="48.23324" lon="6.72079">
        <ele>443.5</ele>
        <time>2024-11-20T11:58:35Z</time>
      </trkpt>
      <trkpt lat="48.23328" lon="6.72066">
        <ele>443</ele>
        <time>2024-11-20T11:58:42Z</time>
      </trkpt>
      <trkpt lat="48.23331" lon="6.72053">
        <ele>442.6</ele>
        <time>2024-11-20T11:58:49Z</time>
      </trkpt>
      <trkpt lat="48.23332" lon="6.72039">
        <ele>442.2</ele>
        <time>2024-11-20T11:58:56Z</time>
      </trkpt>
      <trkpt lat="48.23329" lon="6.72025">
        <ele>441.9</ele>
        <time>2024-11-20T11:59:02Z</time>
      </trkpt>
      <trkpt lat="48.23333" lon="6.72012">
        <ele>441.7</ele>
        <time>2024-11-20T11:59:10Z</time>
      </trkpt>
      <trkpt lat="48.23333" lon="6.71998">
        <ele>441.6</ele>
        <time>2024-11-20T11:59:19Z</time>
      </trkpt>
      <trkpt lat="48.23329" lon="6.71984">
        <ele>441.6</ele>
        <time>2024-11-20T11:59:25Z</time>
      </trkpt>
      <trkpt lat="48.23326" lon="6.71971">
        <ele>441.7</ele>
        <time>2024-11-20T11:59:32Z</time>
      </trkpt>
      <trkpt lat="48.23321" lon="6.71958">
        <ele>441.8</ele>
        <time>2024-11-20T11:59:38Z</time>
      </trkpt>
      <trkpt lat="48.23317" lon="6.71944">
        <ele>441.8</ele>
        <time>2024-11-20T11:59:46Z</time>
      </trkpt>
      <trkpt lat="48.23312" lon="6.71931">
        <ele>441.7</ele>
        <time>2024-11-20T11:59:53Z</time>
      </trkpt>
      <trkpt lat="48.23308" lon="6.71918">
        <ele>440.9</ele>
        <time>2024-11-20T12:00:00Z</time>
      </trkpt>
      <trkpt lat="48.23312" lon="6.71905">
        <ele>439.6</ele>
        <time>2024-11-20T12:00:09Z</time>
      </trkpt>
      <trkpt lat="48.23322" lon="6.719">
        <ele>438.2</ele>
        <time>2024-11-20T12:00:19Z</time>
      </trkpt>
      <trkpt lat="48.23331" lon="6.71902">
        <ele>437</ele>
        <time>2024-11-20T12:00:30Z</time>
      </trkpt>
      <trkpt lat="48.2334" lon="6.71906">
        <ele>436.2</ele>
        <time>2024-11-20T12:00:38Z</time>
      </trkpt>
      <trkpt lat="48.23349" lon="6.71911">
        <ele>435.8</ele>
        <time>2024-11-20T12:00:46Z</time>
      </trkpt>
      <trkpt lat="48.23356" lon="6.71919">
        <ele>435.3</ele>
        <time>2024-11-20T12:00:54Z</time>
      </trkpt>
      <trkpt lat="48.23363" lon="6.71931">
        <ele>434.7</ele>
        <time>2024-11-20T12:01:02Z</time>
      </trkpt>
      <trkpt lat="48.23368" lon="6.71943">
        <ele>434.1</ele>
        <time>2024-11-20T12:01:10Z</time>
      </trkpt>
      <trkpt lat="48.23372" lon="6.71957">
        <ele>433.6</ele>
        <time>2024-11-20T12:01:18Z</time>
      </trkpt>
      <trkpt lat="48.23377" lon="6.71971">
        <ele>433.1</ele>
        <time>2024-11-20T12:01:26Z</time>
      </trkpt>
      <trkpt lat="48.23381" lon="6.71984">
        <ele>432.5</ele>
        <time>2024-11-20T12:01:34Z</time>
      </trkpt>
      <trkpt lat="48.23385" lon="6.71998">
        <ele>431.9</ele>
        <time>2024-11-20T12:01:42Z</time>
      </trkpt>
      <trkpt lat="48.23389" lon="6.72012">
        <ele>431.3</ele>
        <time>2024-11-20T12:01:50Z</time>
      </trkpt>
      <trkpt lat="48.23392" lon="6.72025">
        <ele>430.6</ele>
        <time>2024-11-20T12:01:58Z</time>
      </trkpt>
      <trkpt lat="48.23396" lon="6.72038">
        <ele>430.1</ele>
        <time>2024-11-20T12:02:05Z</time>
      </trkpt>
      <trkpt lat="48.234" lon="6.72051">
        <ele>429.5</ele>
        <time>2024-11-20T12:02:13Z</time>
      </trkpt>
      <trkpt lat="48.23403" lon="6.72064">
        <ele>429</ele>
        <time>2024-11-20T12:02:20Z</time>
      </trkpt>
      <trkpt lat="48.23408" lon="6.72076">
        <ele>428.4</ele>
        <time>2024-11-20T12:02:28Z</time>
      </trkpt>
      <trkpt lat="48.23411" lon="6.72089">
        <ele>427.9</ele>
        <time>2024-11-20T12:02:35Z</time>
      </trkpt>
      <trkpt lat="48.23415" lon="6.72103">
        <ele>427.4</ele>
        <time>2024-11-20T12:02:43Z</time>
      </trkpt>
      <trkpt lat="48.23417" lon="6.72118">
        <ele>427</ele>
        <time>2024-11-20T12:02:50Z</time>
      </trkpt>
      <trkpt lat="48.23421" lon="6.72131">
        <ele>426.6</ele>
        <time>2024-11-20T12:02:58Z</time>
      </trkpt>
      <trkpt lat="48.23425" lon="6.72145">
        <ele>426.1</ele>
        <time>2024-11-20T12:03:06Z</time>
      </trkpt>
      <trkpt lat="48.23429" lon="6.72157">
        <ele>425.7</ele>
        <time>2024-11-20T12:03:13Z</time>
      </trkpt>
      <trkpt lat="48.23433" lon="6.7217">
        <ele>425.2</ele>
        <time>2024-11-20T12:03:21Z</time>
      </trkpt>
      <trkpt lat="48.23438" lon="6.72184">
        <ele>424.6</ele>
        <time>2024-11-20T12:03:30Z</time>
      </trkpt>
      <trkpt lat="48.23442" lon="6.72196">
        <ele>424.1</ele>
        <time>2024-11-20T12:03:38Z</time>
      </trkpt>
      <trkpt lat="48.23446" lon="6.72211">
        <ele>423.5</ele>
        <time>2024-11-20T12:03:46Z</time>
      </trkpt>
      <trkpt lat="48.23451" lon="6.72224">
        <ele>423</ele>
        <time>2024-11-20T12:03:54Z</time>
      </trkpt>
      <trkpt lat="48.23458" lon="6.72235">
        <ele>422.5</ele>
        <time>2024-11-20T12:04:02Z</time>
      </trkpt>
      <trkpt lat="48.23463" lon="6.72247">
        <ele>422</ele>
        <time>2024-11-20T12:04:09Z</time>
      </trkpt>
      <trkpt lat="48.23469" lon="6.72258">
        <ele>421.6</ele>
        <time>2024-11-20T12:04:16Z</time>
      </trkpt>
      <trkpt lat="48.23474" lon="6.72269">
        <ele>421.1</ele>
        <time>2024-11-20T12:04:23Z</time>
      </trkpt>
      <trkpt lat="48.23479" lon="6.72282">
        <ele>420.7</ele>
        <time>2024-11-20T12:04:31Z</time>
      </trkpt>
      <trkpt lat="48.23483" lon="6.72294">
        <ele>420.2</ele>
        <time>2024-11-20T12:04:38Z</time>
      </trkpt>
      <trkpt lat="48.23488" lon="6.72307">
        <ele>419.7</ele>
        <time>2024-11-20T12:04:45Z</time>
      </trkpt>
      <trkpt lat="48.23493" lon="6.72317">
        <ele>419.3</ele>
        <time>2024-11-20T12:04:52Z</time>
      </trkpt>
      <trkpt lat="48.23497" lon="6.7233">
        <ele>418.8</ele>
        <time>2024-11-20T12:04:59Z</time>
      </trkpt>
      <trkpt lat="48.23503" lon="6.72342">
        <ele>418.3</ele>
        <time>2024-11-20T12:05:08Z</time>
      </trkpt>
      <trkpt lat="48.23508" lon="6.72354">
        <ele>417.7</ele>
        <time>2024-11-20T12:05:15Z</time>
      </trkpt>
      <trkpt lat="48.23515" lon="6.72363">
        <ele>417.1</ele>
        <time>2024-11-20T12:05:22Z</time>
      </trkpt>
      <trkpt lat="48.23521" lon="6.72374">
        <ele>416.5</ele>
        <time>2024-11-20T12:05:30Z</time>
      </trkpt>
      <trkpt lat="48.23529" lon="6.72382">
        <ele>415.9</ele>
        <time>2024-11-20T12:05:37Z</time>
      </trkpt>
      <trkpt lat="48.23537" lon="6.72391">
        <ele>415.3</ele>
        <time>2024-11-20T12:05:45Z</time>
      </trkpt>
      <trkpt lat="48.23541" lon="6.72403">
        <ele>414.7</ele>
        <time>2024-11-20T12:05:52Z</time>
      </trkpt>
      <trkpt lat="48.23548" lon="6.72413">
        <ele>414.2</ele>
        <time>2024-11-20T12:05:59Z</time>
      </trkpt>
      <trkpt lat="48.23555" lon="6.72424">
        <ele>413.7</ele>
        <time>2024-11-20T12:06:07Z</time>
      </trkpt>
      <trkpt lat="48.23558" lon="6.72438">
        <ele>413.3</ele>
        <time>2024-11-20T12:06:16Z</time>
      </trkpt>
      <trkpt lat="48.23567" lon="6.72446">
        <ele>412.8</ele>
        <time>2024-11-20T12:06:24Z</time>
      </trkpt>
      <trkpt lat="48.23568" lon="6.72461">
        <ele>412.5</ele>
        <time>2024-11-20T12:06:30Z</time>
      </trkpt>
      <trkpt lat="48.23569" lon="6.72476">
        <ele>412.1</ele>
        <time>2024-11-20T12:06:37Z</time>
      </trkpt>
      <trkpt lat="48.23573" lon="6.72489">
        <ele>411.8</ele>
        <time>2024-11-20T12:06:44Z</time>
      </trkpt>
      <trkpt lat="48.23576" lon="6.72503">
        <ele>411.5</ele>
        <time>2024-11-20T12:06:51Z</time>
      </trkpt>
      <trkpt lat="48.23579" lon="6.72516">
        <ele>411.3</ele>
        <time>2024-11-20T12:06:58Z</time>
      </trkpt>
      <trkpt lat="48.23583" lon="6.72528">
        <ele>411.1</ele>
        <time>2024-11-20T12:07:05Z</time>
      </trkpt>
      <trkpt lat="48.23588" lon="6.72541">
        <ele>410.9</ele>
        <time>2024-11-20T12:07:12Z</time>
      </trkpt>
      <trkpt lat="48.23593" lon="6.72553">
        <ele>410.7</ele>
        <time>2024-11-20T12:07:20Z</time>
      </trkpt>
      <trkpt lat="48.23598" lon="6.72565">
        <ele>410.5</ele>
        <time>2024-11-20T12:07:27Z</time>
      </trkpt>
      <trkpt lat="48.23603" lon="6.72578">
        <ele>410.3</ele>
        <time>2024-11-20T12:07:35Z</time>
      </trkpt>
      <trkpt lat="48.23608" lon="6.72591">
        <ele>410.1</ele>
        <time>2024-11-20T12:07:43Z</time>
      </trkpt>
      <trkpt lat="48.23613" lon="6.72604">
        <ele>409.8</ele>
        <time>2024-11-20T12:07:51Z</time>
      </trkpt>
      <trkpt lat="48.23619" lon="6.72615">
        <ele>409.6</ele>
        <time>2024-11-20T12:07:58Z</time>
      </trkpt>
      <trkpt lat="48.23623" lon="6.72627">
        <ele>409.5</ele>
        <time>2024-11-20T12:08:05Z</time>
      </trkpt>
      <trkpt lat="48.23627" lon="6.7264">
        <ele>409.1</ele>
        <time>2024-11-20T12:08:13Z</time>
      </trkpt>
      <trkpt lat="48.23628" lon="6.72655">
        <ele>408.4</ele>
        <time>2024-11-20T12:08:21Z</time>
      </trkpt>
      <trkpt lat="48.2363" lon="6.72668">
        <ele>407.8</ele>
        <time>2024-11-20T12:08:28Z</time>
      </trkpt>
      <trkpt lat="48.23632" lon="6.72682">
        <ele>407</ele>
        <time>2024-11-20T12:08:35Z</time>
      </trkpt>
      <trkpt lat="48.23633" lon="6.72697">
        <ele>406.2</ele>
        <time>2024-11-20T12:08:43Z</time>
      </trkpt>
      <trkpt lat="48.23635" lon="6.72711">
        <ele>405.5</ele>
        <time>2024-11-20T12:08:50Z</time>
      </trkpt>
      <trkpt lat="48.23637" lon="6.72725">
        <ele>404.8</ele>
        <time>2024-11-20T12:08:57Z</time>
      </trkpt>
      <trkpt lat="48.23637" lon="6.72738">
        <ele>404.1</ele>
        <time>2024-11-20T12:09:04Z</time>
      </trkpt>
      <trkpt lat="48.23639" lon="6.72753">
        <ele>403.3</ele>
        <time>2024-11-20T12:09:12Z</time>
      </trkpt>
      <trkpt lat="48.2364" lon="6.72768">
        <ele>402.5</ele>
        <time>2024-11-20T12:09:20Z</time>
      </trkpt>
      <trkpt lat="48.23641" lon="6.72783">
        <ele>401.7</ele>
        <time>2024-11-20T12:09:28Z</time>
      </trkpt>
      <trkpt lat="48.23643" lon="6.72798">
        <ele>401</ele>
        <time>2024-11-20T12:09:36Z</time>
      </trkpt>
      <trkpt lat="48.23644" lon="6.72813">
        <ele>400.2</ele>
        <time>2024-11-20T12:09:44Z</time>
      </trkpt>
      <trkpt lat="48.23645" lon="6.72828">
        <ele>399.5</ele>
        <time>2024-11-20T12:09:52Z</time>
      </trkpt>
      <trkpt lat="48.23646" lon="6.72843">
        <ele>398.7</ele>
        <time>2024-11-20T12:10:00Z</time>
      </trkpt>
      <trkpt lat="48.23648" lon="6.72857">
        <ele>398.1</ele>
        <time>2024-11-20T12:10:07Z</time>
      </trkpt>
      <trkpt lat="48.23651" lon="6.72869">
        <ele>397.4</ele>
        <time>2024-11-20T12:10:14Z</time>
      </trkpt>
      <trkpt lat="48.23653" lon="6.72884">
        <ele>396.7</ele>
        <time>2024-11-20T12:10:22Z</time>
      </trkpt>
      <trkpt lat="48.23653" lon="6.72899">
        <ele>396</ele>
        <time>2024-11-20T12:10:30Z</time>
      </trkpt>
      <trkpt lat="48.23652" lon="6.72913">
        <ele>395.2</ele>
        <time>2024-11-20T12:10:38Z</time>
      </trkpt>
      <trkpt lat="48.23645" lon="6.72923">
        <ele>394.6</ele>
        <time>2024-11-20T12:10:46Z</time>
      </trkpt>
      <trkpt lat="48.23648" lon="6.72938">
        <ele>393.8</ele>
        <time>2024-11-20T12:11:13Z</time>
      </trkpt>
      <trkpt lat="48.23647" lon="6.72953">
        <ele>393.2</ele>
        <time>2024-11-20T12:11:21Z</time>
      </trkpt>
      <trkpt lat="48.23647" lon="6.72968">
        <ele>392.7</ele>
        <time>2024-11-20T12:11:29Z</time>
      </trkpt>
      <trkpt lat="48.23644" lon="6.72981">
        <ele>392.5</ele>
        <time>2024-11-20T12:11:36Z</time>
      </trkpt>
      <trkpt lat="48.23643" lon="6.72994">
        <ele>392.3</ele>
        <time>2024-11-20T12:11:43Z</time>
      </trkpt>
      <trkpt lat="48.23642" lon="6.73008">
        <ele>392</ele>
        <time>2024-11-20T12:11:50Z</time>
      </trkpt>
      <trkpt lat="48.23641" lon="6.73022">
        <ele>391.8</ele>
        <time>2024-11-20T12:11:57Z</time>
      </trkpt>
      <trkpt lat="48.2364" lon="6.73037">
        <ele>391.6</ele>
        <time>2024-11-20T12:12:05Z</time>
      </trkpt>
      <trkpt lat="48.23637" lon="6.7305">
        <ele>391.5</ele>
        <time>2024-11-20T12:12:12Z</time>
      </trkpt>
      <trkpt lat="48.23636" lon="6.73064">
        <ele>391.4</ele>
        <time>2024-11-20T12:12:19Z</time>
      </trkpt>
      <trkpt lat="48.23635" lon="6.73077">
        <ele>391.4</ele>
        <time>2024-11-20T12:12:26Z</time>
      </trkpt>
      <trkpt lat="48.23633" lon="6.7309">
        <ele>391.5</ele>
        <time>2024-11-20T12:12:33Z</time>
      </trkpt>
      <trkpt lat="48.2363" lon="6.73105">
        <ele>391.6</ele>
        <time>2024-11-20T12:12:41Z</time>
      </trkpt>
      <trkpt lat="48.23625" lon="6.73117">
        <ele>391.7</ele>
        <time>2024-11-20T12:12:48Z</time>
      </trkpt>
      <trkpt lat="48.23627" lon="6.73131">
        <ele>391.6</ele>
        <time>2024-11-20T12:12:55Z</time>
      </trkpt>
      <trkpt lat="48.23636" lon="6.73135">
        <ele>391.5</ele>
        <time>2024-11-20T12:15:50Z</time>
      </trkpt>
      <trkpt lat="48.23646" lon="6.73132">
        <ele>391.4</ele>
        <time>2024-11-20T12:15:58Z</time>
      </trkpt>
      <trkpt lat="48.23655" lon="6.73136">
        <ele>391.3</ele>
        <time>2024-11-20T12:16:05Z</time>
      </trkpt>
      <trkpt lat="48.23663" lon="6.73145">
        <ele>391.2</ele>
        <time>2024-11-20T12:16:15Z</time>
      </trkpt>
      <trkpt lat="48.23668" lon="6.73157">
        <ele>391.2</ele>
        <time>2024-11-20T12:16:22Z</time>
      </trkpt>
      <trkpt lat="48.23678" lon="6.7316">
        <ele>391.2</ele>
        <time>2024-11-20T12:16:32Z</time>
      </trkpt>
      <trkpt lat="48.23678" lon="6.73145">
        <ele>391.2</ele>
        <time>2024-11-20T12:16:39Z</time>
      </trkpt>
      <trkpt lat="48.23677" lon="6.7313">
        <ele>391.3</ele>
        <time>2024-11-20T12:16:46Z</time>
      </trkpt>
      <trkpt lat="48.23682" lon="6.73118">
        <ele>391.5</ele>
        <time>2024-11-20T12:16:54Z</time>
      </trkpt>
      <trkpt lat="48.23691" lon="6.73114">
        <ele>391.8</ele>
        <time>2024-11-20T12:17:02Z</time>
      </trkpt>
      <trkpt lat="48.23701" lon="6.73112">
        <ele>392.1</ele>
        <time>2024-11-20T12:17:09Z</time>
      </trkpt>
      <trkpt lat="48.23706" lon="6.73101">
        <ele>392.4</ele>
        <time>2024-11-20T12:17:17Z</time>
      </trkpt>
      <trkpt lat="48.23715" lon="6.731">
        <ele>392.8</ele>
        <time>2024-11-20T12:17:25Z</time>
      </trkpt>
      <trkpt lat="48.23725" lon="6.731">
        <ele>393.2</ele>
        <time>2024-11-20T12:17:32Z</time>
      </trkpt>
      <trkpt lat="48.23734" lon="6.731">
        <ele>393.6</ele>
        <time>2024-11-20T12:17:39Z</time>
      </trkpt>
      <trkpt lat="48.23744" lon="6.73101">
        <ele>394.1</ele>
        <time>2024-11-20T12:17:46Z</time>
      </trkpt>
      <trkpt lat="48.23754" lon="6.73099">
        <ele>394.5</ele>
        <time>2024-11-20T12:17:53Z</time>
      </trkpt>
      <trkpt lat="48.23763" lon="6.73099">
        <ele>394.9</ele>
        <time>2024-11-20T12:18:00Z</time>
      </trkpt>
      <trkpt lat="48.23773" lon="6.73098">
        <ele>395.3</ele>
        <time>2024-11-20T12:18:07Z</time>
      </trkpt>
      <trkpt lat="48.23783" lon="6.73099">
        <ele>395.6</ele>
        <time>2024-11-20T12:18:14Z</time>
      </trkpt>
      <trkpt lat="48.23792" lon="6.731">
        <ele>396</ele>
        <time>2024-11-20T12:18:21Z</time>
      </trkpt>
      <trkpt lat="48.23801" lon="6.73099">
        <ele>396.3</ele>
        <time>2024-11-20T12:18:29Z</time>
      </trkpt>
      <trkpt lat="48.23808" lon="6.73088">
        <ele>397.1</ele>
        <time>2024-11-20T12:18:37Z</time>
      </trkpt>
      <trkpt lat="48.2381" lon="6.73073">
        <ele>398</ele>
        <time>2024-11-20T12:18:44Z</time>
      </trkpt>
      <trkpt lat="48.23806" lon="6.7306">
        <ele>398.9</ele>
        <time>2024-11-20T12:18:51Z</time>
      </trkpt>
      <trkpt lat="48.23801" lon="6.73047">
        <ele>399.7</ele>
        <time>2024-11-20T12:18:58Z</time>
      </trkpt>
      <trkpt lat="48.23794" lon="6.73035">
        <ele>400.4</ele>
        <time>2024-11-20T12:19:05Z</time>
      </trkpt>
      <trkpt lat="48.23789" lon="6.73021">
        <ele>401.1</ele>
        <time>2024-11-20T12:19:12Z</time>
      </trkpt>
      <trkpt lat="48.23784" lon="6.73009">
        <ele>401.9</ele>
        <time>2024-11-20T12:19:19Z</time>
      </trkpt>
      <trkpt lat="48.23779" lon="6.72997">
        <ele>402.5</ele>
        <time>2024-11-20T12:19:26Z</time>
      </trkpt>
      <trkpt lat="48.23771" lon="6.72989">
        <ele>402.7</ele>
        <time>2024-11-20T12:19:40Z</time>
      </trkpt>
      <trkpt lat="48.23761" lon="6.72987">
        <ele>402.4</ele>
        <time>2024-11-20T12:19:48Z</time>
      </trkpt>
      <trkpt lat="48.23752" lon="6.72984">
        <ele>401.6</ele>
        <time>2024-11-20T12:19:55Z</time>
      </trkpt>
      <trkpt lat="48.23742" lon="6.7298">
        <ele>400.5</ele>
        <time>2024-11-20T12:20:02Z</time>
      </trkpt>
      <trkpt lat="48.23732" lon="6.72976">
        <ele>399.3</ele>
        <time>2024-11-20T12:20:09Z</time>
      </trkpt>
      <trkpt lat="48.23723" lon="6.72972">
        <ele>398.1</ele>
        <time>2024-11-20T12:20:16Z</time>
      </trkpt>
      <trkpt lat="48.23712" lon="6.72969">
        <ele>397</ele>
        <time>2024-11-20T12:20:23Z</time>
      </trkpt>
      <trkpt lat="48.23702" lon="6.72968">
        <ele>395.8</ele>
        <time>2024-11-20T12:20:30Z</time>
      </trkpt>
      <trkpt lat="48.23693" lon="6.72967">
        <ele>395</ele>
        <time>2024-11-20T12:20:37Z</time>
      </trkpt>
      <trkpt lat="48.23683" lon="6.72966">
        <ele>394.3</ele>
        <time>2024-11-20T12:20:44Z</time>
      </trkpt>
      <trkpt lat="48.23673" lon="6.72965">
        <ele>393.8</ele>
        <time>2024-11-20T12:20:50Z</time>
      </trkpt>
      <trkpt lat="48.23663" lon="6.72962">
        <ele>393.3</ele>
        <time>2024-11-20T12:20:57Z</time>
      </trkpt>
      <trkpt lat="48.23654" lon="6.7296">
        <ele>393</ele>
        <time>2024-11-20T12:21:03Z</time>
      </trkpt>
      <trkpt lat="48.23653" lon="6.72945">
        <ele>393.6</ele>
        <time>2024-11-20T12:21:11Z</time>
      </trkpt>
      <trkpt lat="48.23654" lon="6.72931">
        <ele>394.2</ele>
        <time>2024-11-20T12:21:17Z</time>
      </trkpt>
      <trkpt lat="48.23655" lon="6.72916">
        <ele>395</ele>
        <time>2024-11-20T12:21:24Z</time>
      </trkpt>
      <trkpt lat="48.23658" lon="6.72901">
        <ele>395.7</ele>
        <time>2024-11-20T12:21:31Z</time>
      </trkpt>
      <trkpt lat="48.23658" lon="6.72886">
        <ele>396.5</ele>
        <time>2024-11-20T12:21:38Z</time>
      </trkpt>
      <trkpt lat="48.23656" lon="6.72871">
        <ele>397.2</ele>
        <time>2024-11-20T12:21:45Z</time>
      </trkpt>
      <trkpt lat="48.23653" lon="6.72858">
        <ele>397.9</ele>
        <time>2024-11-20T12:21:51Z</time>
      </trkpt>
      <trkpt lat="48.23651" lon="6.72843">
        <ele>398.6</ele>
        <time>2024-11-20T12:21:58Z</time>
      </trkpt>
      <trkpt lat="48.23649" lon="6.72829">
        <ele>399.3</ele>
        <time>2024-11-20T12:22:05Z</time>
      </trkpt>
      <trkpt lat="48.23648" lon="6.72814">
        <ele>400.1</ele>
        <time>2024-11-20T12:22:12Z</time>
      </trkpt>
      <trkpt lat="48.23648" lon="6.72799">
        <ele>400.9</ele>
        <time>2024-11-20T12:22:19Z</time>
      </trkpt>
      <trkpt lat="48.23646" lon="6.72784">
        <ele>401.6</ele>
        <time>2024-11-20T12:22:26Z</time>
      </trkpt>
      <trkpt lat="48.23645" lon="6.7277">
        <ele>402.4</ele>
        <time>2024-11-20T12:22:33Z</time>
      </trkpt>
      <trkpt lat="48.23644" lon="6.72756">
        <ele>403.1</ele>
        <time>2024-11-20T12:22:40Z</time>
      </trkpt>
      <trkpt lat="48.23643" lon="6.72742">
        <ele>403.8</ele>
        <time>2024-11-20T12:22:47Z</time>
      </trkpt>
      <trkpt lat="48.23642" lon="6.72728">
        <ele>404.5</ele>
        <time>2024-11-20T12:22:54Z</time>
      </trkpt>
      <trkpt lat="48.2364" lon="6.72714">
        <ele>405.3</ele>
        <time>2024-11-20T12:23:01Z</time>
      </trkpt>
      <trkpt lat="48.23639" lon="6.72699">
        <ele>406</ele>
        <time>2024-11-20T12:23:08Z</time>
      </trkpt>
      <trkpt lat="48.23637" lon="6.72685">
        <ele>406.8</ele>
        <time>2024-11-20T12:23:15Z</time>
      </trkpt>
      <trkpt lat="48.23635" lon="6.72671">
        <ele>407.5</ele>
        <time>2024-11-20T12:23:22Z</time>
      </trkpt>
      <trkpt lat="48.23636" lon="6.72656">
        <ele>408.3</ele>
        <time>2024-11-20T12:23:29Z</time>
      </trkpt>
      <trkpt lat="48.23634" lon="6.72641">
        <ele>409</ele>
        <time>2024-11-20T12:23:36Z</time>
      </trkpt>
      <trkpt lat="48.23633" lon="6.72627">
        <ele>409.5</ele>
        <time>2024-11-20T12:23:43Z</time>
      </trkpt>
      <trkpt lat="48.23632" lon="6.72613">
        <ele>409.7</ele>
        <time>2024-11-20T12:23:50Z</time>
      </trkpt>
      <trkpt lat="48.23632" lon="6.72597">
        <ele>410</ele>
        <time>2024-11-20T12:23:57Z</time>
      </trkpt>
      <trkpt lat="48.23634" lon="6.72582">
        <ele>410.4</ele>
        <time>2024-11-20T12:24:04Z</time>
      </trkpt>
      <trkpt lat="48.23635" lon="6.72567">
        <ele>410.9</ele>
        <time>2024-11-20T12:24:11Z</time>
      </trkpt>
      <trkpt lat="48.23636" lon="6.72554">
        <ele>411.4</ele>
        <time>2024-11-20T12:24:18Z</time>
      </trkpt>
      <trkpt lat="48.23639" lon="6.7254">
        <ele>411.9</ele>
        <time>2024-11-20T12:24:25Z</time>
      </trkpt>
      <trkpt lat="48.23643" lon="6.72527">
        <ele>412.4</ele>
        <time>2024-11-20T12:24:32Z</time>
      </trkpt>
      <trkpt lat="48.23648" lon="6.72514">
        <ele>412.9</ele>
        <time>2024-11-20T12:24:39Z</time>
      </trkpt>
      <trkpt lat="48.23651" lon="6.72501">
        <ele>413.5</ele>
        <time>2024-11-20T12:24:45Z</time>
      </trkpt>
      <trkpt lat="48.23656" lon="6.72489">
        <ele>413.9</ele>
        <time>2024-11-20T12:24:51Z</time>
      </trkpt>
      <trkpt lat="48.23661" lon="6.72477">
        <ele>415</ele>
        <time>2024-11-20T12:24:58Z</time>
      </trkpt>
      <trkpt lat="48.23665" lon="6.72464">
        <ele>416.4</ele>
        <time>2024-11-20T12:25:05Z</time>
      </trkpt>
      <trkpt lat="48.2367" lon="6.7245">
        <ele>417.4</ele>
        <time>2024-11-20T12:25:12Z</time>
      </trkpt>
      <trkpt lat="48.23674" lon="6.72437">
        <ele>419</ele>
        <time>2024-11-20T12:25:19Z</time>
      </trkpt>
      <trkpt lat="48.23677" lon="6.72424">
        <ele>419.9</ele>
        <time>2024-11-20T12:25:26Z</time>
      </trkpt>
      <trkpt lat="48.2368" lon="6.7241">
        <ele>421</ele>
        <time>2024-11-20T12:25:33Z</time>
      </trkpt>
      <trkpt lat="48.23683" lon="6.72397">
        <ele>422</ele>
        <time>2024-11-20T12:25:40Z</time>
      </trkpt>
      <trkpt lat="48.23686" lon="6.72383">
        <ele>423.4</ele>
        <time>2024-11-20T12:25:47Z</time>
      </trkpt>
      <trkpt lat="48.23689" lon="6.7237">
        <ele>425</ele>
        <time>2024-11-20T12:25:53Z</time>
      </trkpt>
      <trkpt lat="48.23694" lon="6.72357">
        <ele>426.8</ele>
        <time>2024-11-20T12:26:00Z</time>
      </trkpt>
      <trkpt lat="48.23695" lon="6.72341">
        <ele>428.1</ele>
        <time>2024-11-20T12:26:07Z</time>
      </trkpt>
      <trkpt lat="48.237" lon="6.72329">
        <ele>429.2</ele>
        <time>2024-11-20T12:26:13Z</time>
      </trkpt>
      <trkpt lat="48.23702" lon="6.72314">
        <ele>430.1</ele>
        <time>2024-11-20T12:26:21Z</time>
      </trkpt>
      <trkpt lat="48.23705" lon="6.723">
        <ele>431.3</ele>
        <time>2024-11-20T12:26:28Z</time>
      </trkpt>
      <trkpt lat="48.23708" lon="6.72286">
        <ele>432.8</ele>
        <time>2024-11-20T12:26:35Z</time>
      </trkpt>
      <trkpt lat="48.2371" lon="6.72272">
        <ele>433.9</ele>
        <time>2024-11-20T12:26:42Z</time>
      </trkpt>
      <trkpt lat="48.23712" lon="6.72258">
        <ele>435.1</ele>
        <time>2024-11-20T12:26:49Z</time>
      </trkpt>
      <trkpt lat="48.23713" lon="6.72243">
        <ele>436.2</ele>
        <time>2024-11-20T12:26:56Z</time>
      </trkpt>
      <trkpt lat="48.23715" lon="6.72229">
        <ele>438.1</ele>
        <time>2024-11-20T12:27:03Z</time>
      </trkpt>
      <trkpt lat="48.23716" lon="6.72215">
        <ele>439.4</ele>
        <time>2024-11-20T12:27:10Z</time>
      </trkpt>
      <trkpt lat="48.23716" lon="6.722">
        <ele>441.1</ele>
        <time>2024-11-20T12:27:17Z</time>
      </trkpt>
      <trkpt lat="48.23716" lon="6.72186">
        <ele>442.5</ele>
        <time>2024-11-20T12:27:24Z</time>
      </trkpt>
      <trkpt lat="48.23716" lon="6.72171">
        <ele>444.2</ele>
        <time>2024-11-20T12:27:31Z</time>
      </trkpt>
      <trkpt lat="48.23716" lon="6.72157">
        <ele>446.4</ele>
        <time>2024-11-20T12:27:38Z</time>
      </trkpt>
      <trkpt lat="48.23717" lon="6.72144">
        <ele>448.4</ele>
        <time>2024-11-20T12:27:45Z</time>
      </trkpt>
      <trkpt lat="48.2372" lon="6.7213">
        <ele>450.5</ele>
        <time>2024-11-20T12:27:52Z</time>
      </trkpt>
      <trkpt lat="48.23719" lon="6.72115">
        <ele>451.4</ele>
        <time>2024-11-20T12:28:00Z</time>
      </trkpt>
      <trkpt lat="48.23716" lon="6.72101">
        <ele>453.6</ele>
        <time>2024-11-20T12:28:07Z</time>
      </trkpt>
      <trkpt lat="48.23713" lon="6.72086">
        <ele>455.5</ele>
        <time>2024-11-20T12:28:15Z</time>
      </trkpt>
      <trkpt lat="48.23708" lon="6.72074">
        <ele>457</ele>
        <time>2024-11-20T12:28:21Z</time>
      </trkpt>
      <trkpt lat="48.23703" lon="6.72063">
        <ele>457.5</ele>
        <time>2024-11-20T12:28:28Z</time>
      </trkpt>
      <trkpt lat="48.23697" lon="6.72052">
        <ele>457.5</ele>
        <time>2024-11-20T12:28:34Z</time>
      </trkpt>
      <trkpt lat="48.23693" lon="6.72039">
        <ele>458.4</ele>
        <time>2024-11-20T12:28:41Z</time>
      </trkpt>
      <trkpt lat="48.23688" lon="6.72025">
        <ele>459.8</ele>
        <time>2024-11-20T12:28:49Z</time>
      </trkpt>
      <trkpt lat="48.23682" lon="6.72012">
        <ele>460.9</ele>
        <time>2024-11-20T12:28:57Z</time>
      </trkpt>
      <trkpt lat="48.23675" lon="6.72001">
        <ele>462.2</ele>
        <time>2024-11-20T12:29:04Z</time>
      </trkpt>
      <trkpt lat="48.23672" lon="6.71988">
        <ele>463.2</ele>
        <time>2024-11-20T12:29:11Z</time>
      </trkpt>
      <trkpt lat="48.23666" lon="6.71975">
        <ele>463.9</ele>
        <time>2024-11-20T12:29:18Z</time>
      </trkpt>
      <trkpt lat="48.23663" lon="6.71962">
        <ele>464.7</ele>
        <time>2024-11-20T12:29:25Z</time>
      </trkpt>
      <trkpt lat="48.23659" lon="6.71948">
        <ele>465.6</ele>
        <time>2024-11-20T12:29:32Z</time>
      </trkpt>
      <trkpt lat="48.23653" lon="6.71936">
        <ele>466.5</ele>
        <time>2024-11-20T12:29:38Z</time>
      </trkpt>
      <trkpt lat="48.2365" lon="6.71923">
        <ele>467.4</ele>
        <time>2024-11-20T12:29:45Z</time>
      </trkpt>
      <trkpt lat="48.23647" lon="6.71908">
        <ele>468.8</ele>
        <time>2024-11-20T12:29:52Z</time>
      </trkpt>
      <trkpt lat="48.23645" lon="6.71894">
        <ele>469.9</ele>
        <time>2024-11-20T12:30:12Z</time>
      </trkpt>
      <trkpt lat="48.23646" lon="6.7188">
        <ele>471.2</ele>
        <time>2024-11-20T12:30:22Z</time>
      </trkpt>
      <trkpt lat="48.23647" lon="6.71865">
        <ele>473.1</ele>
        <time>2024-11-20T12:30:30Z</time>
      </trkpt>
      <trkpt lat="48.23648" lon="6.71851">
        <ele>474.3</ele>
        <time>2024-11-20T12:30:37Z</time>
      </trkpt>
      <trkpt lat="48.23646" lon="6.71836">
        <ele>475.2</ele>
        <time>2024-11-20T12:30:44Z</time>
      </trkpt>
      <trkpt lat="48.23644" lon="6.71823">
        <ele>476.1</ele>
        <time>2024-11-20T12:30:52Z</time>
      </trkpt>
      <trkpt lat="48.23647" lon="6.71808">
        <ele>477.1</ele>
        <time>2024-11-20T12:31:00Z</time>
      </trkpt>
      <trkpt lat="48.23646" lon="6.71792">
        <ele>478.4</ele>
        <time>2024-11-20T12:31:07Z</time>
      </trkpt>
      <trkpt lat="48.23646" lon="6.71778">
        <ele>479.5</ele>
        <time>2024-11-20T12:31:15Z</time>
      </trkpt>
      <trkpt lat="48.23643" lon="6.71764">
        <ele>480.7</ele>
        <time>2024-11-20T12:31:23Z</time>
      </trkpt>
      <trkpt lat="48.23644" lon="6.7175">
        <ele>482.1</ele>
        <time>2024-11-20T12:31:31Z</time>
      </trkpt>
      <trkpt lat="48.23641" lon="6.71736">
        <ele>484.2</ele>
        <time>2024-11-20T12:31:38Z</time>
      </trkpt>
      <trkpt lat="48.23641" lon="6.71721">
        <ele>485.2</ele>
        <time>2024-11-20T12:31:46Z</time>
      </trkpt>
      <trkpt lat="48.2364" lon="6.71707">
        <ele>485.8</ele>
        <time>2024-11-20T12:31:53Z</time>
      </trkpt>
      <trkpt lat="48.2364" lon="6.71691">
        <ele>486.3</ele>
        <time>2024-11-20T12:32:01Z</time>
      </trkpt>
      <trkpt lat="48.23645" lon="6.71678">
        <ele>486.5</ele>
        <time>2024-11-20T12:32:10Z</time>
      </trkpt>
      <trkpt lat="48.23645" lon="6.71664">
        <ele>487.1</ele>
        <time>2024-11-20T12:32:17Z</time>
      </trkpt>
      <trkpt lat="48.23643" lon="6.7165">
        <ele>487.5</ele>
        <time>2024-11-20T12:32:24Z</time>
      </trkpt>
      <trkpt lat="48.23642" lon="6.71636">
        <ele>487.8</ele>
        <time>2024-11-20T12:32:32Z</time>
      </trkpt>
      <trkpt lat="48.23645" lon="6.71622">
        <ele>487.7</ele>
        <time>2024-11-20T12:32:40Z</time>
      </trkpt>
      <trkpt lat="48.2365" lon="6.71609">
        <ele>487.8</ele>
        <time>2024-11-20T12:32:49Z</time>
      </trkpt>
      <trkpt lat="48.23654" lon="6.71597">
        <ele>488.1</ele>
        <time>2024-11-20T12:32:57Z</time>
      </trkpt>
      <trkpt lat="48.23657" lon="6.71584">
        <ele>488.6</ele>
        <time>2024-11-20T12:33:04Z</time>
      </trkpt>
      <trkpt lat="48.23663" lon="6.71593">
        <ele>488.3</ele>
        <time>2024-11-20T12:33:21Z</time>
      </trkpt>
      <trkpt lat="48.23664" lon="6.71607">
        <ele>487.9</ele>
        <time>2024-11-20T12:33:51Z</time>
      </trkpt>
      <trkpt lat="48.23666" lon="6.71622">
        <ele>487.7</ele>
        <time>2024-11-20T12:33:59Z</time>
      </trkpt>
      <trkpt lat="48.23667" lon="6.71637">
        <ele>487.5</ele>
        <time>2024-11-20T12:34:07Z</time>
      </trkpt>
      <trkpt lat="48.23669" lon="6.7165">
        <ele>487.3</ele>
        <time>2024-11-20T12:34:30Z</time>
      </trkpt>
      <trkpt lat="48.23671" lon="6.71664">
        <ele>487</ele>
        <time>2024-11-20T12:34:37Z</time>
      </trkpt>
      <trkpt lat="48.23675" lon="6.71676">
        <ele>487</ele>
        <time>2024-11-20T12:34:44Z</time>
      </trkpt>
      <trkpt lat="48.23683" lon="6.71671">
        <ele>487.3</ele>
        <time>2024-11-20T12:36:53Z</time>
      </trkpt>
      <trkpt lat="48.23675" lon="6.71665">
        <ele>487.1</ele>
        <time>2024-11-20T12:37:34Z</time>
      </trkpt>
      <trkpt lat="48.23671" lon="6.71652">
        <ele>487.3</ele>
        <time>2024-11-20T12:38:02Z</time>
      </trkpt>
      <trkpt lat="48.23669" lon="6.71638">
        <ele>487.5</ele>
        <time>2024-11-20T12:38:10Z</time>
      </trkpt>
      <trkpt lat="48.23671" lon="6.71624">
        <ele>487.7</ele>
        <time>2024-11-20T12:38:16Z</time>
      </trkpt>
      <trkpt lat="48.2367" lon="6.71609">
        <ele>487.9</ele>
        <time>2024-11-20T12:38:23Z</time>
      </trkpt>
      <trkpt lat="48.23669" lon="6.71596">
        <ele>488.2</ele>
        <time>2024-11-20T12:38:29Z</time>
      </trkpt>
      <trkpt lat="48.23664" lon="6.71584">
        <ele>488.6</ele>
        <time>2024-11-20T12:38:35Z</time>
      </trkpt>
      <trkpt lat="48.23657" lon="6.71573">
        <ele>489.3</ele>
        <time>2024-11-20T12:38:40Z</time>
      </trkpt>
      <trkpt lat="48.23658" lon="6.71559">
        <ele>490.2</ele>
        <time>2024-11-20T12:38:47Z</time>
      </trkpt>
      <trkpt lat="48.2366" lon="6.71544">
        <ele>491.2</ele>
        <time>2024-11-20T12:38:55Z</time>
      </trkpt>
      <trkpt lat="48.2366" lon="6.71529">
        <ele>492.1</ele>
        <time>2024-11-20T12:39:03Z</time>
      </trkpt>
      <trkpt lat="48.23658" lon="6.71515">
        <ele>492.6</ele>
        <time>2024-11-20T12:39:10Z</time>
      </trkpt>
      <trkpt lat="48.23656" lon="6.71501">
        <ele>493</ele>
        <time>2024-11-20T12:39:17Z</time>
      </trkpt>
      <trkpt lat="48.23653" lon="6.71487">
        <ele>493.5</ele>
        <time>2024-11-20T12:39:24Z</time>
      </trkpt>
      <trkpt lat="48.23651" lon="6.71473">
        <ele>494.1</ele>
        <time>2024-11-20T12:39:31Z</time>
      </trkpt>
      <trkpt lat="48.23656" lon="6.71461">
        <ele>494.9</ele>
        <time>2024-11-20T12:39:39Z</time>
      </trkpt>
      <trkpt lat="48.23666" lon="6.71462">
        <ele>495.2</ele>
        <time>2024-11-20T12:39:47Z</time>
      </trkpt>
      <trkpt lat="48.23675" lon="6.71468">
        <ele>494.9</ele>
        <time>2024-11-20T12:39:54Z</time>
      </trkpt>
      <trkpt lat="48.23682" lon="6.71478">
        <ele>494.6</ele>
        <time>2024-11-20T12:40:02Z</time>
      </trkpt>
      <trkpt lat="48.2369" lon="6.71486">
        <ele>494.3</ele>
        <time>2024-11-20T12:40:10Z</time>
      </trkpt>
      <trkpt lat="48.23697" lon="6.71493">
        <ele>493.7</ele>
        <time>2024-11-20T12:40:17Z</time>
      </trkpt>
      <trkpt lat="48.23706" lon="6.71499">
        <ele>493.3</ele>
        <time>2024-11-20T12:40:27Z</time>
      </trkpt>
      <trkpt lat="48.23716" lon="6.71497">
        <ele>493.4</ele>
        <time>2024-11-20T12:40:35Z</time>
      </trkpt>
      <trkpt lat="48.23725" lon="6.71493">
        <ele>493.8</ele>
        <time>2024-11-20T12:40:43Z</time>
      </trkpt>
      <trkpt lat="48.23733" lon="6.71486">
        <ele>494.4</ele>
        <time>2024-11-20T12:40:50Z</time>
      </trkpt>
      <trkpt lat="48.23742" lon="6.7148">
        <ele>494.8</ele>
        <time>2024-11-20T12:40:57Z</time>
      </trkpt>
      <trkpt lat="48.23751" lon="6.71475">
        <ele>495.6</ele>
        <time>2024-11-20T12:41:04Z</time>
      </trkpt>
      <trkpt lat="48.2376" lon="6.71476">
        <ele>495.3</ele>
        <time>2024-11-20T12:41:12Z</time>
      </trkpt>
      <trkpt lat="48.23768" lon="6.71484">
        <ele>494.9</ele>
        <time>2024-11-20T12:41:20Z</time>
      </trkpt>
      <trkpt lat="48.23776" lon="6.71492">
        <ele>494.8</ele>
        <time>2024-11-20T12:41:27Z</time>
      </trkpt>
      <trkpt lat="48.23785" lon="6.71501">
        <ele>494.7</ele>
        <time>2024-11-20T12:41:35Z</time>
      </trkpt>
      <trkpt lat="48.23792" lon="6.71508">
        <ele>494.5</ele>
        <time>2024-11-20T12:41:42Z</time>
      </trkpt>
      <trkpt lat="48.238" lon="6.71516">
        <ele>494.4</ele>
        <time>2024-11-20T12:41:49Z</time>
      </trkpt>
      <trkpt lat="48.23805" lon="6.71527">
        <ele>494.4</ele>
        <time>2024-11-20T12:44:40Z</time>
      </trkpt>
      <trkpt lat="48.23815" lon="6.71523">
        <ele>494.3</ele>
        <time>2024-11-20T12:47:09Z</time>
      </trkpt>
      <trkpt lat="48.23824" lon="6.71525">
        <ele>494.5</ele>
        <time>2024-11-20T12:47:16Z</time>
      </trkpt>
      <trkpt lat="48.23833" lon="6.7153">
        <ele>494.7</ele>
        <time>2024-11-20T12:47:23Z</time>
      </trkpt>
      <trkpt lat="48.23841" lon="6.71537">
        <ele>494.9</ele>
        <time>2024-11-20T12:47:30Z</time>
      </trkpt>
      <trkpt lat="48.23852" lon="6.71537">
        <ele>495.2</ele>
        <time>2024-11-20T12:47:37Z</time>
      </trkpt>
      <trkpt lat="48.23861" lon="6.71538">
        <ele>495.2</ele>
        <time>2024-11-20T12:47:43Z</time>
      </trkpt>
      <trkpt lat="48.2387" lon="6.71537">
        <ele>495.1</ele>
        <time>2024-11-20T12:47:50Z</time>
      </trkpt>
      <trkpt lat="48.2388" lon="6.71534">
        <ele>495.1</ele>
        <time>2024-11-20T12:47:57Z</time>
      </trkpt>
      <trkpt lat="48.23889" lon="6.71531">
        <ele>495</ele>
        <time>2024-11-20T12:48:04Z</time>
      </trkpt>
      <trkpt lat="48.239" lon="6.71529">
        <ele>494.9</ele>
        <time>2024-11-20T12:48:12Z</time>
      </trkpt>
      <trkpt lat="48.23909" lon="6.71526">
        <ele>494.8</ele>
        <time>2024-11-20T12:48:19Z</time>
      </trkpt>
      <trkpt lat="48.23919" lon="6.71521">
        <ele>494.7</ele>
        <time>2024-11-20T12:48:26Z</time>
      </trkpt>
      <trkpt lat="48.23928" lon="6.71515">
        <ele>494.6</ele>
        <time>2024-11-20T12:48:33Z</time>
      </trkpt>
      <trkpt lat="48.23936" lon="6.71507">
        <ele>494.9</ele>
        <time>2024-11-20T12:48:39Z</time>
      </trkpt>
      <trkpt lat="48.23945" lon="6.71501">
        <ele>494.7</ele>
        <time>2024-11-20T12:48:46Z</time>
      </trkpt>
      <trkpt lat="48.23953" lon="6.71492">
        <ele>494.9</ele>
        <time>2024-11-20T12:48:53Z</time>
      </trkpt>
      <trkpt lat="48.2396" lon="6.71482">
        <ele>495.2</ele>
        <time>2024-11-20T12:49:00Z</time>
      </trkpt>
      <trkpt lat="48.23968" lon="6.71473">
        <ele>495.9</ele>
        <time>2024-11-20T12:49:08Z</time>
      </trkpt>
      <trkpt lat="48.23974" lon="6.71461">
        <ele>497.1</ele>
        <time>2024-11-20T12:49:14Z</time>
      </trkpt>
      <trkpt lat="48.23979" lon="6.71448">
        <ele>497.8</ele>
        <time>2024-11-20T12:49:52Z</time>
      </trkpt>
      <trkpt lat="48.23987" lon="6.7144">
        <ele>497.9</ele>
        <time>2024-11-20T12:50:02Z</time>
      </trkpt>
      <trkpt lat="48.23996" lon="6.71438">
        <ele>497.5</ele>
        <time>2024-11-20T12:50:09Z</time>
      </trkpt>
      <trkpt lat="48.24005" lon="6.71436">
        <ele>497.1</ele>
        <time>2024-11-20T12:50:17Z</time>
      </trkpt>
      <trkpt lat="48.24014" lon="6.71431">
        <ele>496.7</ele>
        <time>2024-11-20T12:50:25Z</time>
      </trkpt>
      <trkpt lat="48.24023" lon="6.71426">
        <ele>496.8</ele>
        <time>2024-11-20T12:50:32Z</time>
      </trkpt>
      <trkpt lat="48.24031" lon="6.71417">
        <ele>497.2</ele>
        <time>2024-11-20T12:50:39Z</time>
      </trkpt>
      <trkpt lat="48.24037" lon="6.71407">
        <ele>497.5</ele>
        <time>2024-11-20T12:50:45Z</time>
      </trkpt>
      <trkpt lat="48.24028" lon="6.71404">
        <ele>497.4</ele>
        <time>2024-11-20T12:52:43Z</time>
      </trkpt>
      <trkpt lat="48.24022" lon="6.71414">
        <ele>497</ele>
        <time>2024-11-20T12:52:50Z</time>
      </trkpt>
      <trkpt lat="48.24014" lon="6.71423">
        <ele>496.9</ele>
        <time>2024-11-20T12:52:57Z</time>
      </trkpt>
      <trkpt lat="48.24005" lon="6.71428">
        <ele>497.1</ele>
        <time>2024-11-20T12:53:10Z</time>
      </trkpt>
      <trkpt lat="48.23995" lon="6.7143">
        <ele>497.7</ele>
        <time>2024-11-20T12:53:17Z</time>
      </trkpt>
      <trkpt lat="48.23985" lon="6.71433">
        <ele>498.1</ele>
        <time>2024-11-20T12:53:24Z</time>
      </trkpt>
      <trkpt lat="48.23975" lon="6.71436">
        <ele>498.5</ele>
        <time>2024-11-20T12:53:30Z</time>
      </trkpt>
      <trkpt lat="48.23969" lon="6.71446">
        <ele>497.9</ele>
        <time>2024-11-20T12:53:36Z</time>
      </trkpt>
      <trkpt lat="48.23962" lon="6.71457">
        <ele>497.5</ele>
        <time>2024-11-20T12:53:43Z</time>
      </trkpt>
      <trkpt lat="48.23955" lon="6.71468">
        <ele>496.5</ele>
        <time>2024-11-20T12:53:50Z</time>
      </trkpt>
      <trkpt lat="48.23948" lon="6.71478">
        <ele>496</ele>
        <time>2024-11-20T12:53:56Z</time>
      </trkpt>
      <trkpt lat="48.23939" lon="6.71487">
        <ele>495.9</ele>
        <time>2024-11-20T12:54:02Z</time>
      </trkpt>
      <trkpt lat="48.23929" lon="6.71493">
        <ele>495.8</ele>
        <time>2024-11-20T12:54:09Z</time>
      </trkpt>
      <trkpt lat="48.23921" lon="6.71501">
        <ele>495.5</ele>
        <time>2024-11-20T12:54:17Z</time>
      </trkpt>
      <trkpt lat="48.23914" lon="6.71509">
        <ele>495.1</ele>
        <time>2024-11-20T12:54:28Z</time>
      </trkpt>
      <trkpt lat="48.23904" lon="6.71513">
        <ele>495.3</ele>
        <time>2024-11-20T12:54:36Z</time>
      </trkpt>
      <trkpt lat="48.23894" lon="6.71517">
        <ele>495.3</ele>
        <time>2024-11-20T12:54:43Z</time>
      </trkpt>
      <trkpt lat="48.23885" lon="6.7152">
        <ele>495.4</ele>
        <time>2024-11-20T12:54:50Z</time>
      </trkpt>
      <trkpt lat="48.23875" lon="6.71523">
        <ele>495.4</ele>
        <time>2024-11-20T12:54:58Z</time>
      </trkpt>
      <trkpt lat="48.23866" lon="6.71527">
        <ele>495.3</ele>
        <time>2024-11-20T12:55:05Z</time>
      </trkpt>
      <trkpt lat="48.23857" lon="6.71527">
        <ele>495.4</ele>
        <time>2024-11-20T12:55:12Z</time>
      </trkpt>
      <trkpt lat="48.23848" lon="6.71528">
        <ele>495.2</ele>
        <time>2024-11-20T12:55:20Z</time>
      </trkpt>
      <trkpt lat="48.23839" lon="6.7153">
        <ele>494.9</ele>
        <time>2024-11-20T12:55:27Z</time>
      </trkpt>
      <trkpt lat="48.2383" lon="6.71524">
        <ele>494.6</ele>
        <time>2024-11-20T12:55:35Z</time>
      </trkpt>
      <trkpt lat="48.23821" lon="6.71519">
        <ele>494.4</ele>
        <time>2024-11-20T12:55:43Z</time>
      </trkpt>
      <trkpt lat="48.23811" lon="6.71521">
        <ele>494.3</ele>
        <time>2024-11-20T12:55:51Z</time>
      </trkpt>
      <trkpt lat="48.23805" lon="6.71532">
        <ele>494.5</ele>
        <time>2024-11-20T12:56:04Z</time>
      </trkpt>
      <trkpt lat="48.23806" lon="6.71546">
        <ele>494.5</ele>
        <time>2024-11-20T12:56:14Z</time>
      </trkpt>
      <trkpt lat="48.23807" lon="6.71561">
        <ele>494.6</ele>
        <time>2024-11-20T12:56:54Z</time>
      </trkpt>
      <trkpt lat="48.23808" lon="6.71574">
        <ele>494.5</ele>
        <time>2024-11-20T12:57:01Z</time>
      </trkpt>
      <trkpt lat="48.23808" lon="6.71589">
        <ele>494.4</ele>
        <time>2024-11-20T12:57:26Z</time>
      </trkpt>
      <trkpt lat="48.23809" lon="6.71603">
        <ele>494.3</ele>
        <time>2024-11-20T12:57:33Z</time>
      </trkpt>
      <trkpt lat="48.2381" lon="6.71617">
        <ele>494.3</ele>
        <time>2024-11-20T12:57:41Z</time>
      </trkpt>
      <trkpt lat="48.23812" lon="6.71631">
        <ele>494.3</ele>
        <time>2024-11-20T12:57:49Z</time>
      </trkpt>
      <trkpt lat="48.23816" lon="6.71645">
        <ele>494.2</ele>
        <time>2024-11-20T12:57:56Z</time>
      </trkpt>
      <trkpt lat="48.2382" lon="6.71658">
        <ele>493.9</ele>
        <time>2024-11-20T12:58:03Z</time>
      </trkpt>
      <trkpt lat="48.23825" lon="6.7167">
        <ele>494</ele>
        <time>2024-11-20T12:58:10Z</time>
      </trkpt>
      <trkpt lat="48.23829" lon="6.71683">
        <ele>494</ele>
        <time>2024-11-20T12:58:17Z</time>
      </trkpt>
      <trkpt lat="48.23834" lon="6.71696">
        <ele>494.3</ele>
        <time>2024-11-20T12:58:24Z</time>
      </trkpt>
      <trkpt lat="48.23839" lon="6.71708">
        <ele>495</ele>
        <time>2024-11-20T12:58:31Z</time>
      </trkpt>
      <trkpt lat="48.23844" lon="6.7172">
        <ele>495.6</ele>
        <time>2024-11-20T12:58:38Z</time>
      </trkpt>
      <trkpt lat="48.23849" lon="6.71732">
        <ele>496.4</ele>
        <time>2024-11-20T12:58:45Z</time>
      </trkpt>
      <trkpt lat="48.23853" lon="6.71745">
        <ele>497.2</ele>
        <time>2024-11-20T12:58:52Z</time>
      </trkpt>
      <trkpt lat="48.23859" lon="6.71757">
        <ele>498</ele>
        <time>2024-11-20T12:58:59Z</time>
      </trkpt>
      <trkpt lat="48.23865" lon="6.71768">
        <ele>498.7</ele>
        <time>2024-11-20T12:59:05Z</time>
      </trkpt>
      <trkpt lat="48.2387" lon="6.71781">
        <ele>499.6</ele>
        <time>2024-11-20T12:59:12Z</time>
      </trkpt>
      <trkpt lat="48.23874" lon="6.71793">
        <ele>500.6</ele>
        <time>2024-11-20T12:59:18Z</time>
      </trkpt>
      <trkpt lat="48.2388" lon="6.71806">
        <ele>501.4</ele>
        <time>2024-11-20T12:59:25Z</time>
      </trkpt>
      <trkpt lat="48.23886" lon="6.71817">
        <ele>501.4</ele>
        <time>2024-11-20T12:59:32Z</time>
      </trkpt>
      <trkpt lat="48.23893" lon="6.71828">
        <ele>501.2</ele>
        <time>2024-11-20T12:59:39Z</time>
      </trkpt>
      <trkpt lat="48.23901" lon="6.71838">
        <ele>500.5</ele>
        <time>2024-11-20T12:59:46Z</time>
      </trkpt>
      <trkpt lat="48.23908" lon="6.71848">
        <ele>500</ele>
        <time>2024-11-20T12:59:53Z</time>
      </trkpt>
      <trkpt lat="48.23915" lon="6.71856">
        <ele>499.1</ele>
        <time>2024-11-20T12:59:59Z</time>
      </trkpt>
      <trkpt lat="48.23922" lon="6.71866">
        <ele>498.5</ele>
        <time>2024-11-20T13:00:06Z</time>
      </trkpt>
      <trkpt lat="48.2393" lon="6.71875">
        <ele>497.2</ele>
        <time>2024-11-20T13:00:13Z</time>
      </trkpt>
      <trkpt lat="48.23938" lon="6.71882">
        <ele>495</ele>
        <time>2024-11-20T13:00:19Z</time>
      </trkpt>
      <trkpt lat="48.23946" lon="6.7189">
        <ele>493.1</ele>
        <time>2024-11-20T13:00:26Z</time>
      </trkpt>
      <trkpt lat="48.23954" lon="6.71898">
        <ele>492.1</ele>
        <time>2024-11-20T13:00:32Z</time>
      </trkpt>
      <trkpt lat="48.23958" lon="6.71911">
        <ele>491.6</ele>
        <time>2024-11-20T13:00:39Z</time>
      </trkpt>
      <trkpt lat="48.23966" lon="6.71919">
        <ele>490.5</ele>
        <time>2024-11-20T13:00:45Z</time>
      </trkpt>
      <trkpt lat="48.23972" lon="6.7193">
        <ele>490.3</ele>
        <time>2024-11-20T13:00:52Z</time>
      </trkpt>
      <trkpt lat="48.23976" lon="6.71943">
        <ele>491</ele>
        <time>2024-11-20T13:00:59Z</time>
      </trkpt>
      <trkpt lat="48.23979" lon="6.71957">
        <ele>491.9</ele>
        <time>2024-11-20T13:01:06Z</time>
      </trkpt>
      <trkpt lat="48.23981" lon="6.71971">
        <ele>492.7</ele>
        <time>2024-11-20T13:01:13Z</time>
      </trkpt>
      <trkpt lat="48.23983" lon="6.71986">
        <ele>493.1</ele>
        <time>2024-11-20T13:01:20Z</time>
      </trkpt>
      <trkpt lat="48.23984" lon="6.71999">
        <ele>494.1</ele>
        <time>2024-11-20T13:01:27Z</time>
      </trkpt>
      <trkpt lat="48.23985" lon="6.72014">
        <ele>494.7</ele>
        <time>2024-11-20T13:01:34Z</time>
      </trkpt>
      <trkpt lat="48.23986" lon="6.72028">
        <ele>494.6</ele>
        <time>2024-11-20T13:01:41Z</time>
      </trkpt>
      <trkpt lat="48.23987" lon="6.72043">
        <ele>495.4</ele>
        <time>2024-11-20T13:01:48Z</time>
      </trkpt>
      <trkpt lat="48.23987" lon="6.72057">
        <ele>496.4</ele>
        <time>2024-11-20T13:01:56Z</time>
      </trkpt>
      <trkpt lat="48.23985" lon="6.7207">
        <ele>498</ele>
        <time>2024-11-20T13:02:03Z</time>
      </trkpt>
      <trkpt lat="48.23982" lon="6.72084">
        <ele>499.2</ele>
        <time>2024-11-20T13:02:11Z</time>
      </trkpt>
      <trkpt lat="48.23982" lon="6.72099">
        <ele>499.8</ele>
        <time>2024-11-20T13:02:18Z</time>
      </trkpt>
      <trkpt lat="48.23981" lon="6.72113">
        <ele>500</ele>
        <time>2024-11-20T13:02:25Z</time>
      </trkpt>
      <trkpt lat="48.23979" lon="6.72128">
        <ele>500.6</ele>
        <time>2024-11-20T13:02:32Z</time>
      </trkpt>
      <trkpt lat="48.2398" lon="6.72143">
        <ele>500.3</ele>
        <time>2024-11-20T13:02:39Z</time>
      </trkpt>
      <trkpt lat="48.23979" lon="6.72157">
        <ele>500.9</ele>
        <time>2024-11-20T13:02:47Z</time>
      </trkpt>
      <trkpt lat="48.23981" lon="6.72172">
        <ele>500.5</ele>
        <time>2024-11-20T13:02:55Z</time>
      </trkpt>
      <trkpt lat="48.23984" lon="6.72185">
        <ele>500.1</ele>
        <time>2024-11-20T13:03:02Z</time>
      </trkpt>
      <trkpt lat="48.23988" lon="6.72198">
        <ele>499.4</ele>
        <time>2024-11-20T13:03:08Z</time>
      </trkpt>
      <trkpt lat="48.23994" lon="6.72211">
        <ele>498.6</ele>
        <time>2024-11-20T13:03:16Z</time>
      </trkpt>
      <trkpt lat="48.23998" lon="6.72224">
        <ele>498.6</ele>
        <time>2024-11-20T13:03:23Z</time>
      </trkpt>
      <trkpt lat="48.24003" lon="6.72235">
        <ele>498</ele>
        <time>2024-11-20T13:03:30Z</time>
      </trkpt>
      <trkpt lat="48.24008" lon="6.72247">
        <ele>497.3</ele>
        <time>2024-11-20T13:03:38Z</time>
      </trkpt>
      <trkpt lat="48.24013" lon="6.72259">
        <ele>497.6</ele>
        <time>2024-11-20T13:03:52Z</time>
      </trkpt>
      <trkpt lat="48.2402" lon="6.72268">
        <ele>496.5</ele>
        <time>2024-11-20T13:04:00Z</time>
      </trkpt>
      <trkpt lat="48.24026" lon="6.72281">
        <ele>496.3</ele>
        <time>2024-11-20T13:04:08Z</time>
      </trkpt>
      <trkpt lat="48.24031" lon="6.72293">
        <ele>495.8</ele>
        <time>2024-11-20T13:04:28Z</time>
      </trkpt>
      <trkpt lat="48.24036" lon="6.72306">
        <ele>495.9</ele>
        <time>2024-11-20T13:04:36Z</time>
      </trkpt>
      <trkpt lat="48.24041" lon="6.72318">
        <ele>495.5</ele>
        <time>2024-11-20T13:04:43Z</time>
      </trkpt>
      <trkpt lat="48.24046" lon="6.7233">
        <ele>495.1</ele>
        <time>2024-11-20T13:04:51Z</time>
      </trkpt>
      <trkpt lat="48.2405" lon="6.72342">
        <ele>494.9</ele>
        <time>2024-11-20T13:07:29Z</time>
      </trkpt>
      <trkpt lat="48.24057" lon="6.72353">
        <ele>494.3</ele>
        <time>2024-11-20T13:07:37Z</time>
      </trkpt>
      <trkpt lat="48.24063" lon="6.72364">
        <ele>494.2</ele>
        <time>2024-11-20T13:07:44Z</time>
      </trkpt>
      <trkpt lat="48.2407" lon="6.72374">
        <ele>493.9</ele>
        <time>2024-11-20T13:07:51Z</time>
      </trkpt>
      <trkpt lat="48.24078" lon="6.72381">
        <ele>493.3</ele>
        <time>2024-11-20T13:07:58Z</time>
      </trkpt>
      <trkpt lat="48.24086" lon="6.72389">
        <ele>492.9</ele>
        <time>2024-11-20T13:08:06Z</time>
      </trkpt>
      <trkpt lat="48.24094" lon="6.72397">
        <ele>492.7</ele>
        <time>2024-11-20T13:08:14Z</time>
      </trkpt>
      <trkpt lat="48.24103" lon="6.724">
        <ele>492.4</ele>
        <time>2024-11-20T13:08:21Z</time>
      </trkpt>
      <trkpt lat="48.24113" lon="6.72403">
        <ele>492.1</ele>
        <time>2024-11-20T13:08:29Z</time>
      </trkpt>
      <trkpt lat="48.24122" lon="6.72408">
        <ele>491.9</ele>
        <time>2024-11-20T13:08:36Z</time>
      </trkpt>
      <trkpt lat="48.2413" lon="6.72412">
        <ele>492</ele>
        <time>2024-11-20T13:08:43Z</time>
      </trkpt>
      <trkpt lat="48.2414" lon="6.72416">
        <ele>492</ele>
        <time>2024-11-20T13:08:50Z</time>
      </trkpt>
      <trkpt lat="48.24149" lon="6.72421">
        <ele>492</ele>
        <time>2024-11-20T13:08:58Z</time>
      </trkpt>
      <trkpt lat="48.24157" lon="6.72426">
        <ele>491.8</ele>
        <time>2024-11-20T13:09:05Z</time>
      </trkpt>
      <trkpt lat="48.24166" lon="6.72431">
        <ele>491.5</ele>
        <time>2024-11-20T13:09:12Z</time>
      </trkpt>
      <trkpt lat="48.24175" lon="6.72436">
        <ele>490.9</ele>
        <time>2024-11-20T13:09:20Z</time>
      </trkpt>
      <trkpt lat="48.24183" lon="6.72443">
        <ele>490.2</ele>
        <time>2024-11-20T13:09:27Z</time>
      </trkpt>
      <trkpt lat="48.24191" lon="6.72451">
        <ele>489.2</ele>
        <time>2024-11-20T13:09:35Z</time>
      </trkpt>
      <trkpt lat="48.24199" lon="6.7246">
        <ele>488.5</ele>
        <time>2024-11-20T13:09:42Z</time>
      </trkpt>
      <trkpt lat="48.24206" lon="6.7247">
        <ele>487.6</ele>
        <time>2024-11-20T13:09:49Z</time>
      </trkpt>
      <trkpt lat="48.24213" lon="6.7248">
        <ele>487.5</ele>
        <time>2024-11-20T13:09:56Z</time>
      </trkpt>
      <trkpt lat="48.2422" lon="6.7249">
        <ele>486.7</ele>
        <time>2024-11-20T13:10:03Z</time>
      </trkpt>
      <trkpt lat="48.24226" lon="6.725">
        <ele>485</ele>
        <time>2024-11-20T13:10:11Z</time>
      </trkpt>
      <trkpt lat="48.24232" lon="6.72512">
        <ele>484</ele>
        <time>2024-11-20T13:10:19Z</time>
      </trkpt>
      <trkpt lat="48.2424" lon="6.72521">
        <ele>483.3</ele>
        <time>2024-11-20T13:10:27Z</time>
      </trkpt>
      <trkpt lat="48.24246" lon="6.72533">
        <ele>482.3</ele>
        <time>2024-11-20T13:10:35Z</time>
      </trkpt>
      <trkpt lat="48.24254" lon="6.72544">
        <ele>481.5</ele>
        <time>2024-11-20T13:10:43Z</time>
      </trkpt>
      <trkpt lat="48.24261" lon="6.72555">
        <ele>480.6</ele>
        <time>2024-11-20T13:10:50Z</time>
      </trkpt>
      <trkpt lat="48.24268" lon="6.72566">
        <ele>479.8</ele>
        <time>2024-11-20T13:10:57Z</time>
      </trkpt>
      <trkpt lat="48.24276" lon="6.72575">
        <ele>478.9</ele>
        <time>2024-11-20T13:11:04Z</time>
      </trkpt>
      <trkpt lat="48.24282" lon="6.72585">
        <ele>478.3</ele>
        <time>2024-11-20T13:11:11Z</time>
      </trkpt>
      <trkpt lat="48.24289" lon="6.72595">
        <ele>477.7</ele>
        <time>2024-11-20T13:11:18Z</time>
      </trkpt>
      <trkpt lat="48.24296" lon="6.72605">
        <ele>477.1</ele>
        <time>2024-11-20T13:11:26Z</time>
      </trkpt>
      <trkpt lat="48.24304" lon="6.72614">
        <ele>476.4</ele>
        <time>2024-11-20T13:11:34Z</time>
      </trkpt>
      <trkpt lat="48.24312" lon="6.72623">
        <ele>475.7</ele>
        <time>2024-11-20T13:11:42Z</time>
      </trkpt>
      <trkpt lat="48.24319" lon="6.7263">
        <ele>475.2</ele>
        <time>2024-11-20T13:11:49Z</time>
      </trkpt>
      <trkpt lat="48.24327" lon="6.72638">
        <ele>474.7</ele>
        <time>2024-11-20T13:11:57Z</time>
      </trkpt>
      <trkpt lat="48.24334" lon="6.72646">
        <ele>474.2</ele>
        <time>2024-11-20T13:12:05Z</time>
      </trkpt>
      <trkpt lat="48.24342" lon="6.72657">
        <ele>474.1</ele>
        <time>2024-11-20T13:12:13Z</time>
      </trkpt>
      <trkpt lat="48.24349" lon="6.72667">
        <ele>473.9</ele>
        <time>2024-11-20T13:12:21Z</time>
      </trkpt>
      <trkpt lat="48.24352" lon="6.72681">
        <ele>473.5</ele>
        <time>2024-11-20T13:12:29Z</time>
      </trkpt>
      <trkpt lat="48.24344" lon="6.72687">
        <ele>473.5</ele>
        <time>2024-11-20T13:12:38Z</time>
      </trkpt>
      <trkpt lat="48.24335" lon="6.72683">
        <ele>473.6</ele>
        <time>2024-11-20T13:12:46Z</time>
      </trkpt>
      <trkpt lat="48.24326" lon="6.72675">
        <ele>473.7</ele>
        <time>2024-11-20T13:12:53Z</time>
      </trkpt>
      <trkpt lat="48.24318" lon="6.72669">
        <ele>473.5</ele>
        <time>2024-11-20T13:12:59Z</time>
      </trkpt>
      <trkpt lat="48.24309" lon="6.72663">
        <ele>473.7</ele>
        <time>2024-11-20T13:13:05Z</time>
      </trkpt>
      <trkpt lat="48.243" lon="6.72658">
        <ele>473.5</ele>
        <time>2024-11-20T13:13:13Z</time>
      </trkpt>
      <trkpt lat="48.24291" lon="6.72656">
        <ele>472.6</ele>
        <time>2024-11-20T13:13:20Z</time>
      </trkpt>
      <trkpt lat="48.24281" lon="6.72657">
        <ele>471.6</ele>
        <time>2024-11-20T13:13:28Z</time>
      </trkpt>
      <trkpt lat="48.24272" lon="6.72661">
        <ele>469.7</ele>
        <time>2024-11-20T13:13:36Z</time>
      </trkpt>
      <trkpt lat="48.24263" lon="6.7267">
        <ele>466.6</ele>
        <time>2024-11-20T13:13:44Z</time>
      </trkpt>
      <trkpt lat="48.24256" lon="6.72679">
        <ele>463.1</ele>
        <time>2024-11-20T13:13:53Z</time>
      </trkpt>
      <trkpt lat="48.24246" lon="6.72681">
        <ele>460.2</ele>
        <time>2024-11-20T13:14:03Z</time>
      </trkpt>
      <trkpt lat="48.24237" lon="6.72682">
        <ele>458.6</ele>
        <time>2024-11-20T13:14:16Z</time>
      </trkpt>
      <trkpt lat="48.24228" lon="6.72678">
        <ele>457.6</ele>
        <time>2024-11-20T13:14:26Z</time>
      </trkpt>
      <trkpt lat="48.24218" lon="6.72676">
        <ele>457.1</ele>
        <time>2024-11-20T13:14:34Z</time>
      </trkpt>
      <trkpt lat="48.24209" lon="6.72675">
        <ele>455.5</ele>
        <time>2024-11-20T13:14:41Z</time>
      </trkpt>
      <trkpt lat="48.24199" lon="6.72675">
        <ele>453.4</ele>
        <time>2024-11-20T13:14:49Z</time>
      </trkpt>
      <trkpt lat="48.2419" lon="6.72673">
        <ele>451.6</ele>
        <time>2024-11-20T13:14:57Z</time>
      </trkpt>
      <trkpt lat="48.2418" lon="6.7267">
        <ele>451.3</ele>
        <time>2024-11-20T13:15:06Z</time>
      </trkpt>
      <trkpt lat="48.2417" lon="6.72666">
        <ele>450.3</ele>
        <time>2024-11-20T13:15:14Z</time>
      </trkpt>
      <trkpt lat="48.24161" lon="6.72663">
        <ele>449.7</ele>
        <time>2024-11-20T13:15:24Z</time>
      </trkpt>
      <trkpt lat="48.24151" lon="6.7266">
        <ele>448.2</ele>
        <time>2024-11-20T13:15:32Z</time>
      </trkpt>
      <trkpt lat="48.24141" lon="6.72656">
        <ele>447.8</ele>
        <time>2024-11-20T13:15:42Z</time>
      </trkpt>
      <trkpt lat="48.24133" lon="6.72652">
        <ele>448.2</ele>
        <time>2024-11-20T13:15:49Z</time>
      </trkpt>
      <trkpt lat="48.24124" lon="6.72649">
        <ele>448.8</ele>
        <time>2024-11-20T13:15:56Z</time>
      </trkpt>
      <trkpt lat="48.24114" lon="6.72644">
        <ele>449.6</ele>
        <time>2024-11-20T13:16:05Z</time>
      </trkpt>
      <trkpt lat="48.24106" lon="6.72638">
        <ele>450.7</ele>
        <time>2024-11-20T13:16:12Z</time>
      </trkpt>
      <trkpt lat="48.24096" lon="6.72634">
        <ele>452.5</ele>
        <time>2024-11-20T13:16:20Z</time>
      </trkpt>
      <trkpt lat="48.24085" lon="6.72632">
        <ele>454.9</ele>
        <time>2024-11-20T13:16:30Z</time>
      </trkpt>
      <trkpt lat="48.24075" lon="6.72633">
        <ele>456.4</ele>
        <time>2024-11-20T13:16:38Z</time>
      </trkpt>
      <trkpt lat="48.24066" lon="6.72633">
        <ele>457.5</ele>
        <time>2024-11-20T13:16:46Z</time>
      </trkpt>
      <trkpt lat="48.24054" lon="6.72639">
        <ele>456.2</ele>
        <time>2024-11-20T13:16:54Z</time>
      </trkpt>
      <trkpt lat="48.24045" lon="6.72641">
        <ele>457.6</ele>
        <time>2024-11-20T13:17:03Z</time>
      </trkpt>
      <trkpt lat="48.24037" lon="6.72645">
        <ele>458.2</ele>
        <time>2024-11-20T13:17:12Z</time>
      </trkpt>
      <trkpt lat="48.2403" lon="6.72657">
        <ele>456.3</ele>
        <time>2024-11-20T13:17:18Z</time>
      </trkpt>
      <trkpt lat="48.24028" lon="6.7267">
        <ele>454</ele>
        <time>2024-11-20T13:17:25Z</time>
      </trkpt>
      <trkpt lat="48.24026" lon="6.72686">
        <ele>449.8</ele>
        <time>2024-11-20T13:17:34Z</time>
      </trkpt>
      <trkpt lat="48.24029" lon="6.727">
        <ele>445.8</ele>
        <time>2024-11-20T13:17:41Z</time>
      </trkpt>
      <trkpt lat="48.24029" lon="6.72714">
        <ele>443.1</ele>
        <time>2024-11-20T13:17:48Z</time>
      </trkpt>
      <trkpt lat="48.24031" lon="6.72728">
        <ele>440.3</ele>
        <time>2024-11-20T13:17:54Z</time>
      </trkpt>
      <trkpt lat="48.24033" lon="6.72742">
        <ele>436.2</ele>
        <time>2024-11-20T13:18:01Z</time>
      </trkpt>
      <trkpt lat="48.2403" lon="6.72756">
        <ele>435.3</ele>
        <time>2024-11-20T13:18:09Z</time>
      </trkpt>
      <trkpt lat="48.2403" lon="6.72771">
        <ele>433.2</ele>
        <time>2024-11-20T13:18:16Z</time>
      </trkpt>
      <trkpt lat="48.24029" lon="6.72786">
        <ele>430.3</ele>
        <time>2024-11-20T13:18:23Z</time>
      </trkpt>
      <trkpt lat="48.24024" lon="6.728">
        <ele>430.7</ele>
        <time>2024-11-20T13:18:30Z</time>
      </trkpt>
      <trkpt lat="48.24025" lon="6.72815">
        <ele>428.9</ele>
        <time>2024-11-20T13:18:38Z</time>
      </trkpt>
      <trkpt lat="48.24026" lon="6.72828">
        <ele>426.7</ele>
        <time>2024-11-20T13:18:44Z</time>
      </trkpt>
      <trkpt lat="48.24026" lon="6.72842">
        <ele>425.8</ele>
        <time>2024-11-20T13:18:51Z</time>
      </trkpt>
      <trkpt lat="48.24026" lon="6.72856">
        <ele>424.9</ele>
        <time>2024-11-20T13:18:57Z</time>
      </trkpt>
      <trkpt lat="48.24029" lon="6.72871">
        <ele>422.7</ele>
        <time>2024-11-20T13:19:05Z</time>
      </trkpt>
      <trkpt lat="48.24032" lon="6.72884">
        <ele>421.4</ele>
        <time>2024-11-20T13:19:14Z</time>
      </trkpt>
      <trkpt lat="48.24032" lon="6.72899">
        <ele>421.3</ele>
        <time>2024-11-20T13:19:21Z</time>
      </trkpt>
      <trkpt lat="48.24035" lon="6.72912">
        <ele>420.3</ele>
        <time>2024-11-20T13:19:28Z</time>
      </trkpt>
      <trkpt lat="48.24041" lon="6.72924">
        <ele>418.7</ele>
        <time>2024-11-20T13:19:36Z</time>
      </trkpt>
      <trkpt lat="48.24045" lon="6.72937">
        <ele>418</ele>
        <time>2024-11-20T13:19:43Z</time>
      </trkpt>
      <trkpt lat="48.24049" lon="6.7295">
        <ele>416.5</ele>
        <time>2024-11-20T13:19:51Z</time>
      </trkpt>
      <trkpt lat="48.24053" lon="6.72962">
        <ele>415.7</ele>
        <time>2024-11-20T13:19:59Z</time>
      </trkpt>
      <trkpt lat="48.24059" lon="6.72974">
        <ele>414.3</ele>
        <time>2024-11-20T13:20:08Z</time>
      </trkpt>
      <trkpt lat="48.24065" lon="6.72986">
        <ele>413</ele>
        <time>2024-11-20T13:20:17Z</time>
      </trkpt>
      <trkpt lat="48.24071" lon="6.72997">
        <ele>411.6</ele>
        <time>2024-11-20T13:20:25Z</time>
      </trkpt>
      <trkpt lat="48.24077" lon="6.73007">
        <ele>409.1</ele>
        <time>2024-11-20T13:20:32Z</time>
      </trkpt>
      <trkpt lat="48.2408" lon="6.73021">
        <ele>407.6</ele>
        <time>2024-11-20T13:20:40Z</time>
      </trkpt>
      <trkpt lat="48.24084" lon="6.73033">
        <ele>406</ele>
        <time>2024-11-20T13:20:48Z</time>
      </trkpt>
      <trkpt lat="48.24088" lon="6.73047">
        <ele>403.4</ele>
        <time>2024-11-20T13:20:57Z</time>
      </trkpt>
      <trkpt lat="48.24093" lon="6.73061">
        <ele>401.4</ele>
        <time>2024-11-20T13:21:05Z</time>
      </trkpt>
      <trkpt lat="48.24094" lon="6.73075">
        <ele>399.3</ele>
        <time>2024-11-20T13:21:12Z</time>
      </trkpt>
      <trkpt lat="48.24096" lon="6.7309">
        <ele>397.1</ele>
        <time>2024-11-20T13:21:19Z</time>
      </trkpt>
      <trkpt lat="48.24096" lon="6.73105">
        <ele>395.5</ele>
        <time>2024-11-20T13:21:27Z</time>
      </trkpt>
      <trkpt lat="48.24098" lon="6.73119">
        <ele>392.7</ele>
        <time>2024-11-20T13:21:36Z</time>
      </trkpt>
      <trkpt lat="48.24103" lon="6.73132">
        <ele>389.6</ele>
        <time>2024-11-20T13:21:44Z</time>
      </trkpt>
      <trkpt lat="48.24111" lon="6.7314">
        <ele>387.6</ele>
        <time>2024-11-20T13:21:52Z</time>
      </trkpt>
      <trkpt lat="48.24111" lon="6.73154">
        <ele>384.6</ele>
        <time>2024-11-20T13:22:05Z</time>
      </trkpt>
      <trkpt lat="48.24103" lon="6.73167">
        <ele>384.9</ele>
        <time>2024-11-20T13:22:43Z</time>
      </trkpt>
      <trkpt lat="48.24095" lon="6.73177">
        <ele>385.4</ele>
        <time>2024-11-20T13:22:48Z</time>
      </trkpt>
      <trkpt lat="48.24088" lon="6.73184">
        <ele>385.6</ele>
        <time>2024-11-20T13:22:54Z</time>
      </trkpt>
      <trkpt lat="48.2408" lon="6.73192">
        <ele>385.8</ele>
        <time>2024-11-20T13:23:02Z</time>
      </trkpt>
      <trkpt lat="48.24069" lon="6.73195">
        <ele>387.3</ele>
        <time>2024-11-20T13:23:09Z</time>
      </trkpt>
      <trkpt lat="48.2406" lon="6.73196">
        <ele>389.4</ele>
        <time>2024-11-20T13:23:15Z</time>
      </trkpt>
      <trkpt lat="48.2405" lon="6.73201">
        <ele>389.8</ele>
        <time>2024-11-20T13:23:24Z</time>
      </trkpt>
      <trkpt lat="48.24041" lon="6.73199">
        <ele>389.8</ele>
        <time>2024-11-20T13:23:32Z</time>
      </trkpt>
      <trkpt lat="48.24032" lon="6.73194">
        <ele>389.8</ele>
        <time>2024-11-20T13:23:41Z</time>
      </trkpt>
      <trkpt lat="48.24022" lon="6.73189">
        <ele>389.9</ele>
        <time>2024-11-20T13:23:49Z</time>
      </trkpt>
      <trkpt lat="48.24013" lon="6.73184">
        <ele>390.1</ele>
        <time>2024-11-20T13:23:57Z</time>
      </trkpt>
      <trkpt lat="48.24004" lon="6.7318">
        <ele>390.2</ele>
        <time>2024-11-20T13:24:05Z</time>
      </trkpt>
      <trkpt lat="48.23995" lon="6.73176">
        <ele>390.3</ele>
        <time>2024-11-20T13:24:12Z</time>
      </trkpt>
      <trkpt lat="48.23986" lon="6.73171">
        <ele>390.5</ele>
        <time>2024-11-20T13:24:21Z</time>
      </trkpt>
      <trkpt lat="48.23977" lon="6.73164">
        <ele>390.6</ele>
        <time>2024-11-20T13:24:29Z</time>
      </trkpt>
      <trkpt lat="48.23969" lon="6.7316">
        <ele>390.7</ele>
        <time>2024-11-20T13:24:37Z</time>
      </trkpt>
      <trkpt lat="48.2396" lon="6.73154">
        <ele>390.9</ele>
        <time>2024-11-20T13:25:05Z</time>
      </trkpt>
      <trkpt lat="48.23954" lon="6.73144">
        <ele>391.1</ele>
        <time>2024-11-20T13:25:13Z</time>
      </trkpt>
      <trkpt lat="48.23946" lon="6.73135">
        <ele>391.7</ele>
        <time>2024-11-20T13:25:21Z</time>
      </trkpt>
      <trkpt lat="48.23938" lon="6.73125">
        <ele>392.4</ele>
        <time>2024-11-20T13:25:29Z</time>
      </trkpt>
      <trkpt lat="48.2393" lon="6.73116">
        <ele>393.3</ele>
        <time>2024-11-20T13:25:37Z</time>
      </trkpt>
      <trkpt lat="48.23922" lon="6.7311">
        <ele>394.1</ele>
        <time>2024-11-20T13:25:44Z</time>
      </trkpt>
      <trkpt lat="48.23913" lon="6.73106">
        <ele>394.9</ele>
        <time>2024-11-20T13:26:16Z</time>
      </trkpt>
      <trkpt lat="48.23904" lon="6.73103">
        <ele>395.2</ele>
        <time>2024-11-20T13:26:23Z</time>
      </trkpt>
      <trkpt lat="48.23894" lon="6.73099">
        <ele>395.5</ele>
        <time>2024-11-20T13:26:30Z</time>
      </trkpt>
      <trkpt lat="48.23884" lon="6.73097">
        <ele>395.8</ele>
        <time>2024-11-20T13:26:36Z</time>
      </trkpt>
      <trkpt lat="48.23875" lon="6.73096">
        <ele>396.1</ele>
        <time>2024-11-20T13:26:43Z</time>
      </trkpt>
      <trkpt lat="48.23865" lon="6.73097">
        <ele>396.4</ele>
        <time>2024-11-20T13:26:50Z</time>
      </trkpt>
      <trkpt lat="48.23856" lon="6.73098">
        <ele>396.7</ele>
        <time>2024-11-20T13:26:57Z</time>
      </trkpt>
      <trkpt lat="48.23847" lon="6.73099">
        <ele>396.9</ele>
        <time>2024-11-20T13:27:04Z</time>
      </trkpt>
      <trkpt lat="48.23838" lon="6.731">
        <ele>396.9</ele>
        <time>2024-11-20T13:27:11Z</time>
      </trkpt>
      <trkpt lat="48.23828" lon="6.731">
        <ele>396.9</ele>
        <time>2024-11-20T13:27:17Z</time>
      </trkpt>
      <trkpt lat="48.23818" lon="6.73101">
        <ele>396.8</ele>
        <time>2024-11-20T13:27:24Z</time>
      </trkpt>
      <trkpt lat="48.23814" lon="6.73088">
        <ele>396.5</ele>
        <time>2024-11-20T13:27:33Z</time>
      </trkpt>
      <trkpt lat="48.23811" lon="6.73074">
        <ele>397.3</ele>
        <time>2024-11-20T13:27:41Z</time>
      </trkpt>
      <trkpt lat="48.23808" lon="6.7306">
        <ele>398.3</ele>
        <time>2024-11-20T13:27:48Z</time>
      </trkpt>
      <trkpt lat="48.23803" lon="6.73048">
        <ele>399.2</ele>
        <time>2024-11-20T13:27:55Z</time>
      </trkpt>
      <trkpt lat="48.23798" lon="6.73036">
        <ele>399.9</ele>
        <time>2024-11-20T13:28:02Z</time>
      </trkpt>
      <trkpt lat="48.23793" lon="6.73024">
        <ele>400.6</ele>
        <time>2024-11-20T13:28:09Z</time>
      </trkpt>
      <trkpt lat="48.23788" lon="6.73011">
        <ele>401.3</ele>
        <time>2024-11-20T13:28:16Z</time>
      </trkpt>
      <trkpt lat="48.23783" lon="6.73">
        <ele>402</ele>
        <time>2024-11-20T13:28:23Z</time>
      </trkpt>
      <trkpt lat="48.23778" lon="6.72988">
        <ele>402.6</ele>
        <time>2024-11-20T13:28:31Z</time>
      </trkpt>
      <trkpt lat="48.23775" lon="6.72975">
        <ele>403.9</ele>
        <time>2024-11-20T13:28:38Z</time>
      </trkpt>
      <trkpt lat="48.23773" lon="6.7296">
        <ele>405.1</ele>
        <time>2024-11-20T13:28:45Z</time>
      </trkpt>
      <trkpt lat="48.23771" lon="6.72946">
        <ele>407.1</ele>
        <time>2024-11-20T13:28:52Z</time>
      </trkpt>
      <trkpt lat="48.23769" lon="6.72933">
        <ele>408.8</ele>
        <time>2024-11-20T13:28:59Z</time>
      </trkpt>
      <trkpt lat="48.23766" lon="6.72919">
        <ele>409.8</ele>
        <time>2024-11-20T13:29:06Z</time>
      </trkpt>
      <trkpt lat="48.23764" lon="6.72905">
        <ele>410.7</ele>
        <time>2024-11-20T13:29:13Z</time>
      </trkpt>
      <trkpt lat="48.23762" lon="6.72892">
        <ele>411.6</ele>
        <time>2024-11-20T13:29:20Z</time>
      </trkpt>
      <trkpt lat="48.23758" lon="6.72878">
        <ele>412.7</ele>
        <time>2024-11-20T13:29:28Z</time>
      </trkpt>
      <trkpt lat="48.23757" lon="6.72865">
        <ele>413.3</ele>
        <time>2024-11-20T13:29:36Z</time>
      </trkpt>
      <trkpt lat="48.23756" lon="6.72851">
        <ele>414.4</ele>
        <time>2024-11-20T13:29:43Z</time>
      </trkpt>
      <trkpt lat="48.23755" lon="6.72836">
        <ele>415.6</ele>
        <time>2024-11-20T13:29:57Z</time>
      </trkpt>
      <trkpt lat="48.23753" lon="6.72823">
        <ele>416.3</ele>
        <time>2024-11-20T13:30:05Z</time>
      </trkpt>
      <trkpt lat="48.23751" lon="6.72809">
        <ele>417.7</ele>
        <time>2024-11-20T13:30:13Z</time>
      </trkpt>
      <trkpt lat="48.2375" lon="6.72795">
        <ele>418</ele>
        <time>2024-11-20T13:30:23Z</time>
      </trkpt>
      <trkpt lat="48.2375" lon="6.72781">
        <ele>419.2</ele>
        <time>2024-11-20T13:30:33Z</time>
      </trkpt>
      <trkpt lat="48.2375" lon="6.72767">
        <ele>420.6</ele>
        <time>2024-11-20T13:30:40Z</time>
      </trkpt>
      <trkpt lat="48.23749" lon="6.72753">
        <ele>422.2</ele>
        <time>2024-11-20T13:30:47Z</time>
      </trkpt>
      <trkpt lat="48.23749" lon="6.72739">
        <ele>423.4</ele>
        <time>2024-11-20T13:30:56Z</time>
      </trkpt>
      <trkpt lat="48.23751" lon="6.72725">
        <ele>424.5</ele>
        <time>2024-11-20T13:31:04Z</time>
      </trkpt>
      <trkpt lat="48.23753" lon="6.7271">
        <ele>426.8</ele>
        <time>2024-11-20T13:31:12Z</time>
      </trkpt>
      <trkpt lat="48.23754" lon="6.72697">
        <ele>428.4</ele>
        <time>2024-11-20T13:31:21Z</time>
      </trkpt>
      <trkpt lat="48.23757" lon="6.72684">
        <ele>429.3</ele>
        <time>2024-11-20T13:31:30Z</time>
      </trkpt>
      <trkpt lat="48.23759" lon="6.7267">
        <ele>430.9</ele>
        <time>2024-11-20T13:31:41Z</time>
      </trkpt>
      <trkpt lat="48.23762" lon="6.72656">
        <ele>432.4</ele>
        <time>2024-11-20T13:31:51Z</time>
      </trkpt>
      <trkpt lat="48.23762" lon="6.72641">
        <ele>433.6</ele>
        <time>2024-11-20T13:31:59Z</time>
      </trkpt>
      <trkpt lat="48.23762" lon="6.72626">
        <ele>434.7</ele>
        <time>2024-11-20T13:32:10Z</time>
      </trkpt>
      <trkpt lat="48.23763" lon="6.72613">
        <ele>436.2</ele>
        <time>2024-11-20T13:32:19Z</time>
      </trkpt>
      <trkpt lat="48.23764" lon="6.72599">
        <ele>436.8</ele>
        <time>2024-11-20T13:32:29Z</time>
      </trkpt>
      <trkpt lat="48.23764" lon="6.72585">
        <ele>437.4</ele>
        <time>2024-11-20T13:32:37Z</time>
      </trkpt>
      <trkpt lat="48.23767" lon="6.72571">
        <ele>438.9</ele>
        <time>2024-11-20T13:32:48Z</time>
      </trkpt>
      <trkpt lat="48.23763" lon="6.72557">
        <ele>438.6</ele>
        <time>2024-11-20T13:33:04Z</time>
      </trkpt>
      <trkpt lat="48.23765" lon="6.72542">
        <ele>439.2</ele>
        <time>2024-11-20T13:33:11Z</time>
      </trkpt>
      <trkpt lat="48.2377" lon="6.7253">
        <ele>441.4</ele>
        <time>2024-11-20T13:33:19Z</time>
      </trkpt>
      <trkpt lat="48.23772" lon="6.72516">
        <ele>442.8</ele>
        <time>2024-11-20T13:33:28Z</time>
      </trkpt>
      <trkpt lat="48.23775" lon="6.72503">
        <ele>444.3</ele>
        <time>2024-11-20T13:33:38Z</time>
      </trkpt>
      <trkpt lat="48.23776" lon="6.7249">
        <ele>444.8</ele>
        <time>2024-11-20T13:33:46Z</time>
      </trkpt>
      <trkpt lat="48.23778" lon="6.72475">
        <ele>446.4</ele>
        <time>2024-11-20T13:33:54Z</time>
      </trkpt>
      <trkpt lat="48.23778" lon="6.72461">
        <ele>446.5</ele>
        <time>2024-11-20T13:34:02Z</time>
      </trkpt>
      <trkpt lat="48.23779" lon="6.72447">
        <ele>446.5</ele>
        <time>2024-11-20T13:34:10Z</time>
      </trkpt>
      <trkpt lat="48.2378" lon="6.72433">
        <ele>447.8</ele>
        <time>2024-11-20T13:34:17Z</time>
      </trkpt>
      <trkpt lat="48.2378" lon="6.72419">
        <ele>448</ele>
        <time>2024-11-20T13:34:24Z</time>
      </trkpt>
      <trkpt lat="48.2378" lon="6.72404">
        <ele>448.4</ele>
        <time>2024-11-20T13:34:31Z</time>
      </trkpt>
      <trkpt lat="48.23781" lon="6.72391">
        <ele>448.7</ele>
        <time>2024-11-20T13:34:38Z</time>
      </trkpt>
      <trkpt lat="48.2378" lon="6.72377">
        <ele>448.8</ele>
        <time>2024-11-20T13:34:44Z</time>
      </trkpt>
      <trkpt lat="48.23782" lon="6.72363">
        <ele>448.6</ele>
        <time>2024-11-20T13:34:51Z</time>
      </trkpt>
      <trkpt lat="48.23783" lon="6.72349">
        <ele>449.8</ele>
        <time>2024-11-20T13:34:59Z</time>
      </trkpt>
      <trkpt lat="48.23785" lon="6.72335">
        <ele>450.9</ele>
        <time>2024-11-20T13:35:06Z</time>
      </trkpt>
      <trkpt lat="48.23789" lon="6.72321">
        <ele>451.8</ele>
        <time>2024-11-20T13:35:13Z</time>
      </trkpt>
      <trkpt lat="48.2379" lon="6.72308">
        <ele>451</ele>
        <time>2024-11-20T13:35:21Z</time>
      </trkpt>
      <trkpt lat="48.23791" lon="6.72292">
        <ele>450</ele>
        <time>2024-11-20T13:35:28Z</time>
      </trkpt>
      <trkpt lat="48.23791" lon="6.72277">
        <ele>450.9</ele>
        <time>2024-11-20T13:35:35Z</time>
      </trkpt>
      <trkpt lat="48.23793" lon="6.72264">
        <ele>451.3</ele>
        <time>2024-11-20T13:35:42Z</time>
      </trkpt>
      <trkpt lat="48.23794" lon="6.7225">
        <ele>452.1</ele>
        <time>2024-11-20T13:35:49Z</time>
      </trkpt>
      <trkpt lat="48.23793" lon="6.72237">
        <ele>453.2</ele>
        <time>2024-11-20T13:35:57Z</time>
      </trkpt>
      <trkpt lat="48.23793" lon="6.72223">
        <ele>454.5</ele>
        <time>2024-11-20T13:36:05Z</time>
      </trkpt>
      <trkpt lat="48.23794" lon="6.72209">
        <ele>457.8</ele>
        <time>2024-11-20T13:36:14Z</time>
      </trkpt>
      <trkpt lat="48.23794" lon="6.72195">
        <ele>460</ele>
        <time>2024-11-20T13:36:24Z</time>
      </trkpt>
      <trkpt lat="48.23796" lon="6.72179">
        <ele>462.4</ele>
        <time>2024-11-20T13:36:31Z</time>
      </trkpt>
      <trkpt lat="48.23794" lon="6.72166">
        <ele>465.4</ele>
        <time>2024-11-20T13:36:38Z</time>
      </trkpt>
      <trkpt lat="48.23793" lon="6.72152">
        <ele>466.5</ele>
        <time>2024-11-20T13:36:45Z</time>
      </trkpt>
      <trkpt lat="48.23788" lon="6.72138">
        <ele>467.8</ele>
        <time>2024-11-20T13:36:54Z</time>
      </trkpt>
      <trkpt lat="48.23785" lon="6.72124">
        <ele>467.7</ele>
        <time>2024-11-20T13:37:01Z</time>
      </trkpt>
      <trkpt lat="48.23782" lon="6.72111">
        <ele>468.6</ele>
        <time>2024-11-20T13:37:08Z</time>
      </trkpt>
      <trkpt lat="48.2378" lon="6.72097">
        <ele>471.2</ele>
        <time>2024-11-20T13:37:15Z</time>
      </trkpt>
      <trkpt lat="48.23776" lon="6.72083">
        <ele>471</ele>
        <time>2024-11-20T13:37:24Z</time>
      </trkpt>
      <trkpt lat="48.23773" lon="6.72069">
        <ele>471.6</ele>
        <time>2024-11-20T13:37:33Z</time>
      </trkpt>
      <trkpt lat="48.23771" lon="6.72055">
        <ele>472.4</ele>
        <time>2024-11-20T13:37:41Z</time>
      </trkpt>
      <trkpt lat="48.23768" lon="6.72042">
        <ele>474.4</ele>
        <time>2024-11-20T13:37:48Z</time>
      </trkpt>
      <trkpt lat="48.23764" lon="6.72028">
        <ele>474.8</ele>
        <time>2024-11-20T13:37:56Z</time>
      </trkpt>
      <trkpt lat="48.2376" lon="6.72015">
        <ele>475.4</ele>
        <time>2024-11-20T13:38:03Z</time>
      </trkpt>
      <trkpt lat="48.23756" lon="6.72001">
        <ele>474.8</ele>
        <time>2024-11-20T13:38:35Z</time>
      </trkpt>
      <trkpt lat="48.23753" lon="6.71987">
        <ele>475.1</ele>
        <time>2024-11-20T13:38:43Z</time>
      </trkpt>
      <trkpt lat="48.23751" lon="6.71972">
        <ele>476.9</ele>
        <time>2024-11-20T13:38:54Z</time>
      </trkpt>
      <trkpt lat="48.23749" lon="6.71959">
        <ele>477.3</ele>
        <time>2024-11-20T13:39:01Z</time>
      </trkpt>
      <trkpt lat="48.2375" lon="6.71945">
        <ele>478.7</ele>
        <time>2024-11-20T13:39:10Z</time>
      </trkpt>
      <trkpt lat="48.23747" lon="6.71931">
        <ele>478.9</ele>
        <time>2024-11-20T13:39:18Z</time>
      </trkpt>
      <trkpt lat="48.23745" lon="6.71917">
        <ele>479.1</ele>
        <time>2024-11-20T13:39:27Z</time>
      </trkpt>
      <trkpt lat="48.23745" lon="6.71902">
        <ele>480</ele>
        <time>2024-11-20T13:39:36Z</time>
      </trkpt>
      <trkpt lat="48.23741" lon="6.71888">
        <ele>480</ele>
        <time>2024-11-20T13:40:12Z</time>
      </trkpt>
      <trkpt lat="48.2374" lon="6.71873">
        <ele>480.8</ele>
        <time>2024-11-20T13:40:19Z</time>
      </trkpt>
      <trkpt lat="48.23741" lon="6.7186">
        <ele>480.9</ele>
        <time>2024-11-20T13:40:27Z</time>
      </trkpt>
      <trkpt lat="48.23741" lon="6.71845">
        <ele>480.9</ele>
        <time>2024-11-20T13:40:34Z</time>
      </trkpt>
      <trkpt lat="48.23741" lon="6.71832">
        <ele>481.3</ele>
        <time>2024-11-20T13:40:41Z</time>
      </trkpt>
      <trkpt lat="48.2374" lon="6.71817">
        <ele>482.4</ele>
        <time>2024-11-20T13:40:49Z</time>
      </trkpt>
      <trkpt lat="48.23739" lon="6.71802">
        <ele>482.9</ele>
        <time>2024-11-20T13:40:57Z</time>
      </trkpt>
      <trkpt lat="48.23738" lon="6.71787">
        <ele>483.7</ele>
        <time>2024-11-20T13:41:05Z</time>
      </trkpt>
      <trkpt lat="48.23737" lon="6.71774">
        <ele>483.9</ele>
        <time>2024-11-20T13:41:12Z</time>
      </trkpt>
      <trkpt lat="48.23738" lon="6.7176">
        <ele>484.2</ele>
        <time>2024-11-20T13:41:20Z</time>
      </trkpt>
      <trkpt lat="48.23738" lon="6.71745">
        <ele>485.1</ele>
        <time>2024-11-20T13:41:28Z</time>
      </trkpt>
      <trkpt lat="48.2374" lon="6.7173">
        <ele>486</ele>
        <time>2024-11-20T13:41:36Z</time>
      </trkpt>
      <trkpt lat="48.23742" lon="6.71717">
        <ele>486.3</ele>
        <time>2024-11-20T13:41:44Z</time>
      </trkpt>
      <trkpt lat="48.23747" lon="6.71704">
        <ele>488.2</ele>
        <time>2024-11-20T13:41:52Z</time>
      </trkpt>
      <trkpt lat="48.23752" lon="6.71692">
        <ele>490.6</ele>
        <time>2024-11-20T13:42:00Z</time>
      </trkpt>
      <trkpt lat="48.23758" lon="6.71682">
        <ele>492.6</ele>
        <time>2024-11-20T13:42:06Z</time>
      </trkpt>
      <trkpt lat="48.23764" lon="6.7167">
        <ele>494.3</ele>
        <time>2024-11-20T13:42:14Z</time>
      </trkpt>
      <trkpt lat="48.2377" lon="6.71658">
        <ele>495.5</ele>
        <time>2024-11-20T13:42:22Z</time>
      </trkpt>
      <trkpt lat="48.23777" lon="6.71648">
        <ele>495.8</ele>
        <time>2024-11-20T13:42:30Z</time>
      </trkpt>
      <trkpt lat="48.23784" lon="6.71637">
        <ele>495.4</ele>
        <time>2024-11-20T13:42:38Z</time>
      </trkpt>
      <trkpt lat="48.2379" lon="6.71627">
        <ele>494.7</ele>
        <time>2024-11-20T13:42:46Z</time>
      </trkpt>
      <trkpt lat="48.23797" lon="6.71617">
        <ele>494</ele>
        <time>2024-11-20T13:42:54Z</time>
      </trkpt>
      <trkpt lat="48.23802" lon="6.71605">
        <ele>493.6</ele>
        <time>2024-11-20T13:43:03Z</time>
      </trkpt>
      <trkpt lat="48.23807" lon="6.71592">
        <ele>493.5</ele>
        <time>2024-11-20T13:43:12Z</time>
      </trkpt>
      <trkpt lat="48.2381" lon="6.71578">
        <ele>493.7</ele>
        <time>2024-11-20T13:43:20Z</time>
      </trkpt>
      <trkpt lat="48.23811" lon="6.71564">
        <ele>493.8</ele>
        <time>2024-11-20T13:43:27Z</time>
      </trkpt>
      <trkpt lat="48.2381" lon="6.71549">
        <ele>493.8</ele>
        <time>2024-11-20T13:43:36Z</time>
      </trkpt>
      <trkpt lat="48.23807" lon="6.71535">
        <ele>493.9</ele>
        <time>2024-11-20T13:43:45Z</time>
      </trkpt>
      <trkpt lat="48.23803" lon="6.71522">
        <ele>493.8</ele>
        <time>2024-11-20T13:43:54Z</time>
      </trkpt>
      <trkpt lat="48.238" lon="6.71509">
        <ele>493.9</ele>
        <time>2024-11-20T13:44:03Z</time>
      </trkpt>
      <trkpt lat="48.23794" lon="6.715">
        <ele>494.1</ele>
        <time>2024-11-20T13:44:11Z</time>
      </trkpt>
      <trkpt lat="48.23786" lon="6.71492">
        <ele>494.4</ele>
        <time>2024-11-20T13:44:17Z</time>
      </trkpt>
      <trkpt lat="48.23778" lon="6.71484">
        <ele>494.7</ele>
        <time>2024-11-20T13:44:25Z</time>
      </trkpt>
      <trkpt lat="48.23771" lon="6.71475">
        <ele>495.1</ele>
        <time>2024-11-20T13:44:32Z</time>
      </trkpt>
      <trkpt lat="48.23763" lon="6.71465">
        <ele>496.4</ele>
        <time>2024-11-20T13:44:39Z</time>
      </trkpt>
      <trkpt lat="48.23754" lon="6.71458">
        <ele>497.6</ele>
        <time>2024-11-20T13:44:46Z</time>
      </trkpt>
      <trkpt lat="48.23746" lon="6.71449">
        <ele>498.8</ele>
        <time>2024-11-20T13:44:53Z</time>
      </trkpt>
      <trkpt lat="48.23738" lon="6.71441">
        <ele>499.2</ele>
        <time>2024-11-20T13:45:02Z</time>
      </trkpt>
      <trkpt lat="48.2373" lon="6.71433">
        <ele>500.2</ele>
        <time>2024-11-20T13:45:11Z</time>
      </trkpt>
      <trkpt lat="48.23721" lon="6.71427">
        <ele>501</ele>
        <time>2024-11-20T13:45:19Z</time>
      </trkpt>
      <trkpt lat="48.23712" lon="6.7142">
        <ele>501.2</ele>
        <time>2024-11-20T13:45:26Z</time>
      </trkpt>
      <trkpt lat="48.23703" lon="6.71413">
        <ele>502.2</ele>
        <time>2024-11-20T13:45:34Z</time>
      </trkpt>
      <trkpt lat="48.23694" lon="6.71408">
        <ele>502.4</ele>
        <time>2024-11-20T13:45:43Z</time>
      </trkpt>
      <trkpt lat="48.23685" lon="6.71402">
        <ele>503.1</ele>
        <time>2024-11-20T13:45:52Z</time>
      </trkpt>
      <trkpt lat="48.23679" lon="6.71391">
        <ele>503.7</ele>
        <time>2024-11-20T13:45:56Z</time>
      </trkpt>
      <trkpt lat="48.23672" lon="6.71383">
        <ele>504.4</ele>
        <time>2024-11-20T13:46:01Z</time>
      </trkpt>
      <trkpt lat="48.23662" lon="6.71376">
        <ele>504</ele>
        <time>2024-11-20T13:46:07Z</time>
      </trkpt>
      <trkpt lat="48.23655" lon="6.71367">
        <ele>505</ele>
        <time>2024-11-20T13:46:14Z</time>
      </trkpt>
      <trkpt lat="48.23647" lon="6.7136">
        <ele>504.8</ele>
        <time>2024-11-20T13:46:22Z</time>
      </trkpt>
      <trkpt lat="48.23638" lon="6.71352">
        <ele>504.8</ele>
        <time>2024-11-20T13:46:30Z</time>
      </trkpt>
      <trkpt lat="48.23631" lon="6.71344">
        <ele>505</ele>
        <time>2024-11-20T13:46:38Z</time>
      </trkpt>
      <trkpt lat="48.23621" lon="6.71345">
        <ele>504.5</ele>
        <time>2024-11-20T13:46:59Z</time>
      </trkpt>
      <trkpt lat="48.23612" lon="6.71348">
        <ele>504</ele>
        <time>2024-11-20T13:47:09Z</time>
      </trkpt>
      <trkpt lat="48.23602" lon="6.71353">
        <ele>504.1</ele>
        <time>2024-11-20T13:47:16Z</time>
      </trkpt>
      <trkpt lat="48.23593" lon="6.71358">
        <ele>504.2</ele>
        <time>2024-11-20T13:47:23Z</time>
      </trkpt>
      <trkpt lat="48.23585" lon="6.71363">
        <ele>504.3</ele>
        <time>2024-11-20T13:47:30Z</time>
      </trkpt>
      <trkpt lat="48.23576" lon="6.71368">
        <ele>504.3</ele>
        <time>2024-11-20T13:47:37Z</time>
      </trkpt>
      <trkpt lat="48.23567" lon="6.71374">
        <ele>504.4</ele>
        <time>2024-11-20T13:47:44Z</time>
      </trkpt>
      <trkpt lat="48.23559" lon="6.71382">
        <ele>504.5</ele>
        <time>2024-11-20T13:47:51Z</time>
      </trkpt>
      <trkpt lat="48.2355" lon="6.71389">
        <ele>504.5</ele>
        <time>2024-11-20T13:47:59Z</time>
      </trkpt>
      <trkpt lat="48.23542" lon="6.71397">
        <ele>504.6</ele>
        <time>2024-11-20T13:48:06Z</time>
      </trkpt>
      <trkpt lat="48.23534" lon="6.71402">
        <ele>504.6</ele>
        <time>2024-11-20T13:48:13Z</time>
      </trkpt>
      <trkpt lat="48.23524" lon="6.71406">
        <ele>504.7</ele>
        <time>2024-11-20T13:48:20Z</time>
      </trkpt>
      <trkpt lat="48.23516" lon="6.71411">
        <ele>504.8</ele>
        <time>2024-11-20T13:48:27Z</time>
      </trkpt>
      <trkpt lat="48.23506" lon="6.71416">
        <ele>505</ele>
        <time>2024-11-20T13:48:35Z</time>
      </trkpt>
      <trkpt lat="48.23497" lon="6.71422">
        <ele>505.1</ele>
        <time>2024-11-20T13:48:43Z</time>
      </trkpt>
      <trkpt lat="48.23487" lon="6.71426">
        <ele>505.3</ele>
        <time>2024-11-20T13:48:51Z</time>
      </trkpt>
      <trkpt lat="48.23478" lon="6.71428">
        <ele>505.4</ele>
        <time>2024-11-20T13:48:59Z</time>
      </trkpt>
      <trkpt lat="48.23469" lon="6.7143">
        <ele>505.6</ele>
        <time>2024-11-20T13:49:06Z</time>
      </trkpt>
      <trkpt lat="48.2346" lon="6.71435">
        <ele>505.7</ele>
        <time>2024-11-20T13:49:14Z</time>
      </trkpt>
      <trkpt lat="48.2345" lon="6.71438">
        <ele>506</ele>
        <time>2024-11-20T13:49:22Z</time>
      </trkpt>
      <trkpt lat="48.23441" lon="6.71441">
        <ele>506.2</ele>
        <time>2024-11-20T13:49:29Z</time>
      </trkpt>
      <trkpt lat="48.23431" lon="6.71444">
        <ele>506.5</ele>
        <time>2024-11-20T13:49:37Z</time>
      </trkpt>
      <trkpt lat="48.23422" lon="6.71447">
        <ele>506.8</ele>
        <time>2024-11-20T13:49:44Z</time>
      </trkpt>
      <trkpt lat="48.23412" lon="6.7145">
        <ele>507.1</ele>
        <time>2024-11-20T13:49:51Z</time>
      </trkpt>
      <trkpt lat="48.23403" lon="6.71453">
        <ele>507.4</ele>
        <time>2024-11-20T13:49:58Z</time>
      </trkpt>
      <trkpt lat="48.23393" lon="6.71455">
        <ele>507.7</ele>
        <time>2024-11-20T13:50:06Z</time>
      </trkpt>
      <trkpt lat="48.23383" lon="6.71458">
        <ele>508.1</ele>
        <time>2024-11-20T13:50:14Z</time>
      </trkpt>
      <trkpt lat="48.23374" lon="6.71461">
        <ele>508.5</ele>
        <time>2024-11-20T13:50:22Z</time>
      </trkpt>
      <trkpt lat="48.23365" lon="6.71464">
        <ele>508.8</ele>
        <time>2024-11-20T13:50:31Z</time>
      </trkpt>
      <trkpt lat="48.23355" lon="6.71466">
        <ele>509.1</ele>
        <time>2024-11-20T13:50:39Z</time>
      </trkpt>
      <trkpt lat="48.23345" lon="6.71469">
        <ele>509.5</ele>
        <time>2024-11-20T13:50:47Z</time>
      </trkpt>
      <trkpt lat="48.23335" lon="6.71471">
        <ele>509.8</ele>
        <time>2024-11-20T13:50:55Z</time>
      </trkpt>
      <trkpt lat="48.23326" lon="6.71471">
        <ele>510.1</ele>
        <time>2024-11-20T13:51:02Z</time>
      </trkpt>
      <trkpt lat="48.23316" lon="6.71471">
        <ele>510.4</ele>
        <time>2024-11-20T13:51:10Z</time>
      </trkpt>
      <trkpt lat="48.23306" lon="6.7147">
        <ele>510.7</ele>
        <time>2024-11-20T13:51:17Z</time>
      </trkpt>
      <trkpt lat="48.23297" lon="6.71467">
        <ele>511.1</ele>
        <time>2024-11-20T13:51:25Z</time>
      </trkpt>
      <trkpt lat="48.23288" lon="6.71463">
        <ele>511.4</ele>
        <time>2024-11-20T13:51:33Z</time>
      </trkpt>
      <trkpt lat="48.23278" lon="6.71462">
        <ele>511.8</ele>
        <time>2024-11-20T13:51:39Z</time>
      </trkpt>
      <trkpt lat="48.23269" lon="6.71458">
        <ele>512.2</ele>
        <time>2024-11-20T13:51:48Z</time>
      </trkpt>
      <trkpt lat="48.23259" lon="6.71458">
        <ele>512.6</ele>
        <time>2024-11-20T13:51:55Z</time>
      </trkpt>
      <trkpt lat="48.23249" lon="6.71458">
        <ele>513</ele>
        <time>2024-11-20T13:52:01Z</time>
      </trkpt>
      <trkpt lat="48.2324" lon="6.71457">
        <ele>513.5</ele>
        <time>2024-11-20T13:52:08Z</time>
      </trkpt>
      <trkpt lat="48.2323" lon="6.71456">
        <ele>514</ele>
        <time>2024-11-20T13:52:15Z</time>
      </trkpt>
      <trkpt lat="48.23221" lon="6.71456">
        <ele>514.4</ele>
        <time>2024-11-20T13:52:23Z</time>
      </trkpt>
      <trkpt lat="48.23211" lon="6.71454">
        <ele>514.8</ele>
        <time>2024-11-20T13:52:31Z</time>
      </trkpt>
      <trkpt lat="48.23201" lon="6.71456">
        <ele>515.2</ele>
        <time>2024-11-20T13:52:39Z</time>
      </trkpt>
      <trkpt lat="48.23192" lon="6.71457">
        <ele>515.6</ele>
        <time>2024-11-20T13:52:47Z</time>
      </trkpt>
      <trkpt lat="48.23181" lon="6.7146">
        <ele>515.9</ele>
        <time>2024-11-20T13:52:54Z</time>
      </trkpt>
      <trkpt lat="48.23172" lon="6.71459">
        <ele>516.3</ele>
        <time>2024-11-20T13:53:02Z</time>
      </trkpt>
      <trkpt lat="48.23163" lon="6.71459">
        <ele>516.5</ele>
        <time>2024-11-20T13:53:09Z</time>
      </trkpt>
      <trkpt lat="48.23154" lon="6.71459">
        <ele>516.8</ele>
        <time>2024-11-20T13:53:16Z</time>
      </trkpt>
      <trkpt lat="48.23144" lon="6.71457">
        <ele>517</ele>
        <time>2024-11-20T13:53:24Z</time>
      </trkpt>
      <trkpt lat="48.23134" lon="6.71455">
        <ele>517.2</ele>
        <time>2024-11-20T13:53:31Z</time>
      </trkpt>
      <trkpt lat="48.23126" lon="6.71447">
        <ele>517.2</ele>
        <time>2024-11-20T13:53:38Z</time>
      </trkpt>
      <trkpt lat="48.23118" lon="6.7144">
        <ele>517.2</ele>
        <time>2024-11-20T13:53:46Z</time>
      </trkpt>
      <trkpt lat="48.23108" lon="6.71436">
        <ele>517</ele>
        <time>2024-11-20T13:53:54Z</time>
      </trkpt>
      <trkpt lat="48.23098" lon="6.71433">
        <ele>516.8</ele>
        <time>2024-11-20T13:54:01Z</time>
      </trkpt>
      <trkpt lat="48.23088" lon="6.7143">
        <ele>516.6</ele>
        <time>2024-11-20T13:54:08Z</time>
      </trkpt>
      <trkpt lat="48.23078" lon="6.71424">
        <ele>516.3</ele>
        <time>2024-11-20T13:54:15Z</time>
      </trkpt>
      <trkpt lat="48.23069" lon="6.71418">
        <ele>516</ele>
        <time>2024-11-20T13:54:24Z</time>
      </trkpt>
      <trkpt lat="48.23059" lon="6.71418">
        <ele>515.7</ele>
        <time>2024-11-20T13:54:32Z</time>
      </trkpt>
      <trkpt lat="48.23049" lon="6.71418">
        <ele>515.3</ele>
        <time>2024-11-20T13:54:39Z</time>
      </trkpt>
      <trkpt lat="48.23039" lon="6.71418">
        <ele>514.9</ele>
        <time>2024-11-20T13:54:46Z</time>
      </trkpt>
      <trkpt lat="48.23029" lon="6.71421">
        <ele>514.4</ele>
        <time>2024-11-20T13:54:54Z</time>
      </trkpt>
      <trkpt lat="48.23019" lon="6.71422">
        <ele>513.9</ele>
        <time>2024-11-20T13:55:02Z</time>
      </trkpt>
      <trkpt lat="48.23009" lon="6.71424">
        <ele>513.3</ele>
        <time>2024-11-20T13:55:10Z</time>
      </trkpt>
      <trkpt lat="48.23" lon="6.71425">
        <ele>512.8</ele>
        <time>2024-11-20T13:55:19Z</time>
      </trkpt>
      <trkpt lat="48.22991" lon="6.71428">
        <ele>512.2</ele>
        <time>2024-11-20T13:55:26Z</time>
      </trkpt>
      <trkpt lat="48.22982" lon="6.71433">
        <ele>511.8</ele>
        <time>2024-11-20T13:55:33Z</time>
      </trkpt>
      <trkpt lat="48.22974" lon="6.71439">
        <ele>511.4</ele>
        <time>2024-11-20T13:55:41Z</time>
      </trkpt>
      <trkpt lat="48.22964" lon="6.71443">
        <ele>511.5</ele>
        <time>2024-11-20T13:55:49Z</time>
      </trkpt>
      <trkpt lat="48.2297" lon="6.71431">
        <ele>512.2</ele>
        <time>2024-11-20T13:56:10Z</time>
      </trkpt>
      <trkpt lat="48.22977" lon="6.71423">
        <ele>512.9</ele>
        <time>2024-11-20T13:56:17Z</time>
      </trkpt>
      <trkpt lat="48.22985" lon="6.71416">
        <ele>513.7</ele>
        <time>2024-11-20T13:56:25Z</time>
      </trkpt>
      <trkpt lat="48.22993" lon="6.71408">
        <ele>514.4</ele>
        <time>2024-11-20T13:56:32Z</time>
      </trkpt>
      <trkpt lat="48.23001" lon="6.71401">
        <ele>515</ele>
        <time>2024-11-20T13:56:39Z</time>
      </trkpt>
      <trkpt lat="48.2301" lon="6.71395">
        <ele>515.8</ele>
        <time>2024-11-20T13:56:46Z</time>
      </trkpt>
      <trkpt lat="48.23018" lon="6.71389">
        <ele>516.7</ele>
        <time>2024-11-20T13:56:54Z</time>
      </trkpt>
      <trkpt lat="48.23027" lon="6.71383">
        <ele>517.8</ele>
        <time>2024-11-20T13:57:03Z</time>
      </trkpt>
      <trkpt lat="48.23035" lon="6.71375">
        <ele>518.8</ele>
        <time>2024-11-20T13:57:11Z</time>
      </trkpt>
      <trkpt lat="48.23042" lon="6.71366">
        <ele>519.8</ele>
        <time>2024-11-20T13:57:18Z</time>
      </trkpt>
      <trkpt lat="48.23042" lon="6.7135">
        <ele>520.4</ele>
        <time>2024-11-20T13:57:26Z</time>
      </trkpt>
      <trkpt lat="48.23035" lon="6.71341">
        <ele>519.6</ele>
        <time>2024-11-20T13:57:34Z</time>
      </trkpt>
      <trkpt lat="48.23027" lon="6.71335">
        <ele>518.1</ele>
        <time>2024-11-20T13:57:41Z</time>
      </trkpt>
      <trkpt lat="48.23018" lon="6.71332">
        <ele>516.2</ele>
        <time>2024-11-20T13:57:51Z</time>
      </trkpt>
      <trkpt lat="48.23008" lon="6.71327">
        <ele>514.1</ele>
        <time>2024-11-20T13:58:14Z</time>
      </trkpt>
      <trkpt lat="48.22999" lon="6.71326">
        <ele>512.2</ele>
        <time>2024-11-20T13:58:22Z</time>
      </trkpt>
      <trkpt lat="48.2299" lon="6.71322">
        <ele>510.1</ele>
        <time>2024-11-20T13:58:30Z</time>
      </trkpt>
      <trkpt lat="48.2298" lon="6.71322">
        <ele>507.7</ele>
        <time>2024-11-20T13:58:39Z</time>
      </trkpt>
      <trkpt lat="48.22971" lon="6.71317">
        <ele>505.4</ele>
        <time>2024-11-20T13:58:49Z</time>
      </trkpt>
      <trkpt lat="48.22963" lon="6.7131">
        <ele>502.9</ele>
        <time>2024-11-20T13:58:56Z</time>
      </trkpt>
      <trkpt lat="48.22954" lon="6.71304">
        <ele>500.3</ele>
        <time>2024-11-20T13:59:05Z</time>
      </trkpt>
      <trkpt lat="48.22946" lon="6.71298">
        <ele>497.9</ele>
        <time>2024-11-20T13:59:15Z</time>
      </trkpt>
      <trkpt lat="48.22936" lon="6.71296">
        <ele>495.2</ele>
        <time>2024-11-20T13:59:24Z</time>
      </trkpt>
      <trkpt lat="48.22926" lon="6.71296">
        <ele>492.6</ele>
        <time>2024-11-20T13:59:33Z</time>
      </trkpt>
      <trkpt lat="48.2292" lon="6.71286">
        <ele>490</ele>
        <time>2024-11-20T13:59:43Z</time>
      </trkpt>
      <trkpt lat="48.22911" lon="6.71281">
        <ele>487.2</ele>
        <time>2024-11-20T13:59:57Z</time>
      </trkpt>
      <trkpt lat="48.22903" lon="6.71272">
        <ele>484.6</ele>
        <time>2024-11-20T14:00:10Z</time>
      </trkpt>
      <trkpt lat="48.22895" lon="6.71266">
        <ele>482</ele>
        <time>2024-11-20T14:00:21Z</time>
      </trkpt>
      <trkpt lat="48.22888" lon="6.71255">
        <ele>479.6</ele>
        <time>2024-11-20T14:00:29Z</time>
      </trkpt>
      <trkpt lat="48.22881" lon="6.71245">
        <ele>477.1</ele>
        <time>2024-11-20T14:00:38Z</time>
      </trkpt>
      <trkpt lat="48.22874" lon="6.71235">
        <ele>474.7</ele>
        <time>2024-11-20T14:00:52Z</time>
      </trkpt>
      <trkpt lat="48.22869" lon="6.71224">
        <ele>472.2</ele>
        <time>2024-11-20T14:01:01Z</time>
      </trkpt>
      <trkpt lat="48.22861" lon="6.71214">
        <ele>469.6</ele>
        <time>2024-11-20T14:01:14Z</time>
      </trkpt>
      <trkpt lat="48.22852" lon="6.71209">
        <ele>467.3</ele>
        <time>2024-11-20T14:01:22Z</time>
      </trkpt>
      <trkpt lat="48.22843" lon="6.71205">
        <ele>465.1</ele>
        <time>2024-11-20T14:01:32Z</time>
      </trkpt>
      <trkpt lat="48.22835" lon="6.71198">
        <ele>463</ele>
        <time>2024-11-20T14:01:43Z</time>
      </trkpt>
      <trkpt lat="48.22825" lon="6.71197">
        <ele>460.9</ele>
        <time>2024-11-20T14:01:50Z</time>
      </trkpt>
      <trkpt lat="48.22816" lon="6.71201">
        <ele>458.9</ele>
        <time>2024-11-20T14:02:09Z</time>
      </trkpt>
      <trkpt lat="48.22807" lon="6.71201">
        <ele>457.4</ele>
        <time>2024-11-20T14:02:16Z</time>
      </trkpt>
      <trkpt lat="48.22797" lon="6.71202">
        <ele>456</ele>
        <time>2024-11-20T14:02:24Z</time>
      </trkpt>
      <trkpt lat="48.22787" lon="6.71202">
        <ele>454.7</ele>
        <time>2024-11-20T14:02:32Z</time>
      </trkpt>
      <trkpt lat="48.22777" lon="6.712">
        <ele>453.6</ele>
        <time>2024-11-20T14:02:41Z</time>
      </trkpt>
      <trkpt lat="48.22768" lon="6.71198">
        <ele>452.4</ele>
        <time>2024-11-20T14:02:50Z</time>
      </trkpt>
      <trkpt lat="48.22759" lon="6.71194">
        <ele>451.4</ele>
        <time>2024-11-20T14:02:57Z</time>
      </trkpt>
      <trkpt lat="48.22749" lon="6.71191">
        <ele>450.2</ele>
        <time>2024-11-20T14:03:04Z</time>
      </trkpt>
      <trkpt lat="48.22741" lon="6.71184">
        <ele>449.1</ele>
        <time>2024-11-20T14:03:12Z</time>
      </trkpt>
      <trkpt lat="48.22732" lon="6.71182">
        <ele>447.9</ele>
        <time>2024-11-20T14:03:20Z</time>
      </trkpt>
      <trkpt lat="48.22723" lon="6.71182">
        <ele>447</ele>
        <time>2024-11-20T14:03:30Z</time>
      </trkpt>
      <trkpt lat="48.22717" lon="6.71173">
        <ele>446.1</ele>
        <time>2024-11-20T14:03:37Z</time>
      </trkpt>
      <trkpt lat="48.22711" lon="6.71161">
        <ele>445.2</ele>
        <time>2024-11-20T14:03:45Z</time>
      </trkpt>
      <trkpt lat="48.22705" lon="6.7115">
        <ele>444.6</ele>
        <time>2024-11-20T14:03:52Z</time>
      </trkpt>
      <trkpt lat="48.22698" lon="6.71162">
        <ele>444</ele>
        <time>2024-11-20T14:05:12Z</time>
      </trkpt>
      <trkpt lat="48.22694" lon="6.71175">
        <ele>443.9</ele>
        <time>2024-11-20T14:05:19Z</time>
      </trkpt>
      <trkpt lat="48.22688" lon="6.71185">
        <ele>444</ele>
        <time>2024-11-20T14:05:25Z</time>
      </trkpt>
      <trkpt lat="48.22682" lon="6.71198">
        <ele>444.3</ele>
        <time>2024-11-20T14:05:33Z</time>
      </trkpt>
      <trkpt lat="48.22676" lon="6.71208">
        <ele>444.8</ele>
        <time>2024-11-20T14:05:39Z</time>
      </trkpt>
      <trkpt lat="48.22667" lon="6.71214">
        <ele>445.4</ele>
        <time>2024-11-20T14:05:48Z</time>
      </trkpt>
      <trkpt lat="48.22657" lon="6.71221">
        <ele>446.2</ele>
        <time>2024-11-20T14:05:56Z</time>
      </trkpt>
      <trkpt lat="48.22649" lon="6.71228">
        <ele>446.9</ele>
        <time>2024-11-20T14:06:04Z</time>
      </trkpt>
      <trkpt lat="48.22642" lon="6.71237">
        <ele>447.7</ele>
        <time>2024-11-20T14:06:12Z</time>
      </trkpt>
      <trkpt lat="48.22636" lon="6.71248">
        <ele>448.6</ele>
        <time>2024-11-20T14:06:19Z</time>
      </trkpt>
      <trkpt lat="48.22628" lon="6.71259">
        <ele>449.5</ele>
        <time>2024-11-20T14:06:26Z</time>
      </trkpt>
      <trkpt lat="48.22621" lon="6.71269">
        <ele>450.5</ele>
        <time>2024-11-20T14:06:33Z</time>
      </trkpt>
      <trkpt lat="48.22615" lon="6.71278">
        <ele>451.4</ele>
        <time>2024-11-20T14:06:40Z</time>
      </trkpt>
      <trkpt lat="48.22609" lon="6.7129">
        <ele>452.1</ele>
        <time>2024-11-20T14:06:48Z</time>
      </trkpt>
      <trkpt lat="48.22602" lon="6.71299">
        <ele>452.4</ele>
        <time>2024-11-20T14:06:55Z</time>
      </trkpt>
      <trkpt lat="48.22596" lon="6.71309">
        <ele>452.6</ele>
        <time>2024-11-20T14:07:04Z</time>
      </trkpt>
      <trkpt lat="48.2259" lon="6.7132">
        <ele>452.5</ele>
        <time>2024-11-20T14:07:11Z</time>
      </trkpt>
      <trkpt lat="48.22584" lon="6.71331">
        <ele>452.3</ele>
        <time>2024-11-20T14:07:19Z</time>
      </trkpt>
      <trkpt lat="48.22578" lon="6.71344">
        <ele>452.2</ele>
        <time>2024-11-20T14:07:27Z</time>
      </trkpt>
      <trkpt lat="48.22573" lon="6.71355">
        <ele>451.9</ele>
        <time>2024-11-20T14:07:35Z</time>
      </trkpt>
      <trkpt lat="48.22566" lon="6.71364">
        <ele>451.6</ele>
        <time>2024-11-20T14:07:45Z</time>
      </trkpt>
      <trkpt lat="48.22564" lon="6.71377">
        <ele>451.2</ele>
        <time>2024-11-20T14:07:54Z</time>
      </trkpt>
      <trkpt lat="48.22557" lon="6.71388">
        <ele>450.6</ele>
        <time>2024-11-20T14:08:01Z</time>
      </trkpt>
      <trkpt lat="48.2255" lon="6.71396">
        <ele>449.8</ele>
        <time>2024-11-20T14:08:09Z</time>
      </trkpt>
      <trkpt lat="48.22543" lon="6.71406">
        <ele>448.9</ele>
        <time>2024-11-20T14:08:17Z</time>
      </trkpt>
      <trkpt lat="48.22535" lon="6.71415">
        <ele>447.9</ele>
        <time>2024-11-20T14:08:25Z</time>
      </trkpt>
      <trkpt lat="48.22529" lon="6.71425">
        <ele>447</ele>
        <time>2024-11-20T14:08:32Z</time>
      </trkpt>
      <trkpt lat="48.22521" lon="6.71434">
        <ele>446.6</ele>
        <time>2024-11-20T14:08:39Z</time>
      </trkpt>
      <trkpt lat="48.22513" lon="6.71442">
        <ele>446.6</ele>
        <time>2024-11-20T14:08:48Z</time>
      </trkpt>
      <trkpt lat="48.22506" lon="6.71452">
        <ele>447</ele>
        <time>2024-11-20T14:08:55Z</time>
      </trkpt>
      <trkpt lat="48.225" lon="6.71465">
        <ele>447.9</ele>
        <time>2024-11-20T14:09:02Z</time>
      </trkpt>
      <trkpt lat="48.22496" lon="6.71478">
        <ele>449.1</ele>
        <time>2024-11-20T14:09:09Z</time>
      </trkpt>
      <trkpt lat="48.22492" lon="6.71491">
        <ele>450.4</ele>
        <time>2024-11-20T14:09:17Z</time>
      </trkpt>
      <trkpt lat="48.22487" lon="6.71503">
        <ele>451</ele>
        <time>2024-11-20T14:09:25Z</time>
      </trkpt>
      <trkpt lat="48.22485" lon="6.71517">
        <ele>450.5</ele>
        <time>2024-11-20T14:09:33Z</time>
      </trkpt>
      <trkpt lat="48.22481" lon="6.71529">
        <ele>449.3</ele>
        <time>2024-11-20T14:09:40Z</time>
      </trkpt>
      <trkpt lat="48.2248" lon="6.71543">
        <ele>447.7</ele>
        <time>2024-11-20T14:09:49Z</time>
      </trkpt>
      <trkpt lat="48.22478" lon="6.71556">
        <ele>446.3</ele>
        <time>2024-11-20T14:09:56Z</time>
      </trkpt>
      <trkpt lat="48.22476" lon="6.71571">
        <ele>444.7</ele>
        <time>2024-11-20T14:10:04Z</time>
      </trkpt>
      <trkpt lat="48.22475" lon="6.71586">
        <ele>443</ele>
        <time>2024-11-20T14:10:13Z</time>
      </trkpt>
      <trkpt lat="48.22466" lon="6.71584">
        <ele>441.3</ele>
        <time>2024-11-20T14:10:35Z</time>
      </trkpt>
      <trkpt lat="48.22458" lon="6.71576">
        <ele>439.9</ele>
        <time>2024-11-20T14:10:43Z</time>
      </trkpt>
      <trkpt lat="48.22449" lon="6.71568">
        <ele>438.5</ele>
        <time>2024-11-20T14:10:51Z</time>
      </trkpt>
      <trkpt lat="48.22441" lon="6.71562">
        <ele>437.3</ele>
        <time>2024-11-20T14:10:58Z</time>
      </trkpt>
      <trkpt lat="48.22432" lon="6.71557">
        <ele>436.2</ele>
        <time>2024-11-20T14:11:06Z</time>
      </trkpt>
      <trkpt lat="48.22424" lon="6.7155">
        <ele>435</ele>
        <time>2024-11-20T14:11:14Z</time>
      </trkpt>
      <trkpt lat="48.22415" lon="6.71544">
        <ele>433.9</ele>
        <time>2024-11-20T14:11:22Z</time>
      </trkpt>
      <trkpt lat="48.22406" lon="6.71542">
        <ele>432.8</ele>
        <time>2024-11-20T14:11:30Z</time>
      </trkpt>
      <trkpt lat="48.22396" lon="6.71547">
        <ele>431.5</ele>
        <time>2024-11-20T14:11:38Z</time>
      </trkpt>
      <trkpt lat="48.22389" lon="6.71556">
        <ele>430.6</ele>
        <time>2024-11-20T14:11:45Z</time>
      </trkpt>
      <trkpt lat="48.22384" lon="6.71568">
        <ele>429.7</ele>
        <time>2024-11-20T14:11:53Z</time>
      </trkpt>
      <trkpt lat="48.22378" lon="6.71581">
        <ele>428.9</ele>
        <time>2024-11-20T14:12:01Z</time>
      </trkpt>
      <trkpt lat="48.22373" lon="6.71594">
        <ele>428.1</ele>
        <time>2024-11-20T14:12:09Z</time>
      </trkpt>
      <trkpt lat="48.22368" lon="6.71605">
        <ele>427.3</ele>
        <time>2024-11-20T14:12:16Z</time>
      </trkpt>
      <trkpt lat="48.22362" lon="6.71617">
        <ele>426.4</ele>
        <time>2024-11-20T14:12:24Z</time>
      </trkpt>
      <trkpt lat="48.22354" lon="6.71627">
        <ele>425.5</ele>
        <time>2024-11-20T14:12:32Z</time>
      </trkpt>
      <trkpt lat="48.22346" lon="6.71633">
        <ele>424.5</ele>
        <time>2024-11-20T14:12:40Z</time>
      </trkpt>
      <trkpt lat="48.22337" lon="6.71638">
        <ele>423.4</ele>
        <time>2024-11-20T14:12:48Z</time>
      </trkpt>
      <trkpt lat="48.22328" lon="6.71642">
        <ele>422.1</ele>
        <time>2024-11-20T14:12:56Z</time>
      </trkpt>
      <trkpt lat="48.22323" lon="6.7163">
        <ele>421.9</ele>
        <time>2024-11-20T14:13:06Z</time>
      </trkpt>
      <trkpt lat="48.22323" lon="6.71616">
        <ele>421.8</ele>
        <time>2024-11-20T14:13:13Z</time>
      </trkpt>
      <trkpt lat="48.22326" lon="6.71602">
        <ele>421.6</ele>
        <time>2024-11-20T14:13:20Z</time>
      </trkpt>
      <trkpt lat="48.2233" lon="6.71588">
        <ele>421.4</ele>
        <time>2024-11-20T14:13:28Z</time>
      </trkpt>
      <trkpt lat="48.22331" lon="6.71575">
        <ele>421.2</ele>
        <time>2024-11-20T14:13:35Z</time>
      </trkpt>
      <trkpt lat="48.22327" lon="6.71561">
        <ele>421.1</ele>
        <time>2024-11-20T14:13:42Z</time>
      </trkpt>
      <trkpt lat="48.22329" lon="6.71548">
        <ele>420.9</ele>
        <time>2024-11-20T14:13:49Z</time>
      </trkpt>
      <trkpt lat="48.22332" lon="6.71534">
        <ele>420.7</ele>
        <time>2024-11-20T14:13:56Z</time>
      </trkpt>
      <trkpt lat="48.22336" lon="6.71521">
        <ele>420.6</ele>
        <time>2024-11-20T14:14:03Z</time>
      </trkpt>
      <trkpt lat="48.22339" lon="6.71507">
        <ele>420.5</ele>
        <time>2024-11-20T14:14:10Z</time>
      </trkpt>
      <trkpt lat="48.22342" lon="6.71493">
        <ele>420.5</ele>
        <time>2024-11-20T14:14:17Z</time>
      </trkpt>
      <trkpt lat="48.22347" lon="6.71481">
        <ele>420.4</ele>
        <time>2024-11-20T14:14:24Z</time>
      </trkpt>
      <trkpt lat="48.22354" lon="6.71471">
        <ele>420.4</ele>
        <time>2024-11-20T14:14:31Z</time>
      </trkpt>
      <trkpt lat="48.2236" lon="6.71459">
        <ele>420.4</ele>
        <time>2024-11-20T14:14:38Z</time>
      </trkpt>
      <trkpt lat="48.22366" lon="6.71448">
        <ele>420.3</ele>
        <time>2024-11-20T14:14:45Z</time>
      </trkpt>
      <trkpt lat="48.22372" lon="6.71436">
        <ele>420.2</ele>
        <time>2024-11-20T14:14:52Z</time>
      </trkpt>
      <trkpt lat="48.22378" lon="6.71424">
        <ele>420.2</ele>
        <time>2024-11-20T14:14:59Z</time>
      </trkpt>
      <trkpt lat="48.22384" lon="6.71415">
        <ele>420.1</ele>
        <time>2024-11-20T14:15:05Z</time>
      </trkpt>
      <trkpt lat="48.22391" lon="6.71404">
        <ele>420.1</ele>
        <time>2024-11-20T14:15:12Z</time>
      </trkpt>
      <trkpt lat="48.22397" lon="6.71392">
        <ele>420.1</ele>
        <time>2024-11-20T14:15:20Z</time>
      </trkpt>
      <trkpt lat="48.22402" lon="6.7138">
        <ele>420</ele>
        <time>2024-11-20T14:15:27Z</time>
      </trkpt>
      <trkpt lat="48.22407" lon="6.71368">
        <ele>419.9</ele>
        <time>2024-11-20T14:15:35Z</time>
      </trkpt>
      <trkpt lat="48.22414" lon="6.71357">
        <ele>419.9</ele>
        <time>2024-11-20T14:15:43Z</time>
      </trkpt>
      <trkpt lat="48.2242" lon="6.71347">
        <ele>419.9</ele>
        <time>2024-11-20T14:15:50Z</time>
      </trkpt>
      <trkpt lat="48.22427" lon="6.71337">
        <ele>419.8</ele>
        <time>2024-11-20T14:15:57Z</time>
      </trkpt>
      <trkpt lat="48.22433" lon="6.71326">
        <ele>419.8</ele>
        <time>2024-11-20T14:16:04Z</time>
      </trkpt>
      <trkpt lat="48.2244" lon="6.71316">
        <ele>419.8</ele>
        <time>2024-11-20T14:16:12Z</time>
      </trkpt>
      <trkpt lat="48.22438" lon="6.71302">
        <ele>419.5</ele>
        <time>2024-11-20T14:16:21Z</time>
      </trkpt>
      <trkpt lat="48.22434" lon="6.71289">
        <ele>419</ele>
        <time>2024-11-20T14:16:28Z</time>
      </trkpt>
      <trkpt lat="48.22426" lon="6.71282">
        <ele>418.4</ele>
        <time>2024-11-20T14:16:35Z</time>
      </trkpt>
      <trkpt lat="48.22421" lon="6.71271">
        <ele>417.9</ele>
        <time>2024-11-20T14:16:47Z</time>
      </trkpt>
      <trkpt lat="48.22412" lon="6.71263">
        <ele>417.5</ele>
        <time>2024-11-20T14:16:52Z</time>
      </trkpt>
      <trkpt lat="48.22403" lon="6.71259">
        <ele>417.3</ele>
        <time>2024-11-20T14:16:57Z</time>
      </trkpt>
      <trkpt lat="48.22395" lon="6.71252">
        <ele>417.4</ele>
        <time>2024-11-20T14:17:05Z</time>
      </trkpt>
      <trkpt lat="48.22387" lon="6.71243">
        <ele>417.6</ele>
        <time>2024-11-20T14:17:13Z</time>
      </trkpt>
      <trkpt lat="48.22379" lon="6.71235">
        <ele>417.8</ele>
        <time>2024-11-20T14:17:20Z</time>
      </trkpt>
      <trkpt lat="48.22371" lon="6.71229">
        <ele>418.1</ele>
        <time>2024-11-20T14:17:27Z</time>
      </trkpt>
      <trkpt lat="48.22363" lon="6.7122">
        <ele>418.4</ele>
        <time>2024-11-20T14:17:35Z</time>
      </trkpt>
      <trkpt lat="48.22356" lon="6.71212">
        <ele>418.5</ele>
        <time>2024-11-20T14:17:42Z</time>
      </trkpt>
      <trkpt lat="48.2235" lon="6.71201">
        <ele>418.5</ele>
        <time>2024-11-20T14:17:50Z</time>
      </trkpt>
      <trkpt lat="48.22344" lon="6.71188">
        <ele>418.6</ele>
        <time>2024-11-20T14:17:59Z</time>
      </trkpt>
      <trkpt lat="48.22341" lon="6.71175">
        <ele>418.7</ele>
        <time>2024-11-20T14:18:06Z</time>
      </trkpt>
      <trkpt lat="48.22338" lon="6.71162">
        <ele>418.8</ele>
        <time>2024-11-20T14:18:13Z</time>
      </trkpt>
      <trkpt lat="48.22337" lon="6.71147">
        <ele>418.8</ele>
        <time>2024-11-20T14:18:20Z</time>
      </trkpt>
      <trkpt lat="48.22338" lon="6.71132">
        <ele>418.8</ele>
        <time>2024-11-20T14:18:27Z</time>
      </trkpt>
      <trkpt lat="48.22339" lon="6.71119">
        <ele>418.9</ele>
        <time>2024-11-20T14:18:34Z</time>
      </trkpt>
      <trkpt lat="48.22342" lon="6.71105">
        <ele>419</ele>
        <time>2024-11-20T14:18:42Z</time>
      </trkpt>
      <trkpt lat="48.22345" lon="6.71091">
        <ele>419.2</ele>
        <time>2024-11-20T14:18:50Z</time>
      </trkpt>
      <trkpt lat="48.22349" lon="6.71079">
        <ele>419.4</ele>
        <time>2024-11-20T14:18:57Z</time>
      </trkpt>
      <trkpt lat="48.22351" lon="6.71065">
        <ele>419.8</ele>
        <time>2024-11-20T14:19:04Z</time>
      </trkpt>
      <trkpt lat="48.22351" lon="6.71051">
        <ele>420.3</ele>
        <time>2024-11-20T14:19:12Z</time>
      </trkpt>
      <trkpt lat="48.22353" lon="6.71037">
        <ele>420.8</ele>
        <time>2024-11-20T14:19:19Z</time>
      </trkpt>
      <trkpt lat="48.22356" lon="6.71023">
        <ele>421.5</ele>
        <time>2024-11-20T14:19:27Z</time>
      </trkpt>
      <trkpt lat="48.22361" lon="6.71011">
        <ele>422.3</ele>
        <time>2024-11-20T14:19:34Z</time>
      </trkpt>
      <trkpt lat="48.22366" lon="6.70999">
        <ele>423.1</ele>
        <time>2024-11-20T14:19:42Z</time>
      </trkpt>
      <trkpt lat="48.22371" lon="6.70986">
        <ele>424</ele>
        <time>2024-11-20T14:19:50Z</time>
      </trkpt>
      <trkpt lat="48.22373" lon="6.7097">
        <ele>425</ele>
        <time>2024-11-20T14:20:02Z</time>
      </trkpt>
      <trkpt lat="48.22374" lon="6.70955">
        <ele>425.7</ele>
        <time>2024-11-20T14:20:08Z</time>
      </trkpt>
      <trkpt lat="48.22375" lon="6.7094">
        <ele>426.4</ele>
        <time>2024-11-20T14:20:15Z</time>
      </trkpt>
      <trkpt lat="48.22374" lon="6.70925">
        <ele>427</ele>
        <time>2024-11-20T14:20:21Z</time>
      </trkpt>
      <trkpt lat="48.22372" lon="6.70911">
        <ele>427.5</ele>
        <time>2024-11-20T14:20:27Z</time>
      </trkpt>
      <trkpt lat="48.22371" lon="6.70896">
        <ele>428</ele>
        <time>2024-11-20T14:20:34Z</time>
      </trkpt>
      <trkpt lat="48.2237" lon="6.70882">
        <ele>428.4</ele>
        <time>2024-11-20T14:20:42Z</time>
      </trkpt>
      <trkpt lat="48.22369" lon="6.70868">
        <ele>428.9</ele>
        <time>2024-11-20T14:20:50Z</time>
      </trkpt>
      <trkpt lat="48.22365" lon="6.70854">
        <ele>429.3</ele>
        <time>2024-11-20T14:20:57Z</time>
      </trkpt>
      <trkpt lat="48.22362" lon="6.7084">
        <ele>429.9</ele>
        <time>2024-11-20T14:21:04Z</time>
      </trkpt>
      <trkpt lat="48.22358" lon="6.70828">
        <ele>430.3</ele>
        <time>2024-11-20T14:21:11Z</time>
      </trkpt>
      <trkpt lat="48.22353" lon="6.70816">
        <ele>430.8</ele>
        <time>2024-11-20T14:21:19Z</time>
      </trkpt>
      <trkpt lat="48.22349" lon="6.70804">
        <ele>431.1</ele>
        <time>2024-11-20T14:21:26Z</time>
      </trkpt>
      <trkpt lat="48.22343" lon="6.70794">
        <ele>431.3</ele>
        <time>2024-11-20T14:21:34Z</time>
      </trkpt>
      <trkpt lat="48.22334" lon="6.70791">
        <ele>431.3</ele>
        <time>2024-11-20T14:22:09Z</time>
      </trkpt>
      <trkpt lat="48.22324" lon="6.70786">
        <ele>431.1</ele>
        <time>2024-11-20T14:22:17Z</time>
      </trkpt>
      <trkpt lat="48.22315" lon="6.70785">
        <ele>430.7</ele>
        <time>2024-11-20T14:22:25Z</time>
      </trkpt>
      <trkpt lat="48.22305" lon="6.70785">
        <ele>430.2</ele>
        <time>2024-11-20T14:22:33Z</time>
      </trkpt>
      <trkpt lat="48.22295" lon="6.70783">
        <ele>429.8</ele>
        <time>2024-11-20T14:22:40Z</time>
      </trkpt>
      <trkpt lat="48.22287" lon="6.70779">
        <ele>429.4</ele>
        <time>2024-11-20T14:22:48Z</time>
      </trkpt>
      <trkpt lat="48.22278" lon="6.70776">
        <ele>429.2</ele>
        <time>2024-11-20T14:22:56Z</time>
      </trkpt>
      <trkpt lat="48.22269" lon="6.70773">
        <ele>429.1</ele>
        <time>2024-11-20T14:23:03Z</time>
      </trkpt>
      <trkpt lat="48.22259" lon="6.7077">
        <ele>429.2</ele>
        <time>2024-11-20T14:23:10Z</time>
      </trkpt>
      <trkpt lat="48.2225" lon="6.70769">
        <ele>429.4</ele>
        <time>2024-11-20T14:23:17Z</time>
      </trkpt>
      <trkpt lat="48.22241" lon="6.70768">
        <ele>429.8</ele>
        <time>2024-11-20T14:23:24Z</time>
      </trkpt>
      <trkpt lat="48.22231" lon="6.70763">
        <ele>430.3</ele>
        <time>2024-11-20T14:23:32Z</time>
      </trkpt>
      <trkpt lat="48.22223" lon="6.70757">
        <ele>430.8</ele>
        <time>2024-11-20T14:23:39Z</time>
      </trkpt>
      <trkpt lat="48.22216" lon="6.70748">
        <ele>431.2</ele>
        <time>2024-11-20T14:23:46Z</time>
      </trkpt>
      <trkpt lat="48.22208" lon="6.7074">
        <ele>431.7</ele>
        <time>2024-11-20T14:23:54Z</time>
      </trkpt>
      <trkpt lat="48.22198" lon="6.70735">
        <ele>432</ele>
        <time>2024-11-20T14:24:02Z</time>
      </trkpt>
      <trkpt lat="48.22189" lon="6.70733">
        <ele>432.4</ele>
        <time>2024-11-20T14:24:10Z</time>
      </trkpt>
      <trkpt lat="48.22179" lon="6.70729">
        <ele>432.7</ele>
        <time>2024-11-20T14:24:18Z</time>
      </trkpt>
      <trkpt lat="48.2217" lon="6.70726">
        <ele>433</ele>
        <time>2024-11-20T14:24:25Z</time>
      </trkpt>
      <trkpt lat="48.22162" lon="6.7072">
        <ele>433.3</ele>
        <time>2024-11-20T14:24:33Z</time>
      </trkpt>
      <trkpt lat="48.22154" lon="6.70712">
        <ele>433.6</ele>
        <time>2024-11-20T14:24:41Z</time>
      </trkpt>
      <trkpt lat="48.22144" lon="6.70708">
        <ele>433.8</ele>
        <time>2024-11-20T14:24:49Z</time>
      </trkpt>
      <trkpt lat="48.22135" lon="6.70707">
        <ele>434</ele>
        <time>2024-11-20T14:24:56Z</time>
      </trkpt>
      <trkpt lat="48.22125" lon="6.70707">
        <ele>434</ele>
        <time>2024-11-20T14:25:03Z</time>
      </trkpt>
      <trkpt lat="48.22116" lon="6.70705">
        <ele>434</ele>
        <time>2024-11-20T14:25:11Z</time>
      </trkpt>
      <trkpt lat="48.22107" lon="6.70703">
        <ele>434</ele>
        <time>2024-11-20T14:25:19Z</time>
      </trkpt>
      <trkpt lat="48.22097" lon="6.70702">
        <ele>434</ele>
        <time>2024-11-20T14:25:27Z</time>
      </trkpt>
      <trkpt lat="48.22088" lon="6.70699">
        <ele>434.2</ele>
        <time>2024-11-20T14:25:35Z</time>
      </trkpt>
      <trkpt lat="48.22086" lon="6.70686">
        <ele>434.7</ele>
        <time>2024-11-20T14:26:53Z</time>
      </trkpt>
      <trkpt lat="48.2208" lon="6.70673">
        <ele>435.3</ele>
        <time>2024-11-20T14:27:03Z</time>
      </trkpt>
      <trkpt lat="48.22073" lon="6.70666">
        <ele>435.7</ele>
        <time>2024-11-20T14:27:11Z</time>
      </trkpt>
      <trkpt lat="48.22063" lon="6.70664">
        <ele>436.1</ele>
        <time>2024-11-20T14:27:18Z</time>
      </trkpt>
      <trkpt lat="48.22054" lon="6.70661">
        <ele>436.4</ele>
        <time>2024-11-20T14:27:25Z</time>
      </trkpt>
      <trkpt lat="48.22045" lon="6.70655">
        <ele>436.7</ele>
        <time>2024-11-20T14:27:34Z</time>
      </trkpt>
      <trkpt lat="48.22036" lon="6.70651">
        <ele>436.9</ele>
        <time>2024-11-20T14:27:41Z</time>
      </trkpt>
      <trkpt lat="48.22028" lon="6.70643">
        <ele>437.2</ele>
        <time>2024-11-20T14:27:48Z</time>
      </trkpt>
      <trkpt lat="48.22019" lon="6.70637">
        <ele>437.5</ele>
        <time>2024-11-20T14:27:55Z</time>
      </trkpt>
      <trkpt lat="48.2201" lon="6.70633">
        <ele>437.8</ele>
        <time>2024-11-20T14:28:03Z</time>
      </trkpt>
      <trkpt lat="48.22001" lon="6.70629">
        <ele>438.1</ele>
        <time>2024-11-20T14:28:11Z</time>
      </trkpt>
      <trkpt lat="48.21992" lon="6.70624">
        <ele>438.4</ele>
        <time>2024-11-20T14:28:19Z</time>
      </trkpt>
      <trkpt lat="48.21983" lon="6.7062">
        <ele>438.5</ele>
        <time>2024-11-20T14:28:27Z</time>
      </trkpt>
      <trkpt lat="48.21973" lon="6.70616">
        <ele>438.6</ele>
        <time>2024-11-20T14:28:34Z</time>
      </trkpt>
      <trkpt lat="48.21964" lon="6.70609">
        <ele>438.7</ele>
        <time>2024-11-20T14:28:42Z</time>
      </trkpt>
      <trkpt lat="48.21956" lon="6.70607">
        <ele>438.8</ele>
        <time>2024-11-20T14:28:48Z</time>
      </trkpt>
      <trkpt lat="48.21946" lon="6.70602">
        <ele>438.9</ele>
        <time>2024-11-20T14:28:56Z</time>
      </trkpt>
      <trkpt lat="48.21938" lon="6.70598">
        <ele>439.1</ele>
        <time>2024-11-20T14:29:04Z</time>
      </trkpt>
      <trkpt lat="48.2193" lon="6.7059">
        <ele>439.3</ele>
        <time>2024-11-20T14:29:13Z</time>
      </trkpt>
      <trkpt lat="48.21923" lon="6.70582">
        <ele>439.5</ele>
        <time>2024-11-20T14:29:21Z</time>
      </trkpt>
      <trkpt lat="48.21914" lon="6.70577">
        <ele>439.6</ele>
        <time>2024-11-20T14:29:29Z</time>
      </trkpt>
      <trkpt lat="48.21905" lon="6.70574">
        <ele>439.8</ele>
        <time>2024-11-20T14:29:35Z</time>
      </trkpt>
      <trkpt lat="48.21896" lon="6.70573">
        <ele>440</ele>
        <time>2024-11-20T14:29:42Z</time>
      </trkpt>
      <trkpt lat="48.21886" lon="6.70566">
        <ele>440.3</ele>
        <time>2024-11-20T14:29:51Z</time>
      </trkpt>
      <trkpt lat="48.21876" lon="6.70561">
        <ele>440.6</ele>
        <time>2024-11-20T14:29:58Z</time>
      </trkpt>
      <trkpt lat="48.21868" lon="6.70554">
        <ele>441</ele>
        <time>2024-11-20T14:30:05Z</time>
      </trkpt>
      <trkpt lat="48.21859" lon="6.70551">
        <ele>441.5</ele>
        <time>2024-11-20T14:30:13Z</time>
      </trkpt>
      <trkpt lat="48.21851" lon="6.70544">
        <ele>442</ele>
        <time>2024-11-20T14:30:21Z</time>
      </trkpt>
      <trkpt lat="48.21842" lon="6.7054">
        <ele>442.5</ele>
        <time>2024-11-20T14:30:28Z</time>
      </trkpt>
      <trkpt lat="48.21833" lon="6.70536">
        <ele>443</ele>
        <time>2024-11-20T14:30:36Z</time>
      </trkpt>
      <trkpt lat="48.21823" lon="6.70532">
        <ele>443.6</ele>
        <time>2024-11-20T14:30:44Z</time>
      </trkpt>
      <trkpt lat="48.21814" lon="6.70529">
        <ele>444.2</ele>
        <time>2024-11-20T14:30:53Z</time>
      </trkpt>
      <trkpt lat="48.21809" lon="6.70517">
        <ele>444.9</ele>
        <time>2024-11-20T14:31:03Z</time>
      </trkpt>
      <trkpt lat="48.21801" lon="6.7051">
        <ele>445.5</ele>
        <time>2024-11-20T14:31:11Z</time>
      </trkpt>
      <trkpt lat="48.21792" lon="6.70505">
        <ele>446.1</ele>
        <time>2024-11-20T14:31:19Z</time>
      </trkpt>
      <trkpt lat="48.21786" lon="6.70495">
        <ele>446.6</ele>
        <time>2024-11-20T14:31:26Z</time>
      </trkpt>
      <trkpt lat="48.2178" lon="6.70483">
        <ele>447</ele>
        <time>2024-11-20T14:31:35Z</time>
      </trkpt>
      <trkpt lat="48.21773" lon="6.70472">
        <ele>447.4</ele>
        <time>2024-11-20T14:31:45Z</time>
      </trkpt>
      <trkpt lat="48.21766" lon="6.70465">
        <ele>447.8</ele>
        <time>2024-11-20T14:31:53Z</time>
      </trkpt>
      <trkpt lat="48.21763" lon="6.70452">
        <ele>448.2</ele>
        <time>2024-11-20T14:32:01Z</time>
      </trkpt>
      <trkpt lat="48.21757" lon="6.70439">
        <ele>448.7</ele>
        <time>2024-11-20T14:32:09Z</time>
      </trkpt>
      <trkpt lat="48.21749" lon="6.70432">
        <ele>449.1</ele>
        <time>2024-11-20T14:32:16Z</time>
      </trkpt>
      <trkpt lat="48.21739" lon="6.7043">
        <ele>449.5</ele>
        <time>2024-11-20T14:32:23Z</time>
      </trkpt>
      <trkpt lat="48.21731" lon="6.70421">
        <ele>449.9</ele>
        <time>2024-11-20T14:32:31Z</time>
      </trkpt>
      <trkpt lat="48.21723" lon="6.70417">
        <ele>450.1</ele>
        <time>2024-11-20T14:32:41Z</time>
      </trkpt>
      <trkpt lat="48.21715" lon="6.70407">
        <ele>450.2</ele>
        <time>2024-11-20T14:32:50Z</time>
      </trkpt>
      <trkpt lat="48.2171" lon="6.70395">
        <ele>450.4</ele>
        <time>2024-11-20T14:32:59Z</time>
      </trkpt>
      <trkpt lat="48.21704" lon="6.70385">
        <ele>450.6</ele>
        <time>2024-11-20T14:33:08Z</time>
      </trkpt>
      <trkpt lat="48.21696" lon="6.70378">
        <ele>450.8</ele>
        <time>2024-11-20T14:33:16Z</time>
      </trkpt>
      <trkpt lat="48.21687" lon="6.7037">
        <ele>451</ele>
        <time>2024-11-20T14:33:24Z</time>
      </trkpt>
      <trkpt lat="48.2168" lon="6.70362">
        <ele>451.3</ele>
        <time>2024-11-20T14:33:32Z</time>
      </trkpt>
      <trkpt lat="48.21673" lon="6.70351">
        <ele>451.5</ele>
        <time>2024-11-20T14:33:42Z</time>
      </trkpt>
      <trkpt lat="48.21666" lon="6.70341">
        <ele>451.7</ele>
        <time>2024-11-20T14:33:49Z</time>
      </trkpt>
      <trkpt lat="48.21661" lon="6.7033">
        <ele>452</ele>
        <time>2024-11-20T14:33:57Z</time>
      </trkpt>
      <trkpt lat="48.21654" lon="6.70322">
        <ele>452.3</ele>
        <time>2024-11-20T14:34:05Z</time>
      </trkpt>
      <trkpt lat="48.21647" lon="6.70311">
        <ele>452.7</ele>
        <time>2024-11-20T14:34:13Z</time>
      </trkpt>
      <trkpt lat="48.21641" lon="6.703">
        <ele>453.2</ele>
        <time>2024-11-20T14:34:21Z</time>
      </trkpt>
      <trkpt lat="48.21639" lon="6.70287">
        <ele>453.8</ele>
        <time>2024-11-20T14:34:28Z</time>
      </trkpt>
      <trkpt lat="48.21633" lon="6.70275">
        <ele>454.4</ele>
        <time>2024-11-20T14:34:36Z</time>
      </trkpt>
      <trkpt lat="48.21627" lon="6.70264">
        <ele>455</ele>
        <time>2024-11-20T14:35:24Z</time>
      </trkpt>
      <trkpt lat="48.21618" lon="6.70259">
        <ele>454.3</ele>
        <time>2024-11-20T14:36:00Z</time>
      </trkpt>
      <trkpt lat="48.21608" lon="6.70259">
        <ele>454.1</ele>
        <time>2024-11-20T14:36:38Z</time>
      </trkpt>
      <trkpt lat="48.21599" lon="6.70263">
        <ele>453.9</ele>
        <time>2024-11-20T14:36:45Z</time>
      </trkpt>
      <trkpt lat="48.2159" lon="6.70269">
        <ele>453.8</ele>
        <time>2024-11-20T14:36:54Z</time>
      </trkpt>
      <trkpt lat="48.21581" lon="6.70275">
        <ele>453.9</ele>
        <time>2024-11-20T14:37:04Z</time>
      </trkpt>
      <trkpt lat="48.21572" lon="6.70283">
        <ele>454</ele>
        <time>2024-11-20T14:37:11Z</time>
      </trkpt>
      <trkpt lat="48.21569" lon="6.70295">
        <ele>454.1</ele>
        <time>2024-11-20T14:37:22Z</time>
      </trkpt>
      <trkpt lat="48.21568" lon="6.70309">
        <ele>453.9</ele>
        <time>2024-11-20T14:37:28Z</time>
      </trkpt>
      <trkpt lat="48.21565" lon="6.70322">
        <ele>453.8</ele>
        <time>2024-11-20T14:37:35Z</time>
      </trkpt>
      <trkpt lat="48.21561" lon="6.70334">
        <ele>453.6</ele>
        <time>2024-11-20T14:37:41Z</time>
      </trkpt>
      <trkpt lat="48.21557" lon="6.70347">
        <ele>453.6</ele>
        <time>2024-11-20T14:37:47Z</time>
      </trkpt>
      <trkpt lat="48.21556" lon="6.70362">
        <ele>453.5</ele>
        <time>2024-11-20T14:37:54Z</time>
      </trkpt>
      <trkpt lat="48.21552" lon="6.70375">
        <ele>453.6</ele>
        <time>2024-11-20T14:38:01Z</time>
      </trkpt>
      <trkpt lat="48.21551" lon="6.70389">
        <ele>453.7</ele>
        <time>2024-11-20T14:38:09Z</time>
      </trkpt>
      <trkpt lat="48.21547" lon="6.70402">
        <ele>453.8</ele>
        <time>2024-11-20T14:38:17Z</time>
      </trkpt>
      <trkpt lat="48.21542" lon="6.70414">
        <ele>454.1</ele>
        <time>2024-11-20T14:38:28Z</time>
      </trkpt>
      <trkpt lat="48.21534" lon="6.70421">
        <ele>454.5</ele>
        <time>2024-11-20T14:39:06Z</time>
      </trkpt>
      <trkpt lat="48.2153" lon="6.70433">
        <ele>455.1</ele>
        <time>2024-11-20T14:39:14Z</time>
      </trkpt>
      <trkpt lat="48.21531" lon="6.70448">
        <ele>456.1</ele>
        <time>2024-11-20T14:39:20Z</time>
      </trkpt>
      <trkpt lat="48.21534" lon="6.70461">
        <ele>457.3</ele>
        <time>2024-11-20T14:39:27Z</time>
      </trkpt>
      <trkpt lat="48.21533" lon="6.70476">
        <ele>458.3</ele>
        <time>2024-11-20T14:39:34Z</time>
      </trkpt>
      <trkpt lat="48.21535" lon="6.7049">
        <ele>459.2</ele>
        <time>2024-11-20T14:39:43Z</time>
      </trkpt>
      <trkpt lat="48.21535" lon="6.70506">
        <ele>460.3</ele>
        <time>2024-11-20T14:39:51Z</time>
      </trkpt>
      <trkpt lat="48.21536" lon="6.7052">
        <ele>461.3</ele>
        <time>2024-11-20T14:39:59Z</time>
      </trkpt>
      <trkpt lat="48.21538" lon="6.70534">
        <ele>462.3</ele>
        <time>2024-11-20T14:40:08Z</time>
      </trkpt>
      <trkpt lat="48.21537" lon="6.70548">
        <ele>463.3</ele>
        <time>2024-11-20T14:40:16Z</time>
      </trkpt>
      <trkpt lat="48.21535" lon="6.70562">
        <ele>464.1</ele>
        <time>2024-11-20T14:40:24Z</time>
      </trkpt>
      <trkpt lat="48.21531" lon="6.70574">
        <ele>464.8</ele>
        <time>2024-11-20T14:40:34Z</time>
      </trkpt>
      <trkpt lat="48.21527" lon="6.70588">
        <ele>465.5</ele>
        <time>2024-11-20T14:40:46Z</time>
      </trkpt>
      <trkpt lat="48.21525" lon="6.70601">
        <ele>466.2</ele>
        <time>2024-11-20T14:40:55Z</time>
      </trkpt>
      <trkpt lat="48.21521" lon="6.70614">
        <ele>466.8</ele>
        <time>2024-11-20T14:41:04Z</time>
      </trkpt>
      <trkpt lat="48.21521" lon="6.70629">
        <ele>467.5</ele>
        <time>2024-11-20T14:41:13Z</time>
      </trkpt>
      <trkpt lat="48.2152" lon="6.70645">
        <ele>468.2</ele>
        <time>2024-11-20T14:41:23Z</time>
      </trkpt>
      <trkpt lat="48.21519" lon="6.70658">
        <ele>468.8</ele>
        <time>2024-11-20T14:41:34Z</time>
      </trkpt>
      <trkpt lat="48.21515" lon="6.70671">
        <ele>469.4</ele>
        <time>2024-11-20T14:42:18Z</time>
      </trkpt>
      <trkpt lat="48.21511" lon="6.70683">
        <ele>470</ele>
        <time>2024-11-20T14:42:45Z</time>
      </trkpt>
      <trkpt lat="48.21505" lon="6.70695">
        <ele>470.6</ele>
        <time>2024-11-20T14:42:59Z</time>
      </trkpt>
      <trkpt lat="48.21503" lon="6.70708">
        <ele>471.1</ele>
        <time>2024-11-20T14:43:08Z</time>
      </trkpt>
      <trkpt lat="48.21497" lon="6.70718">
        <ele>471.6</ele>
        <time>2024-11-20T14:43:16Z</time>
      </trkpt>
      <trkpt lat="48.21494" lon="6.70732">
        <ele>472.1</ele>
        <time>2024-11-20T14:43:26Z</time>
      </trkpt>
      <trkpt lat="48.2149" lon="6.70745">
        <ele>472.6</ele>
        <time>2024-11-20T14:43:37Z</time>
      </trkpt>
      <trkpt lat="48.21485" lon="6.70757">
        <ele>473.2</ele>
        <time>2024-11-20T14:44:01Z</time>
      </trkpt>
      <trkpt lat="48.2148" lon="6.7077">
        <ele>473.9</ele>
        <time>2024-11-20T14:44:14Z</time>
      </trkpt>
      <trkpt lat="48.21474" lon="6.7078">
        <ele>474.6</ele>
        <time>2024-11-20T14:44:24Z</time>
      </trkpt>
      <trkpt lat="48.21468" lon="6.70791">
        <ele>475.2</ele>
        <time>2024-11-20T14:44:35Z</time>
      </trkpt>
      <trkpt lat="48.21461" lon="6.708">
        <ele>475.9</ele>
        <time>2024-11-20T14:44:44Z</time>
      </trkpt>
      <trkpt lat="48.21455" lon="6.70812">
        <ele>476.5</ele>
        <time>2024-11-20T14:45:01Z</time>
      </trkpt>
      <trkpt lat="48.2145" lon="6.70823">
        <ele>477.1</ele>
        <time>2024-11-20T14:46:11Z</time>
      </trkpt>
      <trkpt lat="48.21444" lon="6.70834">
        <ele>477.7</ele>
        <time>2024-11-20T14:46:21Z</time>
      </trkpt>
      <trkpt lat="48.21438" lon="6.70844">
        <ele>478.2</ele>
        <time>2024-11-20T14:46:35Z</time>
      </trkpt>
      <trkpt lat="48.2143" lon="6.70851">
        <ele>478.8</ele>
        <time>2024-11-20T14:46:51Z</time>
      </trkpt>
      <trkpt lat="48.21423" lon="6.7086">
        <ele>479.3</ele>
        <time>2024-11-20T14:46:59Z</time>
      </trkpt>
      <trkpt lat="48.21416" lon="6.7087">
        <ele>479.8</ele>
        <time>2024-11-20T14:47:07Z</time>
      </trkpt>
      <trkpt lat="48.21409" lon="6.70882">
        <ele>480.4</ele>
        <time>2024-11-20T14:47:18Z</time>
      </trkpt>
      <trkpt lat="48.21406" lon="6.70895">
        <ele>480.9</ele>
        <time>2024-11-20T14:47:37Z</time>
      </trkpt>
      <trkpt lat="48.21399" lon="6.70903">
        <ele>481.4</ele>
        <time>2024-11-20T14:47:44Z</time>
      </trkpt>
      <trkpt lat="48.21393" lon="6.70914">
        <ele>481.9</ele>
        <time>2024-11-20T14:47:55Z</time>
      </trkpt>
      <trkpt lat="48.21387" lon="6.70924">
        <ele>482.4</ele>
        <time>2024-11-20T14:48:05Z</time>
      </trkpt>
      <trkpt lat="48.21384" lon="6.70938">
        <ele>483</ele>
        <time>2024-11-20T14:49:11Z</time>
      </trkpt>
      <trkpt lat="48.21379" lon="6.70949">
        <ele>483.6</ele>
        <time>2024-11-20T14:49:36Z</time>
      </trkpt>
      <trkpt lat="48.21375" lon="6.70962">
        <ele>484.1</ele>
        <time>2024-11-20T14:52:31Z</time>
      </trkpt>
      <trkpt lat="48.2137" lon="6.70974">
        <ele>484.6</ele>
        <time>2024-11-20T14:52:39Z</time>
      </trkpt>
      <trkpt lat="48.21365" lon="6.70987">
        <ele>485.1</ele>
        <time>2024-11-20T14:52:48Z</time>
      </trkpt>
      <trkpt lat="48.21361" lon="6.71">
        <ele>485.7</ele>
        <time>2024-11-20T14:54:02Z</time>
      </trkpt>
      <trkpt lat="48.21354" lon="6.71011">
        <ele>486.2</ele>
        <time>2024-11-20T14:54:53Z</time>
      </trkpt>
      <trkpt lat="48.2136" lon="6.71">
        <ele>486.5</ele>
        <time>2024-11-20T14:55:13Z</time>
      </trkpt>
      <trkpt lat="48.2136" lon="6.71014">
        <ele>486.7</ele>
        <time>2024-11-20T14:57:03Z</time>
      </trkpt>
      <trkpt lat="48.21352" lon="6.71024">
        <ele>486.5</ele>
        <time>2024-11-20T14:57:10Z</time>
      </trkpt>
      <trkpt lat="48.21345" lon="6.71033">
        <ele>486.1</ele>
        <time>2024-11-20T14:57:16Z</time>
      </trkpt>
      <trkpt lat="48.21337" lon="6.71043">
        <ele>485.6</ele>
        <time>2024-11-20T14:57:22Z</time>
      </trkpt>
      <trkpt lat="48.21329" lon="6.71051">
        <ele>484.8</ele>
        <time>2024-11-20T14:57:30Z</time>
      </trkpt>
      <trkpt lat="48.2132" lon="6.71058">
        <ele>484.1</ele>
        <time>2024-11-20T14:57:37Z</time>
      </trkpt>
      <trkpt lat="48.21312" lon="6.71066">
        <ele>483.4</ele>
        <time>2024-11-20T14:57:47Z</time>
      </trkpt>
      <trkpt lat="48.21304" lon="6.71074">
        <ele>482.6</ele>
        <time>2024-11-20T14:57:56Z</time>
      </trkpt>
      <trkpt lat="48.21295" lon="6.71081">
        <ele>481.9</ele>
        <time>2024-11-20T14:58:02Z</time>
      </trkpt>
      <trkpt lat="48.21286" lon="6.71088">
        <ele>481.2</ele>
        <time>2024-11-20T14:58:09Z</time>
      </trkpt>
      <trkpt lat="48.21278" lon="6.71096">
        <ele>480.7</ele>
        <time>2024-11-20T14:58:17Z</time>
      </trkpt>
      <trkpt lat="48.21271" lon="6.71103">
        <ele>480.2</ele>
        <time>2024-11-20T14:58:25Z</time>
      </trkpt>
      <trkpt lat="48.21262" lon="6.71111">
        <ele>479.7</ele>
        <time>2024-11-20T15:03:19Z</time>
      </trkpt>
      <trkpt lat="48.21254" lon="6.71117">
        <ele>479.3</ele>
        <time>2024-11-20T15:03:27Z</time>
      </trkpt>
      <trkpt lat="48.21252" lon="6.71131">
        <ele>478.6</ele>
        <time>2024-11-20T15:03:35Z</time>
      </trkpt>
      <trkpt lat="48.21249" lon="6.71144">
        <ele>477.9</ele>
        <time>2024-11-20T15:03:43Z</time>
      </trkpt>
      <trkpt lat="48.21247" lon="6.71158">
        <ele>477.3</ele>
        <time>2024-11-20T15:03:51Z</time>
      </trkpt>
      <trkpt lat="48.21246" lon="6.71172">
        <ele>476.7</ele>
        <time>2024-11-20T15:03:59Z</time>
      </trkpt>
      <trkpt lat="48.21245" lon="6.71186">
        <ele>476.1</ele>
        <time>2024-11-20T15:04:07Z</time>
      </trkpt>
      <trkpt lat="48.21244" lon="6.712">
        <ele>475.6</ele>
        <time>2024-11-20T15:04:18Z</time>
      </trkpt>
      <trkpt lat="48.21243" lon="6.71214">
        <ele>475.1</ele>
        <time>2024-11-20T15:04:24Z</time>
      </trkpt>
      <trkpt lat="48.21241" lon="6.71229">
        <ele>474.6</ele>
        <time>2024-11-20T15:04:31Z</time>
      </trkpt>
      <trkpt lat="48.21239" lon="6.71243">
        <ele>474.3</ele>
        <time>2024-11-20T15:04:38Z</time>
      </trkpt>
      <trkpt lat="48.21237" lon="6.71258">
        <ele>473.9</ele>
        <time>2024-11-20T15:04:46Z</time>
      </trkpt>
      <trkpt lat="48.21234" lon="6.71272">
        <ele>473.6</ele>
        <time>2024-11-20T15:04:54Z</time>
      </trkpt>
      <trkpt lat="48.21229" lon="6.71284">
        <ele>473.3</ele>
        <time>2024-11-20T15:05:02Z</time>
      </trkpt>
      <trkpt lat="48.21227" lon="6.71298">
        <ele>473.1</ele>
        <time>2024-11-20T15:05:09Z</time>
      </trkpt>
      <trkpt lat="48.21224" lon="6.71312">
        <ele>473</ele>
        <time>2024-11-20T15:05:17Z</time>
      </trkpt>
      <trkpt lat="48.21219" lon="6.71325">
        <ele>472.9</ele>
        <time>2024-11-20T15:05:25Z</time>
      </trkpt>
      <trkpt lat="48.21217" lon="6.7134">
        <ele>472.7</ele>
        <time>2024-11-20T15:05:32Z</time>
      </trkpt>
      <trkpt lat="48.21213" lon="6.71354">
        <ele>472.5</ele>
        <time>2024-11-20T15:05:40Z</time>
      </trkpt>
      <trkpt lat="48.21211" lon="6.71368">
        <ele>472.4</ele>
        <time>2024-11-20T15:05:47Z</time>
      </trkpt>
      <trkpt lat="48.21207" lon="6.7138">
        <ele>472.3</ele>
        <time>2024-11-20T15:05:55Z</time>
      </trkpt>
      <trkpt lat="48.21206" lon="6.71395">
        <ele>472.3</ele>
        <time>2024-11-20T15:06:03Z</time>
      </trkpt>
      <trkpt lat="48.21204" lon="6.71408">
        <ele>472.4</ele>
        <time>2024-11-20T15:06:10Z</time>
      </trkpt>
      <trkpt lat="48.21202" lon="6.71422">
        <ele>472.6</ele>
        <time>2024-11-20T15:06:18Z</time>
      </trkpt>
      <trkpt lat="48.21203" lon="6.71436">
        <ele>472.8</ele>
        <time>2024-11-20T15:06:27Z</time>
      </trkpt>
      <trkpt lat="48.21197" lon="6.71448">
        <ele>472.9</ele>
        <time>2024-11-20T15:06:35Z</time>
      </trkpt>
      <trkpt lat="48.2119" lon="6.71457">
        <ele>473</ele>
        <time>2024-11-20T15:06:41Z</time>
      </trkpt>
      <trkpt lat="48.21183" lon="6.71467">
        <ele>473.1</ele>
        <time>2024-11-20T15:06:48Z</time>
      </trkpt>
      <trkpt lat="48.21178" lon="6.71479">
        <ele>473.2</ele>
        <time>2024-11-20T15:06:54Z</time>
      </trkpt>
      <trkpt lat="48.21173" lon="6.71491">
        <ele>473.3</ele>
        <time>2024-11-20T15:07:01Z</time>
      </trkpt>
      <trkpt lat="48.21168" lon="6.71502">
        <ele>473.4</ele>
        <time>2024-11-20T15:07:09Z</time>
      </trkpt>
      <trkpt lat="48.21161" lon="6.71512">
        <ele>473.5</ele>
        <time>2024-11-20T15:07:17Z</time>
      </trkpt>
      <trkpt lat="48.21155" lon="6.71523">
        <ele>473.6</ele>
        <time>2024-11-20T15:07:25Z</time>
      </trkpt>
      <trkpt lat="48.2115" lon="6.71535">
        <ele>473.7</ele>
        <time>2024-11-20T15:07:33Z</time>
      </trkpt>
      <trkpt lat="48.21146" lon="6.71548">
        <ele>473.8</ele>
        <time>2024-11-20T15:07:41Z</time>
      </trkpt>
      <trkpt lat="48.21139" lon="6.7156">
        <ele>473.9</ele>
        <time>2024-11-20T15:07:48Z</time>
      </trkpt>
      <trkpt lat="48.21137" lon="6.71573">
        <ele>474</ele>
        <time>2024-11-20T15:07:55Z</time>
      </trkpt>
      <trkpt lat="48.21131" lon="6.71586">
        <ele>474.2</ele>
        <time>2024-11-20T15:08:02Z</time>
      </trkpt>
      <trkpt lat="48.21126" lon="6.71599">
        <ele>474.4</ele>
        <time>2024-11-20T15:08:08Z</time>
      </trkpt>
      <trkpt lat="48.21124" lon="6.71612">
        <ele>474.6</ele>
        <time>2024-11-20T15:08:16Z</time>
      </trkpt>
      <trkpt lat="48.21122" lon="6.71626">
        <ele>474.7</ele>
        <time>2024-11-20T15:08:25Z</time>
      </trkpt>
      <trkpt lat="48.21118" lon="6.71638">
        <ele>474.9</ele>
        <time>2024-11-20T15:08:32Z</time>
      </trkpt>
      <trkpt lat="48.21117" lon="6.71653">
        <ele>475.1</ele>
        <time>2024-11-20T15:08:40Z</time>
      </trkpt>
      <trkpt lat="48.21118" lon="6.71669">
        <ele>475.3</ele>
        <time>2024-11-20T15:08:47Z</time>
      </trkpt>
      <trkpt lat="48.21115" lon="6.71682">
        <ele>475.5</ele>
        <time>2024-11-20T15:08:54Z</time>
      </trkpt>
      <trkpt lat="48.21112" lon="6.71696">
        <ele>475.7</ele>
        <time>2024-11-20T15:09:02Z</time>
      </trkpt>
      <trkpt lat="48.21111" lon="6.71711">
        <ele>475.9</ele>
        <time>2024-11-20T15:09:09Z</time>
      </trkpt>
      <trkpt lat="48.21112" lon="6.71725">
        <ele>476.2</ele>
        <time>2024-11-20T15:09:17Z</time>
      </trkpt>
      <trkpt lat="48.21112" lon="6.71739">
        <ele>476.4</ele>
        <time>2024-11-20T15:09:23Z</time>
      </trkpt>
      <trkpt lat="48.21111" lon="6.71752">
        <ele>476.6</ele>
        <time>2024-11-20T15:09:30Z</time>
      </trkpt>
      <trkpt lat="48.21109" lon="6.71767">
        <ele>476.8</ele>
        <time>2024-11-20T15:09:38Z</time>
      </trkpt>
      <trkpt lat="48.2111" lon="6.71781">
        <ele>477</ele>
        <time>2024-11-20T15:09:45Z</time>
      </trkpt>
      <trkpt lat="48.21108" lon="6.71796">
        <ele>477.2</ele>
        <time>2024-11-20T15:09:53Z</time>
      </trkpt>
      <trkpt lat="48.21105" lon="6.71809">
        <ele>477.3</ele>
        <time>2024-11-20T15:10:00Z</time>
      </trkpt>
      <trkpt lat="48.21105" lon="6.71823">
        <ele>477.5</ele>
        <time>2024-11-20T15:10:07Z</time>
      </trkpt>
      <trkpt lat="48.21102" lon="6.71837">
        <ele>477.6</ele>
        <time>2024-11-20T15:10:14Z</time>
      </trkpt>
      <trkpt lat="48.21107" lon="6.71853">
        <ele>477.6</ele>
        <time>2024-11-20T15:10:22Z</time>
      </trkpt>
      <trkpt lat="48.21108" lon="6.71855">
        <ele>477.6</ele>
        <time>2024-11-20T15:10:26Z</time>
      </trkpt>
      <trkpt lat="48.21109" lon="6.71857">
        <ele>477.7</ele>
        <time>2024-11-20T15:10:26Z</time>
      </trkpt>
    </trkseg>
  </trk>
</gpx>